GFSNGP_925_spd_000.txt.gz
Wind_Speed
5 3 2 5 8 8 10 12 6 15 12 14 11 12 12 4 7 5 5 6 7 6 6 10 15 17 18 17 20 23 22 22 24 22 25 27 30 31 32 31 31 32 32 32
2 7 4 6 11 11 14 17 15 16 20 18 15 3 3 4 6 6 6 7 6 6 9 14 18 17 17 20 22 22 21 22 23 22 23 25 26 27 28 29 30 31 33 31
3 4 4 9 12 14 10 11 8 12 16 9 4 5 5 5 2 5 8 7 6 8 11 12 15 16 17 20 22 23 22 23 22 25 25 26 27 27 27 27 28 29 29 30
3 4 3 7 5 6 5 7 10 11 9 6 1 4 5 6 2 6 8 9 8 8 11 14 15 16 18 20 22 22 23 21 23 24 25 27 27 27 29 29 28 29 30 28
3 4 8 10 5 2 1 5 6 7 9 2 6 5 6 6 11 10 9 8 10 11 11 12 12 16 16 18 18 20 18 21 23 24 26 26 27 29 29 30 27 29 27 30
3 3 5 2 5 7 4 5 4 6 6 5 5 2 1 7 9 9 11 11 12 11 11 11 12 12 13 14 17 15 19 21 23 25 26 27 28 30 30 29 31 28 30 29
6 4 6 9 9 4 1 3 2 3 5 4 4 3 5 8 9 14 13 12 10 8 7 8 9 11 12 15 16 20 22 23 24 25 27 27 29 31 29 33 30 33 30 31
3 3 6 3 5 2 4 4 2 4 3 2 4 7 8 8 7 8 7 5 4 3 5 8 11 13 15 17 21 23 24 25 26 27 28 28 29 28 31 29 32 29 28 26
6 5 4 1 3 6 10 7 6 7 4 4 4 7 7 6 6 5 4 2 3 6 8 10 13 15 19 21 23 23 23 24 24 26 26 27 27 29 30 26 28 25 24 24
7 2 5 10 12 9 7 5 6 6 6 5 3 6 5 4 2 1 1 3 6 8 11 13 15 17 18 22 23 23 23 24 24 25 27 26 27 25 27 27 25 24 25 26
7 12 12 9 4 5 2 4 3 3 3 2 4 5 4 4 2 1 2 5 8 10 13 15 17 19 20 22 22 23 23 24 25 24 25 28 26 27 27 26 26 29 28 29
7 9 11 11 8 3 5 5 5 5 3 4 2 3 3 1 1 1 3 7 10 12 15 18 20 22 23 23 22 24 23 22 23 25 25 27 27 29 27 28 31 32 33 31
8 6 7 8 6 3 2 3 6 6 5 4 2 2 2 1 2 5 8 11 13 13 18 21 22 23 23 22 23 24 24 25 25 25 25 24 24 24 24 32 30 29 28 30
10 8 8 5 1 5 6 6 10 10 8 6 4 4 3 2 5 8 11 12 15 17 20 21 23 23 24 26 25 25 26 25 25 24 23 24 24 25 25 24 24 28 26 30
5 5 2 4 5 4 5 4 5 5 6 6 7 3 2 4 7 11 14 15 17 19 22 21 21 25 25 25 25 26 25 24 24 24 24 25 25 25 25 24 23 25 26 26
3 4 4 3 3 3 4 4 6 6 6 3 3 4 5 6 11 15 16 18 16 14 21 22 23 27 27 26 26 25 23 25 26 24 23 23 23 23 23 23 22 22 22 22
1 4 5 5 7 7 8 5 5 5 4 4 4 5 6 10 13 17 16 15 18 22 23 25 28 29 29 21 26 27 25 24 25 26 22 22 23 23 22 22 21 23 23 24
3 2 4 4 6 7 6 5 4 4 4 5 4 6 9 11 9 15 19 20 21 24 24 26 27 25 29 30 28 26 25 25 23 22 23 24 24 25 24 24 23 23 24 23
6 5 4 2 6 6 5 6 6 6 5 5 6 8 10 13 16 19 20 22 19 18 26 26 28 27 27 30 28 27 24 23 23 25 24 26 26 24 22 23 24 24 24 24
1 2 5 6 9 8 7 7 7 6 6 6 7 10 13 17 18 20 21 21 23 25 28 29 29 30 29 29 26 25 24 24 24 26 25 26 24 24 24 24 26 23 24 22
6 7 6 7 6 7 7 7 7 6 6 7 9 13 16 21 22 23 17 14 26 25 26 29 28 27 27 26 28 26 26 27 25 25 25 24 24 23 21 22 22 24 24 22
8 7 9 11 9 9 9 8 6 6 8 11 14 16 17 19 22 22 21 21 28 27 26 27 27 28 31 33 30 28 27 27 27 26 25 24 22 21 22 21 21 22 23 22
11 12 12 10 9 8 7 7 7 9 11 13 15 17 17 18 19 16 12 24 24 26 29 29 31 33 34 34 30 29 28 27 27 25 24 24 24 24 22 22 23 23 22 24
9 11 9 8 7 5 4 8 7 8 11 15 18 19 20 18 20 22 25 27 29 31 31 32 33 34 35 32 28 27 27 26 26 26 26 28 26 25 24 23 23 23 23 24
9 11 11 9 6 6 8 8 8 10 12 14 16 18 19 19 21 26 27 29 30 29 29 32 34 34 31 28 28 28 28 27 28 28 27 25 23 23 22 22 22 24 24 23
9 8 9 10 7 3 3 6 7 9 12 14 16 18 21 23 24 25 26 28 29 29 30 29 29 31 30 29 29 29 29 29 29 28 28 26 25 24 24 24 25 26 26 25
6 6 6 3 4 3 3 6 8 10 13 16 17 20 22 24 24 26 27 27 28 29 29 30 30 31 31 30 30 30 30 30 31 31 29 26 25 24 24 24 24 25 24 25

GFSNGP_925_spd_003.txt.gz
Wind_Speed
2 2 1 4 6 6 7 5 6 2 8 8 5 6 6 6 8 8 8 8 7 7 7 13 17 18 18 19 19 20 20 23 22 24 29 31 31 31 32 33 34 34 35 37
2 3 4 6 8 9 10 8 8 9 17 9 8 4 4 8 8 8 8 7 8 7 8 12 14 13 14 15 18 18 22 23 23 28 30 29 30 31 30 31 31 32 34 32
0 4 5 8 8 10 4 3 5 7 9 5 3 4 3 3 8 9 8 9 8 7 9 10 10 10 12 16 19 22 23 22 26 28 27 28 30 30 30 31 31 33 31 31
2 3 2 4 4 5 7 5 5 5 7 5 3 3 6 2 7 9 9 8 7 8 9 8 8 10 12 17 18 21 20 24 27 28 28 29 30 30 31 30 31 31 30 34
4 3 7 6 5 4 3 4 2 1 4 4 2 3 5 6 7 8 8 9 11 10 7 5 8 11 15 16 17 19 19 23 25 27 27 28 28 29 30 30 30 31 32 31
3 3 4 4 1 2 3 4 3 1 1 4 1 5 3 5 7 9 12 11 9 7 4 4 8 10 12 13 15 18 20 23 24 26 26 27 29 29 30 30 31 30 32 32
3 2 7 7 5 1 2 4 7 4 4 3 5 4 6 8 8 11 11 8 6 4 4 6 8 9 10 13 17 18 21 23 24 24 27 26 28 30 30 29 30 30 29 31
3 3 6 1 2 2 2 4 5 6 6 6 6 8 9 8 7 6 6 4 4 2 3 6 9 11 13 16 19 20 22 24 26 27 27 27 29 29 27 28 25 27 28 24
7 5 5 5 5 3 2 3 2 3 4 3 7 5 8 8 9 7 6 3 4 3 5 8 11 13 16 21 22 23 24 27 27 28 27 26 26 27 25 24 24 24 23 25
2 1 1 3 5 6 6 6 5 3 2 3 3 3 0 3 4 5 5 4 3 4 8 11 13 16 20 23 23 24 26 26 26 25 26 25 24 22 24 23 24 24 25 25
6 9 6 2 2 4 4 4 4 3 3 3 3 2 3 1 2 4 3 2 3 7 10 14 17 21 23 24 24 25 24 24 23 23 25 26 25 25 26 26 25 29 28 28
6 4 3 5 6 4 5 5 8 7 4 2 2 4 2 3 4 4 2 3 7 10 13 17 20 23 26 25 24 24 25 23 24 26 25 25 25 29 27 28 30 30 30 29
3 1 5 8 2 3 1 3 1 1 2 5 3 6 7 3 2 1 4 6 9 12 18 20 22 26 27 27 26 27 25 26 25 25 25 25 25 25 25 32 31 28 27 29
1 2 1 1 3 1 3 4 4 3 2 3 6 4 3 3 2 5 7 9 13 16 20 22 24 26 28 29 28 28 28 27 26 27 25 25 25 24 23 25 24 28 28 27
4 3 2 1 3 2 2 2 3 3 3 5 5 3 3 1 4 8 11 13 15 18 21 21 23 28 29 29 28 29 28 23 24 25 24 25 25 25 24 24 24 25 27 27
0 2 1 2 5 6 6 5 5 5 4 3 4 4 4 5 8 11 13 15 16 15 23 25 27 31 29 29 28 25 24 24 25 24 23 22 24 23 23 23 24 24 23 25
2 6 3 5 4 4 7 4 3 2 4 5 6 4 4 6 10 13 16 16 19 23 24 26 30 29 27 25 25 26 25 25 25 25 22 22 23 23 24 23 21 22 25 25
2 2 5 6 5 5 5 4 6 8 5 6 3 2 5 8 9 16 20 21 21 24 27 28 26 26 27 29 28 28 25 25 23 22 22 23 25 24 24 24 23 23 25 26
5 5 4 4 6 6 6 8 8 7 4 3 3 5 9 12 15 19 20 20 21 17 25 27 30 27 31 30 26 26 25 24 22 23 24 26 26 24 22 21 23 24 23 24
3 1 1 2 3 5 5 5 6 5 4 4 6 9 12 16 16 18 20 18 24 25 28 29 29 28 27 29 26 26 26 24 22 23 24 26 23 24 24 24 24 21 25 25
4 3 3 3 3 3 6 7 7 7 7 8 10 13 14 18 18 19 16 14 24 26 25 26 26 27 27 25 28 26 25 24 24 25 25 24 23 22 21 20 22 25 23 23
4 5 7 8 7 7 8 8 9 9 9 10 12 14 15 18 19 18 17 21 27 25 24 26 26 26 29 32 29 27 26 25 24 24 24 24 23 22 23 23 23 23 23 23
9 11 12 11 11 12 11 12 12 12 11 12 13 15 16 18 18 14 11 22 23 24 27 27 28 30 31 31 27 26 25 25 25 24 24 24 24 24 23 23 23 22 23 23
11 12 14 14 12 11 6 12 12 12 11 12 14 15 16 17 17 18 21 24 26 26 28 29 30 31 32 27 25 26 25 25 25 26 26 28 26 25 25 24 23 24 24 24
12 11 12 13 11 9 11 8 8 9 10 11 13 14 15 17 18 25 25 26 26 26 26 27 29 30 27 26 26 27 27 27 26 27 25 24 24 24 24 24 24 23 23 20
7 10 12 13 11 8 6 5 6 8 9 12 16 18 20 21 21 22 25 24 25 25 26 27 27 27 27 27 28 28 28 28 28 27 27 26 25 26 26 25 24 24 25 26
4 4 6 6 6 5 4 3 4 8 9 13 15 17 18 20 21 22 23 23 24 25 26 27 27 27 28 28 29 29 29 29 29 29 28 27 26 26 26 25 25 26 28 26

GFSNGP_925_spd_006.txt.gz
Wind_Speed
3 3 3 4 6 8 7 4 6 1 5 3 6 6 7 8 5 9 8 7 7 6 5 7 8 9 9 12 15 16 16 15 19 23 25 27 29 30 30 30 30 30 32 34
2 4 2 3 5 6 5 4 6 2 11 5 6 4 2 2 7 8 8 7 7 6 7 6 6 6 8 10 11 12 13 16 21 26 29 29 30 31 31 32 33 32 32 33
2 3 5 5 6 5 4 4 5 4 5 4 5 5 5 3 6 8 7 7 7 6 6 5 4 5 7 9 10 13 14 19 24 27 28 28 29 29 29 30 31 31 31 31
2 2 1 1 4 6 5 3 3 4 5 3 3 3 3 4 7 8 8 6 5 6 4 3 2 4 6 8 12 16 18 22 26 27 27 28 28 27 30 29 29 31 31 31
3 2 5 2 3 3 3 2 2 4 1 0 3 3 3 3 2 5 6 7 8 6 4 2 2 5 8 12 17 21 22 24 26 27 28 28 28 30 31 29 30 29 29 31
3 3 5 3 2 2 2 2 3 2 3 2 1 4 4 3 5 8 12 11 7 4 2 2 7 9 12 15 18 20 21 23 24 25 27 29 29 29 28 29 29 30 32 30
3 2 6 6 6 1 4 3 3 3 4 5 2 3 1 7 5 9 11 10 6 3 3 6 8 11 13 15 17 18 20 22 24 25 28 25 27 28 29 29 28 28 29 30
3 2 7 2 1 3 3 2 3 4 3 3 3 4 4 6 9 9 7 7 4 2 4 5 8 10 12 15 18 20 22 24 26 27 27 26 28 29 27 27 25 27 26 26
7 5 1 3 5 3 4 4 3 2 3 3 6 7 7 4 3 4 4 5 3 3 2 5 8 9 13 18 20 21 23 26 27 29 27 25 26 26 25 23 23 23 23 25
1 1 6 4 2 1 4 5 6 4 3 1 4 5 7 6 5 4 5 4 2 1 4 7 9 12 15 19 20 22 25 27 27 24 23 24 24 22 23 22 22 23 23 24
3 6 3 4 4 6 5 4 2 2 4 6 4 2 2 3 4 6 8 4 1 3 6 9 12 16 18 20 21 23 25 25 22 21 22 23 24 24 25 24 22 27 27 27
4 4 3 3 1 2 3 3 7 8 4 1 2 2 3 3 5 6 4 2 3 6 8 12 15 19 21 21 21 23 23 21 21 22 22 23 25 29 26 25 28 27 28 28
4 4 3 2 3 2 1 2 4 2 0 3 1 3 4 4 6 4 1 2 6 9 13 15 19 22 24 24 24 24 23 24 23 22 22 24 25 23 25 31 27 26 26 27
2 4 2 1 2 5 5 3 3 1 2 3 7 6 5 4 3 1 3 6 9 13 16 18 20 24 25 26 26 26 26 24 23 24 23 22 23 22 23 24 25 27 28 28
4 4 2 3 4 3 3 5 6 5 4 4 5 6 6 4 3 4 6 9 13 17 19 18 22 26 27 27 26 26 25 24 24 23 22 24 24 23 23 23 24 26 28 28
3 1 4 2 5 6 5 4 5 4 4 4 6 6 5 4 4 8 11 13 13 15 20 22 24 28 26 25 25 26 25 20 23 23 22 22 22 22 23 23 24 24 24 25
2 3 3 3 4 4 5 5 6 5 5 6 8 6 4 3 7 11 12 13 15 18 20 23 26 24 25 24 25 26 24 22 22 23 21 22 22 23 23 22 20 23 25 25
4 3 3 4 5 4 4 4 6 6 6 8 6 4 4 5 8 12 13 16 19 21 24 24 24 25 25 27 27 26 23 21 22 22 23 23 23 23 24 23 23 23 25 26
5 4 5 5 7 5 5 5 8 9 8 7 7 8 9 10 11 12 14 16 20 15 22 24 25 25 28 28 24 24 23 23 23 23 23 25 24 22 21 23 24 24 22 23
3 4 5 5 5 6 6 8 10 10 10 9 9 8 10 11 11 14 16 16 22 22 23 24 24 27 27 26 23 24 23 23 22 23 23 25 24 24 22 25 25 22 23 24
7 7 7 8 8 9 11 12 13 12 13 12 10 9 9 13 14 16 16 11 23 24 21 24 25 26 25 23 26 24 23 22 23 23 23 23 23 22 22 22 23 24 23 23
3 4 7 8 9 10 12 13 14 11 10 8 8 9 10 14 16 18 18 20 25 22 22 24 24 24 26 29 26 24 23 23 23 23 22 22 22 22 24 24 23 24 24 23
8 9 11 10 12 12 11 13 12 11 10 9 9 10 11 14 15 13 9 20 21 25 25 26 25 27 27 27 24 23 23 23 22 22 23 24 24 24 24 24 24 22 22 23
10 12 14 12 11 9 6 12 12 11 10 9 9 11 12 15 18 20 21 24 23 23 25 25 26 27 28 25 24 23 22 22 23 25 26 27 25 23 22 22 23 23 24 25
12 13 10 9 9 8 12 8 7 7 6 8 11 12 12 14 15 21 22 25 24 23 24 25 26 27 25 24 24 24 24 24 24 24 23 23 25 24 24 24 24 25 23 20
6 8 9 10 9 7 6 5 4 3 5 8 12 14 16 18 19 21 24 22 23 23 25 27 25 25 25 26 25 25 26 25 26 25 26 26 26 26 25 24 25 25 25 26
2 3 4 3 3 4 4 3 2 4 6 8 12 17 18 20 22 20 21 24 23 24 25 26 26 26 26 27 27 27 27 26 27 27 27 26 26 27 27 26 25 25 25 25

GFSNGP_925_spd_009.txt.gz
Wind_Speed
2 5 4 5 6 9 7 5 6 3 6 3 1 4 4 5 2 7 7 7 7 6 5 7 6 5 8 12 13 13 12 15 18 20 21 23 25 27 28 30 31 33 34 36
1 3 4 1 2 7 4 3 4 3 5 5 2 1 3 3 2 4 6 7 7 6 7 6 5 6 7 9 11 13 14 16 19 21 23 25 27 29 30 32 32 33 33 32
2 3 2 4 8 7 4 4 6 5 3 2 3 4 2 1 4 6 6 7 8 7 7 6 5 5 8 8 10 13 13 16 20 22 25 27 28 29 30 30 30 29 30 30
2 2 2 2 3 4 5 3 3 6 4 3 4 3 1 2 4 7 9 8 7 8 8 6 4 5 6 7 9 12 14 17 20 23 24 26 27 28 29 28 27 29 29 29
4 3 3 2 3 5 5 2 3 4 4 4 2 2 3 2 3 2 5 7 10 9 7 5 3 3 3 6 10 13 16 19 21 22 25 28 28 29 29 29 28 27 27 30
2 3 5 2 1 2 4 1 2 3 3 2 4 2 4 1 2 5 11 13 11 8 6 3 1 2 4 7 11 15 18 19 21 22 24 26 25 28 28 27 26 27 28 26
2 2 5 5 3 1 4 4 2 4 3 2 3 4 3 5 3 7 10 10 9 6 4 2 1 3 4 9 13 17 18 20 21 22 24 24 25 27 29 28 26 25 26 27
3 2 6 0 2 5 4 3 5 4 3 2 2 1 2 3 5 6 8 8 5 4 3 2 2 5 9 13 16 17 19 21 22 24 23 23 24 28 27 26 23 25 25 27
7 4 2 2 4 4 5 5 4 1 3 3 4 4 4 5 6 6 8 7 4 2 2 1 4 8 12 15 17 19 20 23 25 25 24 22 25 27 25 22 21 22 23 24
2 2 3 3 3 3 2 3 2 2 2 3 2 2 4 2 4 5 7 6 3 2 2 5 8 10 11 15 17 19 22 25 26 25 24 26 25 22 21 21 21 22 23 24
1 1 4 2 1 2 3 0 1 1 1 1 2 3 2 2 3 5 6 3 1 2 4 7 10 13 15 17 18 21 23 25 25 25 24 27 23 23 23 23 21 26 26 26
4 5 4 3 4 2 3 3 0 2 3 3 2 2 3 3 4 6 5 3 2 3 6 9 13 16 17 18 18 20 23 21 23 21 23 22 24 27 23 22 26 27 27 27
5 4 3 5 5 2 3 5 7 7 5 2 2 3 2 2 4 6 5 2 3 6 9 11 14 17 17 18 19 21 22 24 23 22 23 23 24 23 24 25 24 27 27 27
3 6 4 3 3 5 6 4 3 2 3 3 3 1 1 4 5 4 2 4 6 9 11 12 14 19 21 23 22 22 23 23 22 24 23 23 22 23 24 23 22 25 27 28
6 6 5 5 5 4 4 1 3 2 2 3 5 4 5 5 5 5 4 6 8 10 12 15 20 24 24 22 22 23 23 23 22 22 22 24 25 24 23 23 23 25 27 27
4 5 5 4 2 2 2 1 2 4 4 4 6 7 8 8 6 4 5 6 8 13 18 20 22 25 21 21 21 23 22 20 21 22 22 23 23 23 23 23 24 24 24 26
4 3 2 2 4 2 4 4 6 7 6 8 12 11 9 6 5 6 7 8 10 14 17 20 23 20 20 20 22 24 23 22 21 23 22 23 23 24 24 23 20 24 25 26
4 3 3 2 3 3 4 6 8 10 8 11 10 10 9 7 6 7 9 13 16 17 19 19 19 21 21 23 24 23 22 20 21 22 24 24 24 24 24 24 24 24 26 26
4 5 3 4 5 5 5 6 8 9 9 10 10 10 8 7 7 8 10 12 16 16 22 20 22 21 24 25 21 23 22 23 23 23 23 26 25 23 21 24 24 24 24 23
3 4 5 6 6 6 6 7 7 9 10 10 9 8 8 9 8 9 10 14 18 19 19 20 20 23 24 24 20 22 23 21 21 24 24 25 24 24 23 25 24 23 24 23
6 7 7 6 6 8 10 10 10 12 12 12 11 10 11 10 10 11 12 10 21 19 19 21 24 25 25 20 23 22 21 20 21 22 23 23 23 22 22 23 23 23 23 23
3 3 5 7 9 11 13 12 13 13 11 11 11 10 9 11 12 14 14 17 20 18 18 23 23 23 23 26 24 22 21 21 22 22 22 22 22 22 23 24 23 24 24 23
7 7 8 8 10 11 11 13 14 14 13 11 11 10 11 11 11 11 6 16 19 22 22 25 23 24 25 25 22 22 22 22 21 22 23 24 24 24 24 23 24 22 24 24
9 9 10 9 8 8 5 13 14 14 13 10 9 8 8 10 13 14 16 19 20 20 22 23 23 25 26 24 25 23 21 21 22 25 27 26 24 21 23 24 24 24 25 26
10 9 6 6 6 8 12 9 7 7 7 6 6 6 6 9 11 17 18 22 22 21 23 23 24 25 24 25 23 23 23 24 25 24 23 23 25 23 24 25 25 25 24 23
5 6 6 7 7 5 5 6 4 3 2 2 6 7 11 13 15 19 21 21 21 22 24 26 25 23 23 24 24 24 24 24 25 25 25 26 26 25 25 25 26 25 25 25
3 3 3 2 2 2 3 4 3 2 2 4 8 12 14 17 20 19 21 24 25 26 26 26 26 25 24 24 25 25 25 25 26 26 26 26 27 26 26 25 24 25 24 23

GFSNGP_925_spd_012.txt.gz
Wind_Speed
3 3 5 7 9 10 9 7 7 5 8 5 3 2 2 1 3 4 6 7 7 7 6 10 10 9 8 8 9 11 12 13 15 17 18 20 22 24 25 27 28 29 31 32
2 3 2 3 4 8 5 4 3 5 5 4 2 4 4 3 3 4 6 7 7 7 9 10 9 7 5 5 7 9 10 13 16 19 20 21 24 26 28 29 30 31 32 32
3 1 3 4 8 7 5 4 7 7 7 5 3 6 3 3 3 1 4 6 8 7 9 11 8 5 4 4 5 6 10 13 16 18 21 23 26 26 28 29 31 32 32 32
3 1 1 3 1 6 6 2 4 5 5 4 6 3 2 2 3 6 1 6 7 10 12 10 7 4 3 2 5 10 12 14 16 19 22 24 26 26 28 30 30 32 30 30
4 4 3 0 4 6 5 1 1 7 6 5 3 3 4 3 3 3 4 7 12 14 12 9 6 3 2 5 8 9 12 14 17 19 21 24 26 27 28 29 30 30 26 28
2 3 7 1 3 4 4 2 5 7 5 5 3 2 3 3 3 4 7 13 15 12 11 7 4 2 4 6 8 10 14 16 17 19 21 25 24 25 27 29 28 28 29 25
2 2 6 3 3 1 5 4 4 5 6 5 4 4 1 4 3 6 9 13 12 10 8 5 2 4 4 6 9 12 15 16 18 21 23 23 24 24 28 30 27 27 27 28
3 2 6 2 4 5 4 3 6 5 4 3 3 3 4 6 6 7 9 10 9 8 6 3 2 2 3 7 11 13 16 18 21 23 23 24 23 26 28 27 25 25 27 27
6 4 1 2 2 4 4 6 4 4 4 4 4 2 3 2 5 6 8 7 6 6 5 3 1 4 7 10 13 16 18 21 24 24 24 21 23 27 25 22 22 24 23 24
3 2 2 4 4 4 4 5 4 3 3 3 4 4 3 3 4 5 8 7 5 5 4 1 2 5 8 12 15 18 20 22 24 23 23 24 24 25 22 23 21 22 22 24
0 2 2 1 2 5 5 5 6 5 3 4 3 3 2 3 5 7 9 8 5 4 1 3 6 10 11 13 15 17 20 23 22 24 24 27 24 23 24 23 22 25 25 26
5 6 4 4 5 4 6 5 5 3 2 3 2 4 3 4 6 9 8 7 5 2 2 7 10 12 14 15 15 17 20 20 22 20 24 24 24 25 20 21 24 26 27 27
3 4 3 7 6 3 6 5 3 5 4 2 2 3 4 3 5 8 8 6 2 1 5 9 12 14 15 15 16 17 19 23 22 23 24 22 22 22 24 26 23 23 25 27
6 7 5 2 4 4 6 6 4 3 2 2 1 2 4 6 8 7 5 2 1 4 7 9 12 15 15 16 16 18 21 23 24 25 23 22 22 22 23 23 24 26 26 28
6 5 5 7 6 5 4 4 2 1 0 1 2 3 4 6 5 4 2 1 4 7 8 10 13 17 17 17 19 21 22 25 23 22 21 22 24 23 22 22 23 25 27 25
5 6 5 4 5 4 3 3 3 3 3 3 3 4 4 4 3 2 2 4 5 8 10 12 16 20 18 19 19 21 23 20 21 21 21 22 21 21 23 23 23 24 23 26
6 3 2 2 4 5 5 3 4 4 4 6 8 7 7 6 4 4 5 5 6 10 12 15 19 17 18 18 19 23 23 23 20 22 20 21 22 22 23 21 23 24 24 26
5 6 6 6 5 4 3 4 5 6 5 6 6 8 9 9 7 6 6 6 8 12 14 16 16 18 18 20 22 22 22 21 21 21 23 22 23 23 23 23 23 24 25 26
5 8 6 5 5 4 2 3 4 6 6 7 9 11 11 9 7 6 6 8 11 14 20 17 18 18 21 23 20 22 22 24 24 22 22 25 24 22 22 23 23 24 24 24
6 6 7 5 4 3 3 5 5 6 7 8 9 8 8 8 7 6 6 10 14 16 16 18 19 21 24 24 20 20 24 23 22 23 22 24 23 22 22 23 23 23 23 24
6 5 4 3 3 5 6 6 6 8 8 10 11 10 8 4 4 5 7 9 17 15 15 19 21 24 25 21 21 23 24 24 22 22 22 22 21 20 21 22 23 23 23 24
4 4 5 5 5 6 6 7 9 7 7 9 8 6 5 6 7 8 10 13 17 16 17 21 23 24 21 24 23 23 23 23 22 21 20 20 20 22 22 23 24 24 23 23
4 5 6 7 7 6 4 5 7 8 8 8 7 7 7 6 6 7 5 11 17 20 20 24 23 22 23 23 23 24 24 23 21 20 21 23 23 23 23 22 23 23 25 24
6 7 4 1 2 2 4 5 6 6 7 5 4 3 2 4 7 10 11 15 17 18 20 20 21 22 23 23 25 24 23 21 22 24 25 24 23 21 23 25 24 23 24 26
3 1 2 2 1 3 4 2 2 4 4 3 2 1 2 5 6 13 15 19 21 19 22 21 22 22 22 24 23 23 23 24 24 23 22 23 25 24 25 25 24 24 23 24
2 3 1 1 1 1 2 4 6 5 6 4 2 2 6 8 11 15 16 18 18 19 22 24 24 21 22 24 23 24 24 25 24 24 24 26 26 26 25 25 25 25 24 25
3 4 6 6 5 5 6 7 9 7 5 3 2 5 9 13 15 16 18 20 21 22 23 24 24 25 22 24 24 24 25 25 24 24 25 26 26 26 24 24 24 25 24 24

GFSNGP_925_spd_015.txt.gz
Wind_Speed
1 2 6 6 8 11 10 10 10 7 8 6 5 5 5 5 6 6 7 9 11 11 10 12 11 11 9 7 5 6 8 8 10 10 11 14 17 19 20 21 22 22 23 23
1 2 4 5 6 12 11 4 7 5 7 4 3 5 4 4 5 5 5 9 10 11 13 12 12 10 7 5 6 7 7 8 8 10 13 15 18 21 22 22 23 25 24 22
3 2 5 4 10 11 7 5 11 11 9 7 4 6 5 5 6 5 5 8 10 11 12 13 12 9 6 5 4 5 6 8 12 12 15 18 21 22 22 24 26 23 23 24
3 2 2 5 1 6 8 4 5 3 5 6 7 5 5 3 4 4 4 6 9 12 14 14 11 8 6 3 3 4 7 10 11 14 18 20 22 23 24 23 22 22 23 24
4 4 4 1 4 6 7 5 6 8 6 6 6 4 4 3 4 2 3 5 11 18 17 14 10 7 4 2 3 5 8 11 13 16 18 21 23 24 24 21 24 24 23 24
2 4 6 1 2 4 4 3 7 8 8 8 5 3 2 2 3 6 9 13 17 16 16 12 9 5 3 1 3 6 10 12 14 16 19 21 22 23 24 25 24 26 26 22
3 3 5 4 3 3 4 3 5 5 6 6 4 3 4 4 5 8 10 15 16 15 12 9 7 4 2 1 5 8 11 13 15 18 20 20 23 24 27 27 24 25 25 23
3 2 6 3 4 6 3 4 6 5 4 5 6 5 4 5 5 6 10 13 13 13 10 7 5 3 1 4 7 10 12 14 17 20 21 23 23 26 27 24 23 24 25 24
6 3 1 2 2 3 3 6 4 6 5 6 7 5 6 4 5 6 11 12 11 11 10 7 4 2 3 5 8 10 14 17 19 22 23 23 24 24 22 20 20 23 22 23
3 0 2 4 4 5 4 6 6 5 6 5 6 6 5 5 6 7 13 12 11 11 8 5 3 1 3 6 9 12 15 19 22 24 23 24 25 21 19 21 21 21 22 23
2 2 4 2 3 6 7 7 8 6 4 5 6 4 4 4 5 9 12 12 10 8 6 5 2 1 4 7 10 13 17 20 22 23 24 24 21 19 19 19 19 25 25 25
5 8 4 5 6 6 7 6 5 6 4 3 3 5 4 4 7 11 11 10 9 8 5 3 1 3 5 8 11 14 17 17 20 18 20 20 20 22 17 19 22 24 25 25
4 5 3 8 7 4 7 6 4 6 4 5 3 5 5 3 5 7 9 10 9 7 3 1 3 5 8 11 13 15 17 19 17 18 18 18 21 21 23 23 21 21 22 25
6 11 6 2 5 6 8 7 8 6 5 5 5 4 5 4 9 10 10 9 8 5 2 2 5 8 11 13 14 16 17 19 18 19 18 20 19 20 22 22 22 23 24 26
2 4 7 9 7 6 6 6 5 4 4 3 3 5 8 8 9 11 10 8 6 2 0 4 8 11 13 12 14 15 18 20 21 19 18 19 21 21 20 21 22 24 26 25
5 7 8 7 7 6 5 4 5 4 5 4 5 7 7 8 10 10 9 6 4 1 4 7 10 12 12 13 15 19 23 20 19 19 18 19 19 19 20 21 22 23 24 25
10 4 3 3 6 6 6 4 4 4 4 6 8 9 10 10 9 8 6 3 2 2 5 8 12 12 14 15 17 21 22 22 18 19 17 19 19 20 21 21 23 22 24 25
6 5 6 8 8 6 5 5 5 6 6 9 8 9 10 10 7 7 5 3 3 6 7 8 10 14 15 16 19 20 21 20 17 18 19 18 20 22 21 21 22 22 24 25
7 11 9 8 9 7 5 4 6 7 7 8 9 10 11 10 9 6 4 3 4 7 10 11 13 14 16 19 18 20 19 21 20 19 19 21 21 20 21 20 20 22 23 24
7 9 12 10 9 6 5 5 4 4 4 6 6 7 8 8 7 6 5 6 7 8 10 13 14 17 20 21 17 17 21 20 20 20 20 21 21 20 20 21 21 22 23 23
8 8 8 8 6 5 5 4 5 4 5 8 10 9 9 7 7 5 4 5 7 8 10 13 16 19 20 18 18 21 22 21 20 19 20 20 20 20 20 20 21 22 23 23
5 5 5 6 5 3 1 2 3 3 4 6 6 7 7 6 6 6 6 8 9 9 13 16 18 18 18 20 21 23 21 20 20 19 18 19 19 20 21 21 22 23 22 24
5 5 5 6 4 3 2 0 2 4 5 6 8 8 7 5 4 2 3 4 10 13 15 18 17 17 19 20 23 24 24 22 20 19 19 21 21 21 21 21 22 23 25 25
5 5 4 4 4 3 2 2 1 3 4 5 5 5 4 2 1 2 3 9 12 13 15 17 17 19 21 22 23 23 22 21 21 23 24 22 22 20 21 23 23 24 25 25
5 6 5 6 4 2 3 6 8 8 9 9 8 6 4 2 2 6 11 13 15 15 18 19 19 19 20 22 23 23 22 23 23 21 20 22 23 22 23 24 23 23 24 24
5 6 7 5 5 6 7 8 10 8 9 9 6 4 3 4 7 9 11 13 14 15 18 20 21 19 21 22 21 22 23 23 23 23 21 23 23 23 23 24 24 23 22 24
10 10 12 10 8 8 10 11 12 8 7 5 4 3 6 8 10 12 13 15 17 18 20 21 21 22 20 23 22 24 24 25 22 22 23 24 25 24 24 23 24 24 24 25

GFSNGP_925_spd_018.txt.gz
Wind_Speed
4 3 15 19 19 21 22 22 14 15 17 16 10 7 8 10 13 14 14 14 14 14 12 16 14 12 10 8 6 4 3 2 3 5 7 9 9 10 12 13 14 15 17 18
2 2 8 11 19 21 24 22 24 18 16 4 5 8 9 11 13 13 13 13 13 13 15 16 15 13 10 7 5 3 2 2 5 7 8 9 11 12 13 14 15 16 18 19
3 3 4 7 18 19 20 21 21 20 20 10 8 9 10 9 9 9 9 12 13 13 14 15 14 12 10 7 5 3 2 3 5 7 9 11 12 13 14 16 17 19 20 21
1 5 3 2 2 16 22 18 20 17 5 11 10 11 10 6 8 7 6 9 10 13 15 15 13 11 9 6 4 2 2 4 6 7 10 12 14 15 17 17 19 20 21 23
3 8 6 4 5 7 12 14 15 16 8 12 14 13 7 5 5 6 5 6 11 15 16 15 13 10 7 5 2 0 3 5 6 8 11 14 15 17 18 19 20 22 22 23
2 2 5 2 3 5 6 7 13 14 16 18 14 10 6 6 6 8 9 11 15 16 16 14 11 8 6 3 1 3 4 6 8 10 12 15 16 18 19 20 22 22 23 22
4 3 6 1 5 5 6 0 9 13 16 15 9 4 11 9 8 9 11 14 15 15 13 11 9 7 5 2 1 2 5 7 9 11 14 15 17 18 20 22 23 23 24 22
4 6 9 5 5 6 4 9 12 14 12 12 13 10 10 9 9 10 12 14 13 13 11 9 7 5 4 1 2 4 6 8 11 13 14 15 17 18 20 21 22 24 24 22
7 3 2 1 2 1 8 13 9 13 11 13 11 7 8 8 9 9 11 12 10 10 10 7 5 3 3 1 2 5 8 11 13 14 15 16 17 19 20 20 21 22 22 24
4 2 1 1 4 6 9 11 11 12 11 10 10 9 7 6 7 7 10 10 9 9 8 7 6 3 2 1 4 7 10 12 14 15 16 16 17 17 19 20 20 21 23 25
1 1 4 3 7 10 12 12 13 9 8 9 10 8 6 6 6 8 10 9 9 9 8 7 5 3 1 3 6 8 11 13 14 15 17 18 18 18 18 18 18 23 25 26
3 13 3 14 12 13 14 12 11 12 8 6 5 6 5 5 7 9 11 11 10 8 7 7 4 1 2 5 6 9 12 12 14 16 18 19 20 21 17 18 21 23 24 24
3 10 2 15 13 9 12 10 8 8 7 8 5 6 7 5 8 9 10 10 10 9 7 5 3 3 4 6 7 8 11 13 15 16 17 18 20 20 23 23 20 20 21 23
11 12 9 12 8 10 11 10 12 11 8 7 7 6 7 7 9 10 11 10 8 7 5 5 4 4 4 6 7 9 11 13 14 16 17 18 19 21 22 23 23 24 23 25
9 4 7 13 13 11 10 9 8 6 6 5 5 6 7 8 8 9 9 8 7 6 5 4 4 4 6 6 8 11 12 14 15 17 17 18 20 21 21 22 23 25 26 26
8 9 10 11 10 9 8 7 7 6 6 6 7 7 7 6 7 9 9 9 9 8 6 5 5 5 6 7 9 11 13 15 15 17 17 18 18 20 21 22 24 24 24 25
13 6 7 6 9 10 8 7 6 6 6 7 8 8 7 7 8 9 9 8 7 6 5 5 6 6 8 8 10 13 15 15 15 15 17 18 19 20 22 23 23 24 25 26
7 9 10 13 13 10 8 6 6 7 6 8 7 8 10 11 10 11 10 9 7 6 5 5 6 7 8 9 11 14 15 15 15 17 18 19 20 22 21 22 23 24 26 26
8 12 10 11 11 9 7 7 7 6 6 6 8 9 9 10 9 9 9 8 6 5 4 5 8 9 9 11 14 14 14 15 17 18 19 20 20 20 21 21 22 24 25 25
11 12 15 12 11 8 8 6 6 5 4 5 6 7 8 9 9 8 7 6 5 5 6 7 8 10 11 13 13 13 15 17 18 19 19 20 20 20 20 21 22 23 24 24
11 10 10 10 9 8 7 7 6 5 5 6 9 9 8 8 8 7 5 4 2 4 6 9 9 11 13 13 15 16 16 17 18 19 19 19 19 19 20 21 22 23 23 23
8 8 8 9 9 7 5 4 4 4 5 6 5 5 6 6 5 4 4 4 3 6 8 9 10 12 14 18 16 15 16 17 17 17 18 18 18 20 21 22 22 22 22 23
9 8 9 8 7 6 5 4 4 4 4 4 5 6 5 4 4 3 2 1 4 7 10 11 12 15 16 17 15 15 16 16 16 16 18 18 19 20 21 21 22 22 22 23
9 8 8 8 9 7 5 3 4 5 5 7 6 6 5 4 2 1 1 5 8 9 11 11 13 15 17 14 13 14 15 16 16 17 18 19 20 21 21 21 22 22 22 23
9 9 8 9 7 5 7 7 9 9 9 9 8 7 5 3 2 1 5 7 10 9 10 12 14 15 12 12 14 15 16 17 17 19 21 20 21 21 22 22 21 22 23 22
7 7 7 6 7 8 9 7 8 8 8 8 7 4 3 1 3 5 7 8 9 11 11 13 13 13 14 14 15 16 18 19 19 19 20 21 21 22 22 22 21 20 21 22
11 11 10 9 7 8 8 9 10 8 6 5 6 3 2 3 5 6 7 9 10 11 12 12 13 14 15 16 17 18 18 19 20 21 22 22 22 21 20 20 20 19 20 22

GFSNGP_925_spd_021.txt.gz
Wind_Speed
2 5 16 15 19 21 21 18 13 12 15 9 10 9 8 10 15 16 16 16 15 14 13 15 15 13 12 10 8 6 5 3 3 4 5 6 8 10 12 13 15 17 19 20
4 2 6 11 17 21 21 21 20 18 16 7 1 4 8 12 15 16 16 15 14 13 13 15 15 14 12 10 8 6 4 2 2 4 6 7 9 11 13 15 17 18 20 22
3 6 5 8 18 19 19 21 19 20 17 13 6 8 8 10 12 13 13 13 13 13 11 15 15 14 13 10 8 5 3 1 3 4 6 8 11 13 15 17 19 21 22 23
1 6 5 1 3 16 20 19 19 19 15 6 9 7 5 3 7 8 8 10 11 10 13 14 14 13 12 10 7 4 1 2 3 5 8 10 12 15 17 18 20 22 23 24
3 7 8 8 4 5 12 17 20 17 15 5 14 14 8 6 8 9 9 9 11 14 15 16 15 13 11 9 6 3 0 3 4 6 9 12 14 17 18 20 21 23 24 26
1 3 4 6 3 0 5 7 5 16 13 16 15 9 6 9 9 10 11 13 15 16 17 16 14 12 10 7 4 1 1 3 5 8 10 13 16 18 19 20 22 24 25 25
4 3 7 3 4 3 5 2 3 5 12 16 12 4 17 13 11 12 13 15 16 16 15 14 12 10 8 5 3 1 2 4 7 9 12 14 16 18 20 22 23 23 24 24
4 4 7 5 4 4 3 5 7 10 12 12 14 14 13 12 11 11 12 15 14 15 13 12 9 7 6 4 2 1 4 6 9 11 13 15 18 20 21 22 23 23 23 22
9 5 3 1 3 2 4 10 10 13 13 15 15 13 12 11 11 10 13 13 12 13 13 10 8 6 5 3 1 3 5 8 10 12 14 16 18 20 21 21 21 21 21 21
3 4 2 4 2 3 9 10 12 13 13 12 14 12 12 10 9 9 12 12 12 13 11 10 7 5 4 2 2 4 7 9 11 14 16 18 17 18 19 19 20 20 21 22
1 2 2 4 5 9 12 12 13 10 10 11 12 10 9 8 8 9 11 11 11 10 10 9 7 4 2 1 3 5 8 11 13 14 16 19 18 19 20 20 19 22 23 25
3 11 3 8 12 13 14 13 12 13 11 9 9 8 7 6 7 9 11 11 10 8 8 8 5 4 3 3 3 6 9 11 13 16 17 18 19 21 19 20 22 23 25 25
2 10 4 14 14 13 14 12 11 11 10 10 8 8 7 7 7 9 10 10 9 9 8 7 6 5 3 2 4 7 10 13 14 16 17 18 19 19 22 23 22 22 23 24
11 14 11 15 8 12 13 12 13 13 11 10 10 8 8 8 9 9 9 9 9 9 8 7 6 3 2 4 6 9 12 14 15 16 17 18 18 19 20 21 22 23 23 26
10 1 9 12 15 13 12 11 10 10 9 8 8 8 8 7 8 8 9 9 9 8 7 6 3 2 3 5 7 10 12 13 14 16 17 19 19 19 20 21 21 23 25 26
9 9 11 13 12 10 9 8 10 9 8 7 6 6 6 6 7 8 8 9 9 7 6 4 2 3 4 6 9 11 12 14 15 16 18 18 18 19 20 20 21 22 22 23
14 6 9 9 10 12 10 8 8 8 7 6 7 7 7 7 7 8 8 7 5 2 3 3 3 4 5 7 9 11 14 15 16 16 17 18 19 19 20 22 21 21 22 23
5 9 12 15 14 13 10 9 8 8 6 7 7 7 7 8 6 8 7 6 4 2 4 4 5 5 7 8 9 12 14 16 15 16 18 18 19 20 21 21 21 21 23 24
13 15 14 12 11 11 9 9 9 9 8 8 7 6 6 5 4 5 6 6 5 5 4 4 6 8 8 9 11 13 15 15 16 18 18 20 20 20 19 20 21 22 22 23
14 14 17 14 15 14 9 11 10 9 7 7 6 5 4 4 5 6 6 6 4 1 2 3 6 7 8 10 12 13 15 16 17 18 19 19 19 19 19 20 22 21 22 23
14 13 13 11 11 13 12 10 10 8 7 5 5 3 3 4 5 6 5 5 4 3 3 6 6 7 9 12 15 17 16 16 17 18 18 18 18 18 19 20 20 21 22 23
12 11 11 13 11 12 9 8 8 8 7 6 5 4 5 5 5 4 2 1 1 3 5 6 7 8 13 16 16 16 16 16 17 17 17 17 17 18 19 21 21 22 22 23
11 12 13 11 10 11 9 8 7 7 6 5 4 5 4 4 4 3 2 0 1 4 8 8 9 13 15 16 16 15 15 16 17 17 17 17 18 19 20 20 21 22 23 23
12 12 12 12 12 11 7 6 8 8 7 7 7 6 5 5 4 3 2 3 6 8 10 10 12 14 16 14 13 14 15 16 17 16 17 20 19 20 20 21 21 22 22 23
13 12 11 10 8 7 11 9 10 9 9 9 9 7 6 5 4 2 3 5 8 9 10 11 12 13 12 12 14 15 16 17 17 19 19 19 20 21 21 22 21 23 23 21
10 9 10 8 9 9 9 8 7 7 8 8 7 5 4 4 4 4 5 6 8 9 10 11 11 12 13 14 15 17 17 18 18 18 20 21 21 22 21 22 22 21 22 22
13 12 11 10 8 7 7 8 9 8 6 6 7 4 3 3 4 4 5 6 8 9 10 11 12 13 14 15 17 17 18 19 20 21 21 21 21 21 22 22 22 22 21 23

GFSNGP_925_spd_024.txt.gz
Wind_Speed
8 12 11 10 11 9 10 7 2 2 7 9 10 11 10 8 9 13 12 12 12 11 9 16 20 20 20 18 15 12 10 8 5 3 3 5 7 9 12 14 16 19 21 23
7 7 7 8 10 13 14 8 7 8 5 7 3 9 9 10 9 12 12 12 11 11 10 15 21 21 21 18 15 11 10 7 3 2 4 5 8 11 13 16 19 21 23 23
4 4 3 3 9 14 13 11 11 11 8 1 6 8 8 10 9 9 9 10 11 9 10 18 23 24 21 18 14 11 9 5 3 2 4 7 9 12 15 18 20 22 23 24
1 4 2 5 2 11 11 7 11 8 6 3 7 8 10 6 7 9 10 11 10 9 17 24 24 22 21 17 13 10 7 4 1 2 5 8 11 14 17 19 21 23 24 25
2 4 5 3 2 1 6 9 8 7 9 13 12 7 8 9 9 9 9 8 12 22 25 26 24 24 21 16 12 9 6 3 1 4 6 10 13 16 20 21 23 24 25 27
3 2 2 2 3 5 3 3 6 7 8 15 7 5 4 6 9 12 13 18 20 25 26 24 22 20 18 14 10 7 4 0 2 5 8 11 15 19 20 21 23 25 27 27
2 2 6 2 1 4 3 3 7 7 13 13 5 1 12 11 10 12 15 20 25 23 20 22 20 18 16 11 9 5 2 1 3 6 10 13 17 18 20 22 24 26 27 27
3 2 6 4 2 2 2 3 3 8 10 17 15 14 13 12 12 11 11 16 20 20 20 18 16 16 13 11 6 3 0 3 5 9 13 15 16 20 20 23 24 26 25 24
7 5 2 4 3 0 1 4 6 10 12 17 15 13 12 11 11 9 12 15 20 19 20 16 13 12 13 9 5 2 1 4 9 12 14 14 18 20 22 22 22 21 20 21
4 3 4 5 3 2 3 7 8 9 11 12 15 11 12 10 9 7 12 14 20 20 17 14 11 10 10 6 4 2 5 8 11 12 14 18 20 20 22 23 24 19 20 21
2 2 3 1 4 6 9 10 10 9 10 11 13 10 10 9 8 8 13 14 19 18 16 14 11 9 7 5 3 5 7 8 10 13 17 20 20 21 22 23 21 24 23 24
3 9 5 5 8 9 11 9 9 14 11 8 8 9 9 7 10 13 14 15 14 15 18 15 11 9 6 4 4 5 6 9 12 15 19 20 22 25 20 20 22 23 24 25
3 5 6 12 10 8 11 10 9 11 10 12 7 9 9 7 12 16 16 14 15 15 16 13 10 7 4 2 3 4 7 11 15 18 18 20 23 21 23 26 20 21 23 25
9 15 9 7 6 10 11 12 14 13 14 12 13 15 15 12 15 15 14 14 15 15 12 10 8 6 2 1 4 6 10 12 14 16 18 22 23 23 22 20 23 26 25 26
5 5 8 12 14 10 10 11 12 10 9 8 15 13 14 9 9 13 15 15 13 12 11 9 7 4 1 3 6 10 13 15 16 18 19 19 22 23 21 21 22 23 27 25
7 9 11 12 11 9 9 8 12 8 8 7 7 11 13 14 16 15 13 12 13 10 8 6 5 3 3 5 9 11 12 14 16 18 18 19 20 20 20 20 22 23 22 25
12 7 9 8 10 8 7 7 9 7 7 8 11 15 15 17 15 13 11 9 9 10 7 5 4 1 5 7 9 11 13 17 17 18 18 20 22 20 20 21 21 22 23 24
7 8 7 12 13 11 10 9 8 10 8 15 16 15 14 12 8 11 10 8 7 6 4 3 1 3 6 7 9 12 15 16 17 18 19 20 21 20 21 21 21 22 24 24
12 15 14 11 10 11 10 9 12 17 17 16 15 11 11 10 10 11 10 8 6 4 5 2 2 6 7 8 10 14 16 17 18 18 19 20 22 20 21 20 21 21 23 23
15 14 20 15 18 17 10 17 19 17 14 14 14 13 11 10 10 11 9 7 7 7 3 3 6 6 7 10 11 14 17 18 18 18 20 20 20 20 20 21 21 22 23 23
14 14 16 15 13 18 19 20 19 15 13 12 12 11 11 10 9 9 8 6 5 4 3 5 6 7 8 12 14 16 16 17 18 19 21 21 21 20 19 20 21 22 23 23
12 13 13 16 15 16 19 19 19 17 15 14 13 12 13 11 11 11 10 8 4 4 5 5 6 7 11 13 16 15 16 17 19 20 20 21 21 22 23 22 22 23 21 24
12 15 17 16 15 17 19 18 16 15 14 12 11 12 13 12 8 7 5 5 2 4 7 6 7 9 12 15 16 15 17 18 20 20 21 22 24 24 21 21 24 24 24 24
16 17 18 22 23 19 10 14 16 16 17 16 16 13 12 12 12 9 7 4 4 6 7 8 10 12 13 15 15 16 18 19 21 22 22 21 23 23 22 23 24 23 24 25
18 20 20 19 12 10 18 18 19 18 18 17 15 12 10 9 6 5 3 4 5 8 10 11 12 12 15 16 17 18 19 20 21 21 22 23 23 24 24 23 22 24 24 24
15 13 15 15 15 17 17 14 15 16 16 15 12 10 9 8 7 5 5 6 8 9 11 13 13 14 16 17 17 19 20 21 21 22 21 24 24 23 23 23 24 24 24 24
19 19 17 17 16 16 15 16 17 14 12 12 11 7 6 6 6 6 6 7 9 10 12 13 15 15 16 17 20 21 22 22 20 21 23 25 24 23 23 24 24 25 25 26

GFSNGP_925_spd_027.txt.gz
Wind_Speed
13 16 9 8 5 7 5 4 4 5 6 8 8 10 12 13 13 15 16 16 16 15 13 18 22 26 28 25 22 19 15 12 8 5 3 3 5 7 10 12 15 17 19 21
7 8 8 7 5 6 4 2 2 3 2 4 4 6 7 14 17 16 15 14 14 15 14 17 22 25 28 25 20 17 14 10 7 4 3 4 6 9 12 14 17 19 21 23
2 4 5 3 7 4 2 2 5 3 5 4 6 8 9 10 15 16 15 16 17 16 15 20 24 30 29 25 20 16 13 9 5 3 2 4 7 10 13 16 18 20 23 24
3 4 2 4 2 8 11 5 6 4 3 3 8 5 7 3 12 14 15 16 15 12 18 22 29 30 29 23 20 15 11 8 4 2 3 6 9 11 14 17 19 22 24 25
1 2 5 2 4 3 6 6 6 11 6 11 7 5 8 8 3 7 10 11 12 20 26 28 31 31 27 22 17 13 10 6 3 2 4 7 10 14 16 19 21 23 25 26
3 2 3 2 4 3 1 2 2 1 11 15 7 5 3 4 11 14 13 19 22 25 28 31 30 29 26 20 16 12 8 4 2 2 5 9 12 15 17 20 22 24 25 24
2 2 6 4 3 5 2 4 5 3 8 11 6 2 9 8 12 13 18 23 26 25 24 28 28 25 22 17 14 10 6 3 1 3 7 10 13 16 20 21 23 24 24 26
2 2 6 2 2 2 3 2 4 5 6 15 15 16 13 13 12 13 14 18 23 23 22 25 23 22 19 16 11 7 5 2 2 5 8 10 14 18 20 21 22 26 28 24
6 6 2 2 2 1 2 4 3 9 8 17 16 14 13 11 12 10 15 18 20 23 24 21 19 18 18 13 10 7 4 2 3 6 9 12 17 19 20 22 25 25 21 20
4 5 3 4 1 2 3 6 8 10 11 13 17 13 12 11 10 9 14 16 21 23 20 18 15 15 14 12 8 6 3 2 5 8 12 16 17 18 19 23 25 19 19 20
2 1 2 1 3 6 9 11 12 10 12 14 16 12 12 10 9 9 14 18 21 19 19 18 17 15 12 9 7 5 2 4 8 11 13 16 17 18 19 19 19 22 22 22
5 7 5 4 8 10 13 12 12 15 10 7 10 12 11 9 10 13 15 20 19 19 19 17 15 13 10 7 5 3 4 8 10 12 15 16 20 24 21 17 19 19 20 22
4 5 4 10 8 4 12 10 10 12 12 13 9 12 10 10 10 17 18 19 20 20 19 17 15 12 9 6 3 4 6 8 11 12 14 17 22 22 20 21 17 18 20 22
9 13 9 3 5 10 14 13 15 13 14 13 15 16 15 13 17 17 16 18 21 21 18 16 13 11 7 3 2 4 7 8 11 14 15 18 19 22 22 20 22 23 21 23
6 5 8 13 14 12 13 14 14 11 10 10 15 14 16 11 11 15 18 20 19 17 15 14 12 9 4 2 4 6 7 10 13 15 17 17 20 21 21 18 18 21 25 23
8 11 11 14 13 12 13 11 15 10 9 8 9 13 18 21 21 19 18 18 19 15 13 11 9 7 2 2 4 6 9 11 13 16 18 19 21 21 18 17 19 19 21 23
15 6 11 10 12 12 10 8 11 11 10 10 12 20 22 21 19 17 14 11 12 13 11 10 9 4 2 3 5 7 11 15 15 17 18 19 20 20 19 19 19 19 21 22
8 8 8 15 14 13 11 9 10 13 11 17 21 21 19 15 10 15 15 14 14 12 9 7 4 2 2 4 6 9 13 15 16 17 18 18 20 19 20 18 19 19 21 23
9 13 13 13 11 12 11 11 12 18 21 22 21 15 15 16 17 16 14 12 11 10 8 6 2 2 3 4 7 11 14 16 16 17 16 19 19 19 18 17 19 20 21 22
12 11 17 15 20 20 12 17 20 20 21 22 22 19 15 16 17 15 13 12 8 9 7 3 2 3 5 8 10 13 14 15 16 16 19 17 19 17 18 18 20 21 21 22
15 16 15 15 13 20 20 22 21 17 19 20 20 16 17 15 15 16 16 11 8 6 4 3 4 5 9 11 12 14 13 14 15 17 18 19 19 18 19 20 21 20 21 21
14 15 15 17 16 17 22 24 25 23 22 21 21 21 21 18 17 15 9 11 8 4 4 4 5 7 9 10 13 13 12 14 16 18 19 21 22 22 23 20 20 22 21 23
13 17 19 17 17 18 23 23 22 23 22 21 20 18 17 15 13 12 7 7 5 4 5 6 6 7 9 11 12 13 14 16 18 20 21 22 21 22 22 21 22 22 23 22
17 18 19 21 24 21 12 17 23 23 24 22 21 19 20 19 16 12 11 7 6 6 7 7 8 8 9 12 13 15 16 18 20 20 20 20 24 23 24 22 22 21 22 24
19 18 19 18 14 12 20 24 25 23 24 22 19 16 12 8 7 9 7 7 7 7 7 8 9 9 12 14 15 16 19 19 19 20 22 22 21 21 21 21 22 22 23 26
17 13 14 16 18 19 20 19 17 16 18 17 17 15 14 12 11 9 8 7 6 7 9 10 11 12 13 15 15 18 19 20 21 22 19 22 23 24 23 23 24 25 26 26
19 20 19 18 20 21 21 20 18 15 17 18 17 12 11 11 10 9 7 7 8 9 10 11 13 13 15 15 19 19 20 21 20 18 19 21 22 22 23 24 25 27 27 27

GFSNGP_925_spd_030.txt.gz
Wind_Speed
14 22 16 18 22 24 26 12 12 23 25 9 8 12 14 15 14 15 15 15 16 14 12 17 20 25 28 28 26 23 20 16 12 9 6 4 2 4 6 9 11 14 15 18
7 8 16 14 17 19 16 13 22 15 2 5 4 8 8 14 16 16 16 16 15 14 14 17 22 24 28 28 26 22 18 14 11 7 4 3 3 6 8 11 14 15 17 19
6 1 14 8 18 14 18 20 8 2 2 5 4 7 9 12 16 18 17 18 17 17 15 20 24 31 30 29 25 21 17 13 9 6 4 2 5 7 10 13 15 16 18 20
3 5 3 4 3 6 6 7 6 6 3 4 5 6 7 2 11 13 15 15 14 12 17 22 27 29 31 28 24 20 16 12 8 5 3 3 6 9 12 14 16 17 19 19
2 2 4 4 5 3 4 3 6 7 6 5 7 5 6 5 2 6 10 11 13 21 24 27 30 33 31 26 23 19 15 10 6 3 2 4 8 11 12 15 16 18 19 20
3 2 1 2 2 1 1 2 0 3 8 10 6 5 3 3 3 11 11 18 22 24 27 29 29 33 30 25 21 17 13 9 5 3 2 6 8 11 13 15 16 18 20 21
2 2 6 4 2 2 2 4 2 2 7 9 6 1 8 8 10 11 15 22 26 25 25 28 33 31 27 23 18 14 11 8 5 2 4 6 8 12 14 15 17 20 21 22
2 1 5 3 3 2 3 2 2 2 3 10 12 13 12 12 13 14 16 20 23 25 23 29 29 28 24 20 16 13 10 7 4 2 4 6 10 12 14 16 19 21 22 20
7 5 1 3 1 1 2 2 3 5 9 16 15 13 12 11 13 12 15 19 22 26 26 24 23 24 23 18 15 11 9 6 3 2 4 8 10 12 16 19 19 21 17 18
1 2 2 2 2 3 4 4 7 9 12 13 18 12 12 12 11 11 14 18 23 24 21 20 20 19 19 16 12 10 8 4 2 4 6 8 9 13 15 17 18 16 16 18
4 3 0 2 1 5 7 10 12 9 10 14 17 12 13 11 11 10 16 18 22 21 21 21 20 19 15 13 11 9 6 3 3 4 8 10 12 15 14 15 16 19 20 20
5 5 4 2 8 8 11 10 11 15 11 8 12 14 12 10 12 15 16 21 21 22 24 21 19 17 13 10 8 6 4 1 3 7 9 11 15 18 17 13 15 16 17 19
1 4 4 8 7 4 10 9 9 11 13 14 9 12 10 10 11 19 20 21 22 23 22 20 18 15 11 8 6 4 1 3 6 8 11 14 15 16 17 21 16 16 18 20
8 10 7 1 5 9 14 12 13 12 13 12 14 15 15 13 17 17 17 21 22 22 20 18 16 13 10 6 4 2 3 4 7 10 12 13 14 16 18 17 16 19 18 18
5 3 8 13 13 11 13 14 14 11 11 9 14 14 16 10 10 16 19 21 22 21 18 16 14 11 8 5 2 2 4 7 10 11 12 12 14 16 18 18 17 19 21 19
7 9 12 14 13 11 13 11 15 10 9 8 9 13 17 21 21 21 22 23 22 17 16 14 12 10 5 2 1 3 6 9 9 11 12 14 16 19 17 16 17 17 19 21
14 6 10 9 12 12 10 9 11 10 10 10 12 19 23 22 21 20 17 13 15 16 13 12 11 7 3 0 3 6 8 10 10 12 13 14 16 16 17 17 16 17 19 21
5 7 7 16 15 13 10 9 10 12 10 16 19 21 19 16 11 16 16 17 17 14 11 10 7 4 1 2 5 7 9 11 12 13 13 16 16 18 18 16 16 17 20 22
6 13 12 12 12 13 12 10 11 17 19 19 19 15 17 19 21 20 19 17 15 13 10 8 4 2 2 3 6 8 10 11 12 13 15 14 17 18 16 16 17 18 20 20
11 11 16 13 20 20 13 17 20 18 19 24 23 20 17 18 19 18 15 12 8 9 10 5 2 2 3 5 5 10 10 11 12 14 16 15 17 15 16 16 18 20 19 19
13 14 15 15 13 17 20 21 21 18 21 23 20 16 18 19 18 19 19 11 9 8 6 3 2 2 5 5 9 10 10 11 13 15 17 18 18 18 17 19 19 19 20 20
13 14 15 17 15 15 17 23 24 24 22 22 23 23 23 19 18 14 10 14 10 6 4 3 2 4 5 6 9 10 11 13 15 17 18 19 19 20 22 20 20 20 20 22
11 16 19 18 17 17 23 23 22 24 22 22 22 22 19 18 17 15 8 8 7 5 4 4 3 4 5 9 10 11 12 14 17 18 18 19 20 22 22 24 20 21 21 22
18 19 20 22 24 22 13 16 23 23 23 21 20 20 22 20 16 14 14 9 7 5 4 4 4 5 7 9 11 12 14 16 18 17 19 19 20 21 22 20 22 23 24 23
20 20 21 20 15 12 20 24 26 24 25 22 19 16 15 9 8 13 10 9 6 4 3 4 5 7 9 11 12 14 16 17 17 18 21 19 21 23 23 23 23 22 24 26
19 15 15 15 18 19 19 18 17 17 19 18 19 17 17 16 14 11 8 6 4 4 5 6 8 10 12 13 14 17 17 18 20 20 17 19 21 21 21 22 23 25 26 26
19 20 20 17 16 18 19 20 19 16 17 19 20 15 14 12 10 8 6 5 4 5 6 8 10 12 14 14 16 16 18 19 17 16 17 18 20 20 22 23 24 25 26 26

GFSNGP_925_spd_033.txt.gz
Wind_Speed
18 20 16 4 12 20 23 22 14 10 21 25 19 10 5 6 12 15 15 14 15 14 12 15 19 24 28 30 29 27 24 20 17 14 11 8 6 5 5 6 8 8 10 13
17 20 23 10 14 22 21 24 16 13 21 19 17 18 9 12 14 15 15 14 14 14 13 15 21 23 27 30 28 25 22 19 16 13 10 7 5 4 5 6 8 9 12 14
6 6 7 6 16 24 19 20 21 13 20 23 18 8 14 14 16 17 16 15 15 15 15 20 23 29 29 32 28 24 21 18 15 12 9 6 4 3 5 7 10 12 13 15
4 2 3 4 18 19 20 14 13 13 19 22 17 2 5 2 11 12 14 14 13 12 16 21 26 28 32 30 27 23 20 17 13 10 8 5 3 4 6 9 11 13 15 16
4 3 2 4 9 9 11 12 22 24 20 9 8 5 3 3 5 7 12 12 13 21 24 27 30 33 33 29 26 23 19 16 12 9 7 4 3 6 8 10 12 14 16 18
3 3 2 2 3 8 12 3 13 19 13 8 4 4 4 3 5 11 12 18 21 25 27 28 28 34 32 28 25 21 17 14 10 8 5 3 4 6 8 11 13 15 17 17
2 3 6 4 5 2 3 4 2 3 6 7 5 1 6 7 9 8 13 21 26 24 24 26 32 33 28 26 22 19 15 12 10 6 4 3 5 8 10 12 15 16 17 18
2 2 4 5 4 3 1 2 2 3 3 7 9 9 10 11 11 13 15 18 22 24 22 27 32 32 27 23 20 17 14 11 8 5 3 4 7 8 11 13 15 17 19 20
6 4 3 3 2 2 1 1 1 3 6 15 13 10 11 11 12 12 13 19 21 26 25 28 28 28 27 21 19 16 13 10 7 4 3 6 7 11 14 14 15 18 17 17
1 1 2 3 2 4 5 4 6 7 9 12 17 12 13 12 11 12 14 18 24 26 22 22 22 23 24 20 16 14 12 8 5 3 3 6 7 10 12 14 16 18 16 17
4 5 4 4 1 5 7 8 12 9 9 13 17 12 13 12 11 10 16 19 22 22 21 23 22 22 19 17 14 13 10 6 3 3 6 7 9 10 12 13 13 17 19 20
4 3 2 0 6 7 8 8 8 13 12 9 12 14 13 10 10 14 16 20 21 23 26 24 23 20 16 13 11 10 8 4 3 5 7 8 11 14 13 11 14 14 16 18
3 3 3 6 6 3 9 8 9 8 12 14 9 12 11 11 11 19 20 22 22 24 26 24 21 18 14 12 9 7 5 3 3 5 7 10 11 12 17 23 19 18 17 19
6 8 5 0 4 7 12 12 13 12 12 11 13 15 16 14 18 17 17 23 25 26 23 21 19 16 12 9 7 5 4 2 4 6 8 10 11 14 16 17 16 19 21 18
5 3 6 11 12 10 12 13 13 10 10 10 14 14 16 10 11 16 22 23 24 23 20 19 17 14 10 7 5 3 3 4 6 8 9 10 12 15 16 18 18 20 21 18
7 9 9 12 12 11 12 10 14 9 9 9 10 13 17 22 22 22 22 24 24 17 18 17 15 11 8 5 3 2 3 5 6 9 11 12 14 16 17 16 17 16 17 19
12 6 7 7 11 11 8 8 11 10 9 10 12 18 23 22 21 21 18 15 18 17 15 14 13 9 6 3 2 3 5 7 8 10 11 13 15 15 18 17 16 16 18 19
3 7 5 13 15 13 10 9 11 11 11 17 19 21 19 16 12 18 19 20 19 16 13 12 9 7 5 3 3 4 7 9 10 11 12 15 14 17 18 16 17 18 20 22
3 10 12 12 12 13 12 11 11 17 20 20 20 16 19 22 22 21 20 20 18 16 11 9 6 5 4 4 4 7 9 10 10 11 13 11 16 18 17 17 16 19 21 21
9 9 13 11 16 18 12 17 21 19 18 26 25 21 18 20 22 21 18 13 9 9 11 7 5 4 3 3 5 9 9 9 10 12 13 14 17 17 19 17 18 19 19 20
10 12 14 14 12 17 18 20 22 19 22 24 21 18 19 21 19 20 19 12 11 9 7 5 4 3 4 4 7 7 8 9 11 13 15 16 17 19 18 19 20 19 19 20
11 12 14 16 14 16 19 23 24 23 23 23 24 25 24 20 18 15 11 15 11 7 6 4 4 4 2 5 7 8 9 10 12 14 15 16 18 20 22 22 22 20 20 23
10 14 18 18 16 18 23 23 23 24 22 22 23 22 19 19 18 16 9 9 8 6 5 5 4 3 4 7 8 9 10 12 14 16 16 18 19 19 20 22 20 22 24 24
16 18 20 24 24 23 13 17 24 23 24 22 22 22 23 20 13 9 14 10 8 6 5 5 4 4 6 7 9 10 12 14 16 16 18 17 17 19 21 22 23 24 24 25
19 20 22 21 16 12 21 25 26 24 25 23 20 16 16 14 9 14 11 9 6 4 3 4 4 5 7 9 10 12 14 16 17 17 18 17 19 21 21 22 22 23 24 26
19 15 15 17 19 20 20 20 18 17 21 19 17 15 14 16 16 12 9 6 4 3 3 4 6 8 10 11 12 14 16 18 19 18 16 18 19 20 21 22 23 24 26 28
20 22 21 19 18 20 21 21 20 16 18 21 21 16 16 14 11 9 7 5 3 3 4 6 8 10 11 13 15 16 18 19 17 17 17 17 18 19 21 23 24 24 25 27

GFSNGP_925_spd_036.txt.gz
Wind_Speed
21 26 27 24 12 18 19 26 10 17 18 12 9 10 2 6 7 10 10 11 11 12 12 16 20 23 27 33 34 32 30 26 23 20 18 15 12 10 7 5 5 5 7 9
19 20 19 19 16 17 22 20 22 19 18 12 11 2 4 7 10 12 12 12 12 12 13 12 21 23 27 31 32 30 28 25 22 20 16 13 11 8 5 5 5 6 9 12
11 10 11 5 8 15 14 14 18 15 19 15 15 16 8 6 12 13 14 15 14 14 14 19 22 28 28 32 31 28 26 23 20 18 15 12 9 6 4 5 7 9 10 12
6 7 5 4 5 13 17 12 16 12 14 11 11 10 8 10 13 11 13 13 13 12 16 20 26 28 33 32 29 26 24 22 18 16 13 10 7 5 4 6 8 10 12 14
4 4 6 5 2 4 5 6 16 17 17 16 5 4 3 2 6 10 13 12 12 21 24 27 30 33 34 30 28 25 23 20 17 14 12 9 6 5 6 7 8 12 14 16
4 4 3 3 4 5 3 5 9 15 15 10 3 2 1 5 8 10 13 17 20 24 26 28 28 34 32 29 27 24 21 18 15 12 10 7 5 4 5 7 10 13 15 15
2 3 6 2 3 6 4 3 2 10 13 4 1 1 2 4 10 9 14 21 24 23 23 26 33 33 28 28 25 23 20 18 14 11 9 6 4 4 7 9 12 13 16 18
3 3 3 3 2 2 1 3 2 1 4 8 5 6 4 7 10 12 14 17 21 23 22 26 32 33 27 25 23 22 19 17 13 10 7 4 4 6 8 11 13 16 18 21
6 5 3 2 3 3 4 3 1 3 3 10 12 6 5 8 10 10 11 17 20 24 24 25 28 32 28 25 24 21 18 15 11 8 5 5 5 8 11 12 14 16 18 18
3 2 4 2 1 3 3 3 4 5 9 7 12 9 10 10 10 10 12 15 22 25 22 21 25 26 29 26 22 19 17 13 10 6 4 4 6 9 12 14 15 17 17 17
5 7 5 4 2 3 4 7 9 9 8 11 14 12 11 11 10 10 15 19 21 23 22 24 28 28 24 22 19 18 15 11 7 4 4 6 8 10 12 13 12 18 19 20
5 4 3 1 5 6 6 6 7 12 11 9 10 13 13 11 11 15 17 21 23 24 28 28 29 25 21 17 15 15 13 8 5 4 5 8 11 13 11 11 14 14 15 16
2 3 3 6 6 3 7 7 8 9 10 14 9 12 13 11 12 21 21 22 23 24 29 29 26 22 17 15 13 11 10 6 4 5 7 9 11 12 17 21 17 14 15 17
5 7 4 3 5 7 11 12 13 12 12 11 13 15 19 14 19 18 18 24 30 30 28 26 23 20 15 13 11 10 8 6 5 6 7 9 10 11 13 16 17 23 24 19
3 2 2 10 11 9 10 14 13 11 11 11 14 15 18 12 13 17 26 28 29 27 24 23 21 17 13 10 9 7 6 5 5 6 8 8 10 13 14 16 18 20 23 20
5 7 7 10 12 9 9 11 15 10 10 10 11 14 18 23 23 25 26 27 25 18 21 20 18 14 10 8 7 5 4 4 5 8 9 10 12 14 16 18 18 17 17 19
10 5 6 7 10 11 6 7 11 10 10 11 13 20 22 23 22 22 20 19 23 21 18 17 15 11 8 6 5 4 4 6 7 8 9 12 13 13 18 16 14 16 19 20
2 5 5 10 13 13 10 10 11 12 12 18 21 22 20 17 13 18 23 24 22 19 15 14 12 9 7 5 4 4 6 7 7 9 11 13 13 17 17 15 16 17 20 22
3 8 10 12 11 11 12 11 12 19 21 21 21 16 19 21 22 24 24 23 21 19 13 11 9 7 6 4 4 5 6 7 8 10 13 12 17 17 16 16 16 18 20 20
8 8 12 13 16 17 13 18 21 19 18 25 25 21 18 20 24 23 21 17 12 13 13 9 7 6 4 3 5 6 7 9 10 12 14 14 17 17 19 17 17 19 18 18
9 11 13 14 13 19 20 21 23 20 21 22 22 19 20 22 23 23 20 13 13 11 10 8 5 4 3 4 6 7 8 9 11 13 15 16 18 19 19 20 21 19 19 19
9 11 12 15 15 16 19 24 26 25 25 24 24 26 25 21 20 16 12 17 14 9 9 7 6 4 4 5 7 8 9 11 12 14 16 16 17 18 20 21 22 22 22 25
9 13 17 16 15 18 22 23 23 24 24 24 24 23 20 20 19 17 10 11 11 9 8 7 6 3 4 6 8 9 10 13 14 16 16 17 17 17 19 21 20 23 25 25
14 17 19 23 25 24 14 16 24 26 27 25 25 24 26 22 15 11 17 14 11 9 7 5 4 3 6 8 10 10 12 14 16 16 17 15 16 17 19 21 23 24 24 24
17 19 21 20 15 12 21 25 27 27 27 25 22 19 17 15 11 17 14 12 9 7 5 5 4 6 8 10 10 12 13 15 16 17 17 16 18 18 20 21 22 23 23 24
18 14 15 16 21 22 21 21 20 19 23 21 20 16 15 18 19 16 12 9 7 5 4 5 7 8 10 10 12 13 14 17 18 17 16 17 17 19 20 21 23 24 23 24
19 22 22 20 18 19 21 23 22 17 20 23 22 19 19 17 15 12 10 8 6 4 5 6 8 9 10 12 13 14 17 18 16 17 18 17 18 18 19 21 24 24 23 24

GFSNGP_925_spd_039.txt.gz
Wind_Speed
20 24 25 26 27 22 20 26 10 16 18 16 11 5 10 9 7 7 7 9 11 13 14 17 22 24 27 30 36 38 37 34 30 27 25 22 19 16 13 9 7 4 3 5
18 22 21 21 18 16 16 21 18 21 24 17 9 3 3 7 8 8 10 11 12 14 15 16 23 25 27 29 33 37 35 32 29 26 23 20 17 14 11 7 5 3 4 7
7 13 23 4 5 7 4 7 15 14 15 11 8 7 7 7 7 10 12 13 14 14 14 18 23 28 28 30 35 34 33 30 27 24 22 18 15 12 8 5 4 4 6 9
7 13 4 2 2 6 10 9 15 11 10 8 6 5 8 6 7 10 13 14 14 13 17 21 25 26 32 33 33 33 31 28 25 22 20 16 13 9 6 4 4 6 8 11
3 4 8 3 4 2 2 6 16 14 13 9 3 7 4 4 5 9 12 13 13 19 23 25 27 31 32 29 30 30 28 26 23 20 18 14 11 8 5 4 5 8 10 11
2 4 4 3 6 1 3 4 4 9 9 2 2 3 3 7 7 11 12 18 21 24 25 26 25 32 30 26 26 24 26 24 21 17 15 12 9 6 4 4 7 9 11 12
8 3 7 4 7 1 4 5 4 6 5 2 1 2 2 5 10 8 13 21 22 23 23 25 29 32 26 24 21 27 25 23 19 15 13 10 7 4 4 6 8 11 13 14
3 3 6 3 2 2 2 4 5 3 6 4 7 1 7 9 10 11 13 17 21 23 22 23 28 31 23 23 28 27 25 22 18 14 11 8 5 4 4 7 10 11 14 16
6 5 5 3 5 3 2 4 3 4 1 7 10 5 6 8 10 10 11 15 19 24 24 21 25 29 28 28 29 26 23 19 16 12 8 5 4 4 7 9 10 11 11 13
2 3 6 6 3 3 3 3 4 1 3 3 9 10 12 11 9 10 12 15 22 25 22 21 23 27 32 30 27 24 21 17 13 9 6 4 5 6 7 9 10 10 13 15
5 7 5 5 2 4 4 4 6 8 6 9 12 11 12 11 10 10 16 18 21 23 22 22 29 31 29 27 24 22 19 15 11 7 5 4 5 6 9 10 10 13 13 15
4 2 0 1 3 4 5 5 7 11 11 10 11 13 14 11 11 15 17 21 23 24 27 26 32 29 25 22 19 20 17 12 8 6 4 5 7 9 9 9 11 11 13 15
2 3 3 4 5 3 6 6 9 12 11 14 11 12 12 12 14 23 22 23 24 24 28 31 30 26 21 18 16 15 14 10 7 5 5 7 9 12 15 19 16 17 14 17
3 7 3 3 3 7 9 10 13 14 14 13 15 17 19 16 21 20 20 23 28 31 30 30 27 23 18 16 15 14 12 8 6 5 7 8 9 10 11 11 16 21 23 19
4 2 1 10 9 10 8 11 12 13 11 12 15 16 18 14 15 19 23 28 30 31 28 27 25 20 16 14 13 12 9 7 6 7 7 8 9 11 11 13 13 16 19 20
5 6 7 10 9 10 10 8 15 10 10 11 11 15 19 23 23 23 26 29 26 19 24 24 22 18 14 12 11 10 8 7 7 7 7 8 10 11 12 12 13 14 17 18
7 5 6 6 10 12 9 8 13 11 11 12 15 20 23 24 23 22 22 23 28 25 23 22 20 15 12 10 8 8 7 6 6 6 8 10 10 11 11 12 13 15 17 18
1 2 7 11 13 13 11 9 12 14 13 20 22 22 21 19 15 19 26 28 26 23 19 17 15 13 11 8 7 7 6 5 6 7 9 10 9 13 12 12 13 15 17 19
2 7 10 13 11 12 13 12 14 21 22 22 22 17 20 21 23 25 27 26 24 21 15 14 12 10 9 7 6 6 5 6 7 8 9 9 13 13 13 13 14 15 17 17
7 7 12 12 18 19 14 19 23 22 21 27 25 22 19 20 26 25 24 19 14 19 16 13 10 9 7 5 5 5 5 6 7 8 10 11 13 13 15 13 14 15 16 16
8 10 13 14 13 19 21 23 25 21 21 23 24 21 21 24 25 26 22 15 15 15 13 11 8 7 5 4 4 4 5 6 8 10 12 13 15 15 15 15 17 15 16 17
7 9 11 14 14 16 19 22 25 25 25 26 25 26 25 22 22 18 15 21 17 13 12 9 8 6 4 3 4 5 6 8 10 12 14 14 15 16 17 18 19 18 19 22
7 12 15 15 14 18 21 21 22 25 26 26 25 24 21 21 21 19 12 15 15 13 11 10 7 4 3 4 5 6 8 11 12 14 15 16 15 16 17 19 19 21 23 22
12 15 17 22 25 24 14 17 25 25 26 28 28 28 29 24 15 11 20 17 14 12 10 8 6 3 4 6 7 9 11 12 14 16 16 15 16 16 17 18 20 22 23 21
14 16 20 20 15 12 22 25 27 26 29 28 25 21 20 19 15 22 19 16 13 11 9 7 4 3 6 8 9 11 13 14 17 17 18 17 18 18 18 18 19 21 22 23
16 12 14 15 19 21 22 23 20 20 24 22 22 19 17 22 24 20 16 13 11 8 6 3 3 5 7 9 10 12 14 17 18 17 16 17 18 18 18 19 20 22 24 23
18 19 19 18 17 19 20 23 24 19 21 24 24 22 24 22 19 17 14 11 8 6 3 3 5 7 9 11 13 13 16 18 16 17 17 17 18 17 18 20 21 23 24 22

GFSNGP_925_spd_042.txt.gz
Wind_Speed
18 22 22 23 25 26 19 23 16 29 20 18 14 14 16 14 8 6 4 2 6 8 11 14 21 24 26 28 29 31 32 29 27 25 23 21 19 17 14 12 10 7 5 2
13 20 20 21 21 20 17 12 16 22 24 23 19 14 15 9 7 5 5 7 8 11 13 14 21 25 28 29 29 31 29 28 26 24 22 20 18 15 13 10 8 6 3 1
8 13 23 5 4 10 8 7 7 9 13 13 11 8 6 7 9 12 10 11 12 13 13 16 22 28 28 29 30 28 27 25 24 23 21 18 16 13 11 9 6 4 2 2
7 14 3 5 4 8 8 11 13 14 14 12 11 10 10 11 8 7 11 12 13 11 15 21 25 26 31 28 28 26 25 24 22 21 19 16 14 11 9 7 5 3 1 3
4 7 15 1 2 6 3 5 9 14 12 11 11 8 5 11 6 10 13 13 14 19 22 25 26 28 29 27 25 24 23 22 20 19 17 14 12 10 7 5 3 1 2 4
3 5 4 4 4 2 3 4 11 7 7 7 7 5 3 7 7 12 13 18 20 22 24 26 25 27 28 26 24 22 21 21 18 16 15 13 11 8 5 4 2 2 4 5
10 5 9 6 4 3 4 5 5 7 5 4 6 4 4 7 10 11 14 20 22 23 23 25 26 26 25 24 22 21 22 22 19 15 15 12 9 6 4 2 3 4 5 7
4 5 7 1 2 5 3 3 4 1 4 5 8 8 7 9 11 12 14 19 22 22 21 21 23 26 24 22 24 28 25 22 19 15 12 9 8 5 4 3 3 5 8 9
7 5 3 2 5 4 2 6 5 3 3 5 7 8 9 10 12 11 13 16 19 24 24 20 18 24 26 23 29 27 25 20 15 12 10 8 6 4 1 3 4 6 9 11
3 3 8 3 2 1 2 2 3 3 4 9 9 11 12 11 11 11 14 16 21 24 24 21 21 26 30 29 28 26 19 16 13 10 8 6 4 2 2 4 5 7 10 12
6 12 10 2 2 1 2 5 6 6 4 8 14 13 13 13 13 12 16 19 20 22 22 22 25 27 28 28 22 18 16 13 11 8 6 4 2 2 3 4 4 9 10 13
3 2 3 3 3 2 2 5 7 10 11 9 11 13 14 13 14 17 18 20 21 22 24 23 25 24 22 17 16 17 15 11 8 6 4 3 3 3 5 3 6 6 9 10
2 2 2 6 4 5 6 7 9 11 12 14 12 13 13 14 17 22 22 22 22 23 24 24 23 20 16 15 14 13 13 10 7 5 4 3 3 4 7 7 8 8 9 13
5 5 3 4 3 6 11 10 10 15 15 14 16 18 20 18 22 22 21 22 24 25 23 23 22 18 15 14 15 13 11 10 6 4 2 1 3 5 7 9 13 15 13 14
4 3 4 10 11 10 12 9 11 13 12 13 16 16 19 15 17 22 23 23 23 24 22 21 20 16 15 14 13 11 9 6 4 3 2 2 4 5 7 10 11 13 15 15
6 8 8 9 10 6 13 9 11 13 13 14 13 16 20 23 24 22 21 21 23 19 19 19 18 14 14 13 12 9 7 6 4 3 2 4 5 6 9 10 12 13 15 15
8 5 7 6 9 10 9 8 10 13 14 14 17 22 23 23 23 21 18 18 20 19 17 17 16 15 13 10 8 6 5 4 4 3 4 5 5 7 9 10 12 13 15 15
2 4 6 11 14 14 11 12 11 14 15 21 22 22 21 20 16 19 20 20 20 18 15 15 15 14 11 9 7 5 4 4 4 4 4 5 6 8 9 10 12 14 16 16
1 5 10 14 14 12 13 13 16 20 23 22 23 19 19 20 20 21 20 19 18 17 12 13 14 11 9 7 5 5 4 4 3 3 4 6 7 8 9 10 12 13 15 16
6 8 13 12 18 19 14 19 23 22 21 21 22 22 20 19 20 19 18 15 11 13 14 14 11 9 7 6 4 4 4 3 3 4 5 7 7 9 10 10 12 13 14 15
7 10 13 13 13 19 20 24 24 21 21 22 22 21 21 19 18 19 18 15 12 15 14 12 9 7 5 4 3 3 3 3 5 5 7 8 9 9 10 11 12 13 14 15
8 10 12 15 14 16 19 20 22 24 22 22 22 23 23 20 17 14 10 17 15 14 12 10 8 6 4 3 3 3 4 5 5 6 7 8 9 10 11 12 13 14 15 16
7 11 15 16 15 18 21 21 22 24 24 23 24 23 20 19 17 17 13 12 14 13 11 9 8 5 3 3 3 4 5 6 6 7 8 9 9 11 12 13 13 14 15 16
12 12 14 18 22 22 15 18 20 20 20 22 23 25 26 20 13 10 18 18 16 14 11 9 6 3 2 3 4 5 6 7 8 9 10 10 10 11 12 13 14 14 15 16
13 16 18 18 14 11 21 23 25 22 21 20 21 22 20 16 12 19 19 16 15 13 10 7 3 1 3 4 5 7 8 9 11 11 11 12 12 12 13 13 14 15 16 17
15 12 14 15 17 19 20 21 19 19 21 19 16 18 15 18 26 23 19 16 13 9 7 4 1 2 4 5 6 8 10 12 14 13 13 13 13 15 15 16 17 17 18 19
15 18 18 17 17 20 20 21 22 20 19 19 19 16 22 23 21 18 16 13 10 7 4 1 2 4 6 7 9 10 12 14 15 14 15 15 16 17 17 17 18 19 20 20

GFSNGP_925_spd_045.txt.gz
Wind_Speed
16 20 20 19 20 19 18 20 15 30 26 28 22 21 17 15 15 13 7 5 3 5 8 9 15 20 21 22 26 30 31 31 30 30 29 26 24 21 19 16 13 11 9 6
12 19 18 16 18 20 19 18 15 16 21 21 17 11 11 13 10 7 11 3 5 7 12 13 16 18 22 25 27 30 31 31 30 28 26 24 23 20 17 14 12 9 7 4
5 9 17 6 6 6 9 12 7 9 10 11 10 7 9 10 11 13 16 10 10 11 13 15 18 21 23 27 31 31 32 30 28 25 25 22 21 18 15 12 10 7 5 2
6 11 3 8 4 4 8 10 9 14 14 12 12 7 7 9 12 7 12 12 12 12 14 19 23 22 25 29 30 31 29 27 24 24 23 20 18 15 12 10 8 5 3 0
3 6 14 8 2 5 2 3 8 11 9 10 6 5 2 11 8 10 11 12 12 18 22 24 23 26 26 29 29 28 25 23 22 22 22 18 16 13 10 8 6 3 0 2
3 4 3 2 4 2 3 2 10 9 11 11 10 1 3 7 9 14 14 16 18 22 25 25 22 23 26 25 25 23 22 22 20 20 19 17 14 11 8 6 3 0 3 4
8 5 8 9 3 4 4 5 6 5 9 10 6 5 5 9 10 14 15 19 23 23 23 24 25 26 25 24 22 23 23 22 20 19 19 15 12 9 7 4 1 2 4 6
4 5 8 1 2 5 4 2 2 2 4 6 6 8 9 10 12 12 13 17 20 21 21 22 22 24 24 23 23 24 25 24 21 19 14 11 10 7 4 2 2 4 5 7
7 6 7 1 7 8 5 6 3 4 3 7 6 4 7 8 12 10 11 15 18 20 21 19 19 22 25 21 26 28 26 23 18 15 12 9 7 5 2 2 4 5 7 8
3 5 9 7 7 1 3 5 3 3 5 7 7 9 10 10 10 10 15 17 20 21 20 20 20 23 28 27 26 26 22 17 14 12 9 7 5 3 1 2 4 5 8 10
11 16 9 6 5 4 3 3 5 2 4 9 11 9 9 8 9 10 14 17 17 18 19 20 24 24 25 26 24 21 17 15 12 9 7 5 3 1 1 2 3 6 7 10
5 6 4 5 4 4 4 4 4 7 9 9 11 12 12 10 12 15 15 18 20 21 23 22 23 24 23 19 18 18 15 12 9 7 4 3 1 2 4 5 8 8 7 8
7 3 3 3 6 7 7 7 7 9 10 12 12 12 12 12 15 18 19 20 20 22 25 25 23 22 17 16 15 13 13 11 8 5 3 2 3 4 6 7 10 9 6 9
4 3 2 5 3 8 10 10 10 10 14 12 15 17 17 15 18 17 18 21 24 26 25 24 22 19 15 14 15 14 12 9 7 4 3 3 3 5 6 8 10 10 9 11
6 5 2 9 10 9 10 11 10 10 12 12 15 16 17 13 14 19 22 23 25 26 23 22 21 17 14 13 13 11 9 7 5 4 3 3 4 5 7 9 10 12 13 13
3 4 7 9 9 8 7 10 10 10 11 12 13 17 19 21 21 22 22 21 22 19 19 20 18 15 13 12 11 10 8 7 5 3 2 4 5 6 8 9 10 12 13 14
6 4 5 4 8 10 6 8 9 9 10 12 16 21 22 23 23 21 20 21 22 21 19 18 16 14 12 10 9 7 6 4 3 3 3 4 5 7 8 9 11 12 13 14
5 2 8 8 11 11 9 8 11 13 11 18 20 21 20 18 15 20 21 22 22 20 16 15 14 13 11 9 7 6 4 3 2 2 4 5 6 7 8 9 11 13 14 15
1 5 6 11 13 12 11 12 14 17 19 20 20 17 19 20 20 21 21 19 18 17 12 13 14 11 9 8 6 5 3 2 2 3 4 6 7 8 9 10 11 13 14 14
2 3 7 9 15 14 12 17 20 19 18 20 23 22 19 19 20 21 18 15 12 15 14 15 10 9 7 6 5 3 2 2 3 4 5 7 8 9 10 11 12 13 13 13
4 6 8 9 9 15 17 20 22 20 20 20 21 19 20 20 19 20 18 14 12 14 14 12 8 7 5 4 3 2 2 3 4 6 7 8 10 10 11 11 12 12 13 14
4 6 8 11 11 13 17 20 22 23 22 21 22 23 21 19 17 15 12 17 15 14 12 9 7 6 4 3 2 2 3 5 5 6 8 9 10 11 12 13 13 14 14 15
5 7 10 12 12 15 19 19 20 22 22 22 22 22 19 17 16 16 11 12 16 12 10 8 8 6 4 2 1 3 4 5 6 7 9 10 11 12 13 14 15 15 16 16
7 10 12 16 19 18 13 17 18 19 21 20 20 22 23 20 13 9 16 16 15 13 10 9 7 4 2 1 3 4 5 6 8 10 10 11 12 13 13 14 15 16 17 17
8 11 13 15 12 10 20 22 23 22 22 20 20 18 17 15 11 17 19 17 15 12 10 8 5 2 1 3 4 6 7 8 9 11 12 12 13 14 15 15 16 17 19 19
9 8 11 11 13 17 19 21 18 20 22 19 16 17 17 16 21 20 19 17 14 11 8 5 2 1 2 4 5 7 8 10 11 12 12 14 15 16 16 16 17 18 19 20
9 11 13 13 13 17 18 20 21 18 19 21 19 17 19 21 19 19 17 15 12 9 6 3 0 2 4 6 7 9 10 12 12 13 15 15 15 15 15 16 18 20 21 21

GFSNGP_925_spd_048.txt.gz
Wind_Speed
10 13 9 10 10 13 15 20 12 23 23 26 23 22 16 8 12 11 17 8 5 4 3 6 11 18 22 27 28 31 31 29 28 31 33 33 31 29 27 25 22 17 14 11
5 12 12 12 16 16 19 19 16 19 24 16 20 6 7 6 3 8 9 4 4 1 6 8 14 17 21 25 28 30 29 29 31 32 33 32 32 30 26 23 20 16 12 8
3 7 9 8 9 9 4 7 8 9 17 14 16 13 7 8 9 12 12 6 7 7 10 12 15 19 20 24 26 28 28 29 30 31 31 30 30 28 23 20 17 13 9 6
4 8 4 2 6 6 7 8 8 13 14 11 8 4 9 10 9 7 5 9 10 10 13 16 19 21 22 23 25 27 26 28 29 29 28 28 27 25 21 17 14 10 6 3
2 5 9 3 4 1 1 3 4 8 12 12 1 2 7 13 11 8 11 10 11 17 18 19 20 22 25 25 27 26 26 27 27 26 24 25 24 21 18 15 11 7 4 1
3 3 3 2 4 4 7 2 4 1 8 11 7 4 3 8 11 12 11 16 20 22 22 24 22 24 25 26 27 25 25 26 24 24 24 24 21 18 14 11 8 4 3 3
4 3 6 7 7 6 1 4 3 1 5 7 4 4 5 12 11 11 14 18 21 23 23 24 27 30 26 22 21 23 29 29 24 22 23 20 18 14 11 8 6 4 4 4
3 3 7 1 3 0 2 2 3 3 1 4 6 6 9 10 12 11 12 16 21 21 21 24 26 28 23 21 21 24 29 29 27 22 19 17 15 11 9 6 5 4 3 5
6 6 7 4 6 2 3 2 3 2 4 5 7 4 7 7 9 9 12 15 18 20 21 21 24 25 26 24 28 29 29 26 22 20 17 13 12 9 7 5 4 4 6 7
4 5 9 4 6 6 5 4 4 2 3 5 9 8 9 9 8 8 12 16 19 21 21 20 25 25 26 27 27 27 25 23 20 18 14 11 10 8 5 4 4 6 8 9
6 9 2 6 5 4 4 5 3 1 3 6 10 9 9 8 8 9 15 18 19 18 19 21 22 23 24 26 26 25 23 20 18 13 11 10 7 5 4 4 6 7 7 9
3 3 1 2 3 4 5 3 3 3 5 7 9 10 10 7 9 12 13 21 20 19 21 21 24 25 23 21 22 23 21 16 13 12 10 8 6 5 5 6 8 8 7 8
0 3 5 6 6 6 5 5 6 5 7 8 8 9 11 9 10 20 19 19 19 19 22 23 24 24 20 19 19 18 18 15 12 10 8 7 6 6 7 7 7 8 8 9
6 6 3 7 5 7 7 7 10 9 9 9 11 15 15 14 18 17 16 19 23 23 23 25 25 23 19 18 18 18 16 12 10 7 6 5 5 5 7 9 11 12 10 11
5 4 4 9 10 8 7 7 9 8 7 7 14 14 16 12 14 18 22 24 24 24 23 26 25 20 17 16 17 15 13 10 8 6 5 5 6 7 8 9 10 12 14 14
6 6 7 6 7 7 7 7 10 9 9 8 9 13 18 21 21 21 22 23 23 19 23 26 23 18 16 15 14 12 11 9 6 5 5 6 7 8 8 10 11 12 14 15
4 1 4 3 7 7 7 6 9 11 11 10 14 19 22 22 21 20 21 24 26 26 25 24 21 17 15 12 11 10 8 7 5 4 5 6 6 7 9 9 11 13 14 16
4 1 7 8 10 9 8 9 9 13 12 19 20 21 20 18 15 20 23 27 27 24 21 19 18 16 13 11 9 8 6 5 4 5 5 6 8 9 9 11 12 14 16 17
4 3 5 8 9 10 9 9 13 19 21 21 21 16 19 21 23 22 23 23 21 21 17 17 15 14 13 10 8 7 6 5 4 4 6 7 8 8 11 12 14 15 16 15
4 3 6 10 14 15 10 15 20 21 21 21 24 21 19 19 22 22 20 17 17 20 20 16 13 12 11 9 7 5 4 4 4 6 7 8 9 11 12 12 12 14 15 14
4 4 6 8 9 16 18 21 22 20 22 23 22 20 21 21 22 25 21 16 17 19 17 14 12 11 9 7 5 4 3 4 6 7 8 9 11 12 12 13 14 14 14 15
2 4 6 9 10 12 18 21 21 23 24 24 24 25 25 22 22 17 16 22 21 18 16 13 11 8 8 5 3 3 4 5 6 6 8 10 11 13 14 15 16 16 17 18
2 4 8 9 10 14 18 20 20 22 22 23 24 24 22 21 23 20 13 19 19 16 14 12 11 9 6 4 3 3 4 5 6 7 9 10 12 14 15 16 16 18 19 20
2 4 6 13 19 18 11 16 21 21 23 22 23 27 30 25 16 13 19 22 18 16 14 13 10 7 4 3 2 3 4 5 7 9 11 10 13 14 14 16 18 19 19 19
6 8 13 14 8 6 16 21 24 25 26 24 24 22 21 22 19 24 25 22 17 16 15 11 8 5 3 2 2 4 5 7 8 10 13 13 14 15 16 17 17 18 19 21
4 5 7 8 12 16 17 18 16 19 23 21 21 23 20 18 24 26 24 22 17 15 12 9 5 3 1 2 3 5 7 8 10 12 12 14 14 15 16 16 17 19 20 21
6 9 13 12 15 19 18 17 20 19 20 21 22 24 25 25 25 25 23 20 16 13 10 7 4 1 1 3 5 6 8 10 11 12 14 15 15 15 16 17 19 21 22 21

GFSNGP_925_spd_054.txt.gz
Wind_Speed
5 6 2 4 6 8 13 16 6 3 8 17 18 18 19 16 11 12 12 12 11 4 3 2 3 11 14 12 12 12 17 23 24 26 28 27 30 28 30 30 30 28 27 24
4 6 8 7 10 10 13 15 15 21 24 23 18 8 10 9 11 11 12 13 7 4 6 5 8 14 18 19 17 16 17 18 23 26 27 27 29 29 32 32 29 25 21 17
4 3 1 5 11 15 7 7 10 13 17 13 9 10 5 8 9 9 12 13 6 8 7 10 16 19 22 23 24 25 22 22 23 27 29 30 32 33 31 27 23 21 19 17
3 3 3 5 4 7 14 10 11 14 14 10 7 5 4 5 7 8 8 9 9 7 13 16 20 23 26 29 30 26 22 24 25 32 31 33 33 31 27 25 20 18 16 12
2 2 6 2 2 4 6 5 7 8 7 6 4 5 1 4 4 4 5 6 9 11 14 18 22 24 28 27 27 25 19 21 28 35 33 30 26 26 22 21 17 12 8 9
1 1 3 2 2 3 4 4 8 7 7 4 3 0 2 3 4 5 7 9 11 13 16 18 19 25 27 23 25 24 23 27 30 30 29 26 25 23 20 14 12 9 6 7
4 3 7 7 2 3 2 5 4 4 4 2 2 1 2 4 6 8 10 13 14 15 16 14 15 18 19 21 20 23 27 30 27 25 26 23 21 18 16 13 10 10 8 7
3 3 7 3 3 2 3 4 2 3 4 4 7 6 5 5 6 6 8 11 12 14 15 14 15 21 19 20 23 25 28 27 26 24 21 19 17 15 12 12 12 9 8 7
7 6 5 3 4 4 2 3 3 2 4 7 8 6 7 6 6 6 9 10 10 11 14 14 13 22 21 18 24 25 26 24 21 19 15 15 15 13 12 9 8 6 4 3
2 5 8 8 5 2 1 2 2 1 5 8 8 9 7 6 7 7 11 10 11 12 12 12 15 19 24 23 23 22 20 19 17 16 15 12 11 10 9 8 6 4 3 5
5 7 7 3 3 2 2 2 2 2 5 7 12 10 10 7 7 8 11 12 12 13 14 15 18 19 19 19 20 22 19 19 17 16 15 14 12 9 8 7 6 5 4 4
4 5 4 3 3 2 2 2 2 4 5 8 10 12 11 9 9 11 12 13 13 13 16 15 20 19 18 20 20 22 20 17 15 14 12 11 9 9 7 5 4 4 4 5
4 5 3 1 2 2 4 3 1 5 5 8 8 14 15 11 13 14 14 14 14 14 17 19 19 20 18 17 19 19 19 16 13 11 10 8 7 5 4 2 3 4 5 6
8 4 3 4 4 5 3 4 5 6 7 9 11 13 14 13 17 15 13 15 19 20 18 18 19 18 16 17 17 16 14 12 11 10 9 7 6 5 4 4 4 6 7 8
6 1 2 3 6 5 4 4 5 5 5 6 13 15 17 13 12 14 17 21 21 20 20 22 21 18 17 17 17 16 14 13 11 10 8 6 5 5 4 4 5 7 9 10
6 1 3 2 5 5 5 5 5 5 5 5 9 13 15 17 16 16 19 23 22 16 21 23 20 18 18 18 17 15 14 13 11 10 8 6 5 4 4 6 6 7 9 12
6 5 3 3 6 6 6 5 6 7 6 7 11 17 19 18 17 17 18 18 22 24 23 23 22 19 18 17 16 16 15 12 10 8 6 5 4 5 5 6 6 7 9 11
8 9 7 5 6 7 6 6 8 11 9 14 17 19 19 18 13 16 19 24 26 24 22 22 21 19 17 16 15 14 13 11 8 6 5 4 4 4 4 5 6 9 11 11
6 7 7 6 6 8 8 8 12 14 16 18 18 15 17 17 19 20 23 22 22 22 22 22 20 18 17 15 13 12 10 9 7 5 4 3 2 3 5 6 7 9 10 11
8 7 2 4 9 11 8 14 16 16 16 18 17 17 15 17 22 23 22 19 19 21 26 23 20 18 15 14 12 10 8 7 5 4 2 1 2 4 5 6 7 9 10 11
9 6 3 4 5 10 12 15 16 16 19 20 20 17 18 20 23 26 22 15 19 25 23 22 19 17 15 13 11 9 7 5 4 2 1 2 3 4 5 7 8 9 11 13
8 7 3 4 6 7 11 14 14 16 17 17 18 21 22 20 23 20 20 23 27 25 24 21 18 15 13 12 9 7 5 4 2 1 2 3 3 5 7 9 9 10 12 13
10 8 3 2 5 8 12 14 17 19 18 18 18 19 20 19 22 20 10 23 27 24 22 20 17 15 12 11 8 6 4 3 2 3 3 4 5 7 9 10 10 12 13 13
10 10 5 1 8 12 6 11 16 16 17 21 23 25 26 22 18 15 17 29 25 24 21 19 17 15 12 10 7 5 4 3 4 4 5 5 7 8 9 11 12 12 13 14
13 11 6 3 5 4 9 14 14 15 16 17 20 23 24 24 18 20 22 28 23 24 21 18 16 14 11 9 7 5 4 4 5 6 7 8 8 9 10 11 12 14 15 17
11 9 7 4 5 7 12 16 11 13 16 15 17 22 22 22 19 23 27 28 25 23 22 19 17 13 11 9 7 5 5 5 6 8 9 9 11 11 11 12 13 15 17 18
14 10 9 5 4 7 12 15 14 13 16 19 17 24 24 24 24 26 29 28 25 24 22 19 15 12 10 8 6 6 6 7 8 9 10 10 11 12 12 13 15 16 17 17

GFSNGP_925_spd_057.txt.gz
Wind_Speed
3 4 2 5 4 8 11 9 6 3 6 11 12 14 17 3 6 10 10 11 12 9 5 8 10 18 15 17 12 10 12 14 15 16 18 22 22 26 28 29 31 30 32 29
3 4 6 5 7 8 9 10 12 19 22 24 19 13 5 3 8 9 10 13 10 9 7 8 12 16 16 17 16 20 23 21 21 22 24 26 29 29 32 34 33 32 29 26
4 4 3 5 8 13 7 5 14 12 20 13 9 8 4 3 5 8 9 9 9 8 7 9 11 13 15 17 21 23 26 25 23 23 26 26 29 31 32 33 31 27 23 18
2 4 2 6 3 6 14 9 14 14 14 14 6 3 2 3 4 5 6 5 5 5 8 9 9 11 13 15 21 25 24 24 25 25 25 28 32 33 30 28 25 24 19 15
1 2 6 1 3 5 6 5 11 15 13 3 4 1 2 5 4 2 3 5 6 7 9 10 8 9 12 14 15 18 24 27 26 25 27 29 32 30 27 25 21 20 15 10
1 1 3 2 1 2 4 3 5 8 7 1 1 3 1 3 3 4 8 7 7 8 11 12 11 11 13 12 13 15 17 20 24 28 29 28 30 27 23 19 18 17 11 9
5 3 6 7 6 2 2 3 4 2 5 3 3 1 5 6 4 6 8 10 12 13 13 12 13 14 14 16 18 20 23 27 28 27 26 26 25 20 18 17 16 13 11 10
3 3 6 3 1 3 3 2 3 3 2 3 3 6 7 6 6 6 7 9 9 12 14 12 12 17 16 18 20 23 25 26 24 22 21 21 20 17 15 15 15 13 12 10
7 5 5 4 5 5 3 3 3 3 3 5 6 5 7 6 6 5 8 8 8 10 11 10 10 16 16 17 22 24 23 21 19 19 18 15 15 14 13 11 10 9 7 6
1 4 11 10 6 4 3 3 2 3 4 6 6 8 7 6 7 6 9 8 9 11 10 11 15 18 20 20 20 20 20 18 17 17 15 13 12 11 12 10 9 7 6 5
4 7 9 7 5 3 3 1 2 3 4 7 8 8 8 6 6 8 9 10 10 10 11 12 17 18 18 18 18 17 17 17 16 15 14 14 13 11 10 10 8 7 5 4
5 4 3 7 2 1 4 3 5 4 3 5 8 9 9 7 10 13 13 14 13 14 14 14 16 16 16 16 16 19 18 15 14 13 12 11 11 12 10 9 7 5 5 6
4 4 7 9 4 3 3 4 3 5 5 7 6 10 12 6 12 14 14 15 13 13 16 16 16 16 14 14 15 16 16 14 12 11 10 9 8 7 6 5 5 6 6 5
3 5 5 3 4 4 3 4 4 3 4 7 10 12 14 12 14 13 13 16 19 19 18 16 15 14 12 13 14 14 13 11 10 9 8 7 6 6 4 4 3 4 4 6
8 5 5 3 2 3 2 4 4 4 4 5 10 12 14 13 11 11 17 18 19 18 18 17 16 14 14 14 14 13 12 11 9 8 7 5 5 4 3 3 3 4 6 7
11 8 5 5 5 4 4 5 5 5 5 4 7 11 13 15 15 14 16 19 19 15 19 20 17 16 15 15 14 12 10 9 8 6 5 4 3 2 2 2 3 5 7 10
7 7 3 5 5 4 7 5 5 6 6 6 9 15 17 16 15 14 15 19 19 21 21 21 20 17 16 14 13 12 11 9 7 6 4 3 2 1 1 3 4 5 7 8
7 10 11 12 10 5 5 6 6 10 7 12 15 16 15 15 12 15 17 19 20 20 20 20 19 18 16 13 12 12 11 9 7 5 4 3 2 0 2 3 5 6 8 8
9 8 9 9 10 6 6 7 11 12 15 17 16 13 14 14 17 18 22 20 20 19 21 20 19 17 15 14 12 12 11 9 7 6 4 3 2 2 3 4 5 7 8 9
10 12 9 4 1 5 6 12 15 13 14 16 16 15 14 15 18 19 21 17 19 19 24 21 19 17 16 14 13 12 10 9 7 6 4 3 2 3 3 4 6 7 8 9
10 11 8 3 4 7 11 14 14 13 14 16 15 14 15 17 21 22 19 14 19 20 24 22 20 18 16 15 14 12 10 9 7 6 5 4 4 4 5 6 7 8 9 10
10 9 8 6 3 5 8 11 13 14 15 15 14 16 17 15 17 17 16 18 24 24 25 22 20 18 17 15 14 12 10 8 7 6 5 5 5 5 7 7 8 9 10 11
9 12 10 8 4 2 6 8 10 15 17 18 19 21 20 19 22 17 9 19 26 26 25 23 20 18 16 15 13 11 9 8 7 6 5 5 5 7 9 10 11 11 12 13
11 13 13 9 2 2 3 5 8 10 12 15 18 21 24 20 18 18 16 23 27 26 25 23 20 17 16 14 12 10 9 7 7 6 6 7 8 9 10 12 13 12 13 14
13 12 11 10 5 3 2 7 9 11 12 14 15 19 22 23 18 23 20 25 26 26 24 21 18 17 15 13 11 9 8 7 7 7 8 9 10 11 12 13 14 14 15 17
13 11 12 9 6 6 4 9 9 11 12 11 15 19 21 21 17 22 22 26 27 25 24 21 20 18 14 12 10 9 8 8 8 9 10 11 12 12 13 13 14 15 17 18
9 12 14 13 10 8 5 7 9 11 13 14 14 19 21 22 21 23 23 28 27 25 25 23 21 17 14 12 10 9 8 9 9 10 11 11 12 12 13 15 16 17 17 17

GFSNGP_925_spd_060.txt.gz
Wind_Speed
4 2 3 4 4 8 6 5 5 3 6 8 9 12 12 8 3 5 5 5 6 8 6 7 8 12 13 13 13 10 12 15 12 13 14 17 20 20 21 22 26 29 33 32
3 2 6 4 7 8 9 7 9 9 18 18 16 10 7 2 4 5 4 7 8 6 5 6 13 13 14 15 12 12 17 17 18 20 22 22 23 24 25 26 28 31 32 32
3 4 3 4 7 11 6 5 8 7 11 8 9 8 4 3 2 4 5 6 6 6 5 11 11 11 13 13 10 13 16 16 18 21 24 25 24 25 25 28 34 32 29 27
2 4 2 4 1 6 12 4 11 9 11 12 6 3 2 2 2 3 5 6 5 5 7 8 8 10 9 10 11 13 14 13 17 21 25 26 27 28 29 29 30 28 25 21
1 2 6 0 2 5 5 1 9 12 12 12 2 2 2 2 3 3 4 4 6 7 8 7 9 9 11 13 13 14 12 13 12 20 24 27 27 26 25 26 26 23 22 18
0 1 2 2 2 2 1 2 2 6 9 5 2 3 1 2 2 5 7 6 7 6 8 10 9 9 13 12 14 14 12 14 16 20 25 26 25 24 22 21 22 20 17 14
1 2 6 6 5 1 2 3 4 1 4 4 4 1 4 5 5 6 5 6 8 8 7 7 9 9 13 13 14 14 15 17 19 22 25 24 23 20 19 18 18 17 15 13
3 3 6 4 0 2 2 3 4 3 3 1 5 7 6 6 6 5 5 5 7 6 8 8 10 15 15 13 14 18 19 21 22 22 20 19 19 17 16 16 16 16 14 12
6 5 4 2 4 5 3 6 4 2 2 3 6 5 8 6 7 5 7 7 7 9 9 8 8 13 16 14 17 20 21 20 18 17 16 14 15 14 14 11 11 10 9 8
1 3 7 9 6 4 3 4 3 2 1 5 6 8 7 8 7 7 8 8 9 9 10 12 13 14 16 16 19 18 18 18 16 16 15 13 13 11 11 9 9 8 7 7
4 6 6 2 2 2 2 4 4 3 2 5 7 8 8 8 8 10 10 9 9 11 10 12 16 16 16 15 15 18 18 16 15 14 14 14 14 11 11 10 7 7 7 5
5 6 3 5 3 1 5 4 5 3 2 4 6 10 9 8 11 12 13 14 12 13 14 15 16 15 15 13 14 17 17 15 14 14 13 13 14 15 11 10 8 7 6 6
4 3 5 8 8 3 3 5 4 4 5 6 7 13 13 7 13 15 13 18 14 16 17 17 18 16 14 13 13 13 14 13 11 10 9 8 7 6 6 6 6 6 6 5
3 5 4 2 3 6 3 1 1 0 3 6 11 13 15 14 17 15 15 18 19 19 19 18 17 15 14 12 13 12 11 10 9 8 7 7 6 5 4 3 3 4 4 6
5 4 6 7 5 3 0 1 2 3 2 4 11 12 16 14 14 14 18 20 19 20 20 20 18 16 14 15 14 13 11 10 9 9 7 7 6 4 4 3 3 4 6 5
12 10 8 7 6 4 4 4 5 4 4 4 6 10 14 15 17 19 19 20 21 18 21 20 19 17 16 16 15 13 12 10 9 8 6 5 3 3 2 2 3 5 7 8
8 7 6 6 6 5 6 5 6 5 5 5 9 14 17 17 16 16 17 20 18 19 23 22 20 18 17 16 15 14 12 10 8 6 4 3 2 1 1 3 4 5 7 8
7 10 10 10 9 9 8 7 6 8 7 12 14 15 14 16 12 16 18 21 17 16 19 20 20 19 18 16 14 12 11 9 7 5 3 2 1 0 2 3 5 6 8 8
9 9 9 10 10 9 9 7 10 12 12 16 15 13 14 14 17 18 22 20 19 16 20 21 21 20 18 15 13 11 10 9 7 5 3 3 2 2 3 4 6 7 8 9
9 12 14 8 8 4 4 6 12 12 14 15 14 13 12 13 18 20 21 16 18 16 23 23 21 19 17 15 13 11 10 8 7 5 4 4 3 4 5 6 8 9 9 10
8 10 10 9 5 5 4 8 11 10 12 14 13 12 12 15 18 20 16 12 19 18 24 24 22 19 17 15 13 11 10 8 7 6 6 5 5 6 7 8 9 10 11 12
8 7 10 11 7 4 2 4 6 10 12 12 12 14 14 13 17 16 14 14 20 21 26 23 21 18 16 15 12 12 10 8 7 7 6 6 6 7 9 10 11 11 12 13
10 11 10 10 8 4 2 2 5 8 11 12 13 14 15 16 19 15 7 16 22 23 25 22 20 18 16 14 13 12 10 8 8 7 7 7 7 9 10 11 12 13 14 15
11 9 10 12 5 5 3 1 2 4 6 9 11 14 16 16 16 17 14 18 24 24 25 22 21 18 17 14 14 12 10 9 8 8 8 8 9 10 12 12 14 14 14 16
11 14 14 12 8 6 7 2 2 3 5 6 8 10 13 15 16 18 16 19 24 25 25 23 21 18 18 15 14 12 10 9 9 9 9 9 10 12 13 14 15 15 16 17
8 7 11 12 9 12 9 5 3 4 6 7 9 12 14 15 16 14 20 20 24 24 25 24 22 21 19 15 13 12 10 9 9 9 9 10 11 13 14 14 15 15 17 19
10 11 12 12 13 14 12 8 6 7 8 9 10 13 16 17 17 18 22 22 25 24 25 25 24 23 18 16 14 12 10 9 9 9 10 11 12 13 13 14 16 17 18 19

GFSNGP_925_spd_063.txt.gz
Wind_Speed
1 2 3 4 4 7 5 5 5 2 5 6 7 7 7 4 2 4 6 6 7 7 6 11 10 10 15 17 16 15 16 15 14 14 14 14 14 15 16 18 21 21 24 26
3 1 4 3 4 7 8 3 7 2 13 13 13 7 4 2 2 3 4 5 5 4 6 7 6 10 12 14 17 16 16 16 14 16 16 15 15 16 17 21 23 26 27 26
2 2 1 4 9 11 5 4 8 7 9 6 5 3 2 1 1 2 2 3 3 2 5 5 8 6 10 11 14 16 17 18 14 13 15 16 17 18 23 25 26 28 27 26
1 2 2 3 1 7 12 4 11 6 9 9 7 1 3 3 2 2 1 2 3 3 5 6 7 8 11 12 15 16 16 15 14 14 15 19 21 24 27 26 25 24 25 26
1 2 5 1 2 5 5 1 9 13 13 10 4 3 2 4 4 3 3 3 4 6 5 7 6 7 12 13 13 16 15 15 14 16 20 22 24 24 24 24 24 23 22 22
1 1 2 2 0 2 2 3 3 7 7 4 2 2 1 5 5 5 5 5 6 6 7 9 7 8 13 14 16 17 15 15 15 19 22 23 22 22 24 24 24 22 20 16
2 2 5 5 4 1 1 3 2 1 4 3 3 1 6 8 6 6 6 8 8 8 10 7 6 9 15 15 15 14 16 18 18 19 21 21 22 21 20 21 20 18 17 16
2 0 5 4 1 1 1 3 3 3 3 2 4 7 8 8 8 6 7 8 7 10 10 8 10 13 15 16 13 16 19 20 21 20 18 18 19 18 17 18 18 16 14 13
6 5 4 3 3 1 1 5 4 1 2 2 6 6 9 8 7 6 7 7 8 9 10 7 8 13 16 13 16 20 21 19 17 17 15 14 16 16 15 13 12 10 9 9
1 1 6 6 5 4 2 3 2 2 2 5 5 9 8 8 8 7 8 8 8 9 9 11 13 15 17 17 17 17 18 17 16 16 15 14 13 12 11 10 9 7 6 7
4 6 5 1 3 3 2 2 2 2 2 4 6 7 9 9 9 10 10 10 10 11 12 12 15 16 16 16 15 18 17 15 14 14 14 15 15 12 10 9 6 6 6 4
5 6 4 5 4 4 5 5 3 3 2 2 5 9 10 9 13 14 13 13 12 12 14 14 15 15 14 14 16 18 17 15 13 13 13 12 14 15 11 9 8 7 5 5
2 1 5 7 6 4 5 4 3 4 4 5 5 10 13 9 17 17 17 14 15 15 17 19 18 17 15 15 16 16 17 15 13 12 11 11 10 8 8 6 6 6 5 5
2 4 2 1 1 7 5 3 1 1 2 5 10 13 13 13 18 18 19 22 21 20 20 19 19 18 16 16 15 14 13 12 11 11 9 8 7 5 4 3 2 2 3 5
2 2 4 8 7 6 2 2 2 3 2 3 10 12 14 14 14 18 21 26 24 22 22 21 20 18 17 17 16 15 14 12 11 10 9 8 7 5 3 2 2 3 3 3
8 8 7 4 5 5 3 4 4 4 4 4 7 12 16 17 17 18 21 26 24 20 25 24 22 20 18 18 17 14 12 12 11 10 9 7 5 3 2 1 1 3 4 5
6 5 6 6 6 6 6 6 6 5 4 6 11 15 16 15 16 17 19 23 22 25 27 26 24 20 19 19 17 16 15 13 12 10 8 6 4 3 1 1 2 3 5 5
6 8 8 9 10 9 9 9 9 9 8 12 14 16 15 16 13 17 20 23 22 19 23 24 22 22 22 20 18 17 16 14 12 9 8 6 4 3 2 2 3 5 6 6
7 7 8 8 12 9 9 9 12 14 12 14 16 15 16 15 15 18 22 21 19 18 24 23 23 23 22 21 19 18 16 14 12 9 7 5 5 3 4 4 5 5 7 8
6 9 11 11 10 6 6 10 9 10 12 15 14 13 11 13 18 20 22 20 20 18 26 24 24 24 22 21 19 18 16 13 11 9 7 6 6 5 6 6 6 7 8 9
7 9 9 10 9 9 8 3 3 7 10 13 13 12 12 15 17 19 16 13 22 22 25 27 26 25 23 21 20 18 15 13 11 9 8 8 7 7 7 7 8 9 10 10
8 6 9 11 9 8 9 5 1 5 9 10 9 12 14 13 16 17 17 15 23 22 24 27 27 25 24 22 19 17 14 12 10 9 9 9 8 8 8 9 10 10 11 12
8 8 9 11 10 9 8 6 3 1 5 8 10 12 13 14 17 14 6 17 21 24 25 29 26 24 23 20 18 16 14 12 10 10 9 9 9 9 9 10 11 11 13 14
9 9 10 13 10 9 6 11 6 2 2 5 8 11 13 13 13 15 10 17 20 24 25 27 26 24 24 20 18 16 14 12 11 10 10 10 9 9 10 11 12 12 14 15
9 9 11 12 8 7 11 8 5 3 1 2 5 7 10 11 12 16 14 16 20 24 24 25 25 24 23 20 19 17 15 13 11 11 10 10 10 11 11 12 13 14 15 15
9 8 10 9 6 10 11 9 6 5 3 3 4 6 8 9 9 9 16 17 21 24 24 26 25 26 23 21 19 17 15 14 13 11 11 10 10 11 12 12 13 13 15 17
8 8 11 11 12 13 12 12 10 9 6 5 6 6 8 11 12 11 14 18 21 23 25 28 27 27 24 21 19 17 15 13 13 12 11 10 11 11 12 13 13 14 16 17

GFSNGP_925_spd_066.txt.gz
Wind_Speed
3 2 2 3 5 10 6 3 4 2 4 6 3 7 5 4 2 1 2 2 4 5 4 7 6 7 9 11 11 9 10 11 11 10 11 12 13 13 13 12 13 13 14 15
2 2 5 5 7 10 12 11 11 8 14 10 8 4 4 1 1 1 2 3 4 5 3 7 5 6 8 7 8 9 8 11 11 12 11 13 15 15 18 18 17 17 21 22
0 2 3 5 9 12 8 8 11 9 7 3 7 5 4 3 2 2 2 2 3 3 4 5 3 5 4 6 6 6 8 11 12 13 14 13 14 16 20 21 21 24 25 25
0 2 2 3 2 3 11 5 12 8 10 10 9 7 2 2 4 3 3 3 4 4 5 4 4 5 4 5 6 8 11 13 12 14 15 15 18 22 23 22 23 24 23 22
2 2 4 2 3 4 4 2 11 13 13 11 7 3 4 4 2 3 3 4 6 6 6 7 6 5 5 5 6 9 12 13 12 14 17 19 22 23 23 24 24 25 22 20
1 2 2 2 2 2 2 2 2 8 7 5 0 5 1 8 6 5 5 5 7 7 7 6 5 7 8 8 8 11 13 15 16 17 19 20 19 21 22 23 23 22 20 16
3 3 3 2 2 1 3 5 1 3 6 5 4 2 7 8 6 7 7 8 8 7 6 6 7 10 12 11 13 14 17 19 18 18 19 19 20 19 19 17 16 15 13 11
3 3 4 4 3 3 3 1 4 5 4 4 1 6 8 7 8 8 9 8 7 7 7 8 9 12 15 14 14 17 20 21 20 18 18 17 17 14 13 12 12 10 9 8
5 2 2 2 1 1 3 3 2 3 2 3 6 7 9 8 8 7 9 9 9 9 10 8 9 12 15 14 17 20 21 17 15 13 12 11 11 11 10 8 7 6 5 5
2 3 8 7 6 4 1 1 2 2 3 3 5 9 9 9 8 8 10 10 10 10 10 11 11 13 16 17 15 13 14 13 12 12 11 10 8 8 7 5 5 5 4 4
5 9 9 4 5 1 4 4 2 2 4 4 6 10 11 10 10 11 12 12 11 12 12 13 15 15 13 12 12 13 13 12 11 10 10 10 8 6 6 5 4 4 4 3
5 4 3 3 1 4 6 8 6 3 4 4 7 10 11 10 13 14 15 15 14 15 15 15 16 15 13 11 12 13 13 11 9 9 8 8 8 9 10 9 7 6 4 2
1 1 4 8 7 3 5 5 4 5 5 4 7 10 14 9 14 15 17 17 17 18 17 17 16 14 12 12 12 11 11 11 9 8 7 7 6 6 6 4 5 4 2 2
1 2 5 2 1 8 7 6 4 3 3 5 7 11 13 14 16 16 17 19 18 18 18 17 16 15 14 16 15 13 12 12 9 8 7 6 5 4 4 3 3 2 2 0
4 2 5 8 8 7 5 3 4 5 4 5 8 12 15 15 16 17 15 16 20 19 18 18 16 15 17 17 16 15 13 11 10 8 7 6 5 4 3 2 2 2 2 3
3 5 7 7 5 7 6 5 7 6 5 5 8 12 15 15 15 18 20 21 20 21 21 20 19 19 21 20 18 15 12 12 11 9 8 7 5 4 4 3 3 3 3 4
3 4 3 8 7 8 10 9 9 8 4 6 10 11 13 14 15 17 21 25 23 19 20 21 21 23 23 22 21 16 13 14 12 10 8 7 6 5 4 4 4 4 4 5
5 8 8 9 10 11 12 12 12 13 9 12 11 12 14 15 12 17 19 23 23 22 25 25 24 25 24 23 21 17 15 13 13 11 9 8 6 6 5 4 4 5 5 6
5 6 8 9 11 10 9 10 15 15 14 13 12 15 17 17 16 17 20 22 22 20 26 26 24 25 24 24 23 20 17 16 15 12 10 8 7 6 5 5 5 5 6 6
5 7 8 9 10 7 8 10 12 12 10 10 11 11 11 13 16 18 21 22 24 22 24 28 27 24 23 24 23 21 19 17 15 13 11 9 8 7 6 6 6 6 7 8
6 7 7 8 8 9 8 9 8 5 2 6 9 10 10 11 16 17 16 13 20 26 25 30 29 27 24 25 24 22 20 18 16 14 13 10 9 8 7 7 8 8 9 9
6 7 9 9 7 8 10 9 7 4 0 2 5 7 9 10 14 15 17 16 20 25 25 31 31 31 27 26 25 23 22 20 18 15 14 12 11 9 9 8 9 9 10 10
6 6 7 9 9 8 9 10 9 6 3 2 4 7 9 11 13 10 6 15 17 26 27 30 32 31 27 26 26 25 23 21 19 17 14 13 12 11 10 9 10 11 11 12
6 6 8 7 6 7 7 13 10 6 4 3 3 5 8 8 10 15 12 10 19 25 28 29 30 28 25 28 26 25 24 22 20 17 15 13 12 12 12 11 12 12 13 14
5 6 7 8 7 7 9 11 9 7 5 4 3 3 5 7 8 8 14 10 18 24 25 26 26 26 28 28 27 26 24 22 19 17 15 14 13 12 12 13 13 13 13 14
5 5 5 5 4 6 7 9 8 8 7 6 5 5 5 7 8 7 12 13 17 22 24 25 28 29 31 29 27 25 23 21 19 17 15 14 13 12 13 13 13 13 14 16
3 5 6 5 5 7 8 9 8 9 9 8 7 7 7 8 9 10 8 12 15 19 21 23 24 26 30 28 26 24 22 20 18 16 15 14 13 12 13 13 14 15 16 17

GFSNGP_925_spd_069.txt.gz
Wind_Speed
3 3 0 3 5 10 5 5 2 5 2 11 12 9 5 2 4 5 4 4 3 3 3 2 3 5 6 7 8 8 8 9 9 10 10 11 12 13 13 15 14 14 14 14
1 1 3 5 6 8 12 14 12 8 7 4 7 4 4 3 4 4 5 5 5 4 3 1 4 5 4 5 7 7 7 10 10 9 9 10 11 14 15 16 18 19 23 24
0 2 4 7 12 12 9 8 13 10 11 6 4 2 3 4 5 6 7 6 5 6 5 3 3 4 4 5 6 7 8 9 8 7 9 12 11 13 16 17 19 23 23 23
2 2 3 3 1 4 12 6 11 8 6 5 4 5 4 3 6 7 6 6 6 6 6 5 4 5 5 5 6 7 7 7 8 9 11 15 17 19 21 23 22 22 21 21
3 4 5 4 4 4 7 3 14 12 9 4 2 2 6 5 3 6 6 5 5 6 6 6 4 4 5 5 6 7 7 7 9 12 16 19 21 21 20 22 21 20 19 17
1 2 2 4 3 2 2 3 5 4 2 2 1 4 3 8 7 7 7 7 8 7 7 6 4 5 6 6 7 8 8 10 11 15 17 21 19 20 19 19 19 17 17 13
5 3 4 6 4 1 3 3 5 3 4 3 4 2 6 8 6 6 7 8 9 7 7 6 5 7 8 8 11 11 13 14 15 16 18 20 20 18 16 14 13 12 12 10
4 4 4 6 4 2 3 3 5 5 4 3 3 5 7 7 7 7 8 9 9 8 7 6 7 9 12 13 14 16 17 18 18 16 13 15 15 11 10 10 9 8 7 7
5 2 4 5 3 4 3 1 2 3 3 3 2 5 8 7 8 8 9 9 8 10 10 8 9 11 15 15 17 18 17 14 13 12 11 10 9 8 7 6 5 5 4 4
2 4 7 6 2 3 1 1 2 1 3 1 4 6 8 8 7 7 9 10 11 11 10 11 11 12 16 18 17 14 13 12 11 11 10 9 7 5 5 4 4 3 3 2
7 9 5 8 5 3 3 3 2 4 4 4 4 6 8 8 9 10 11 12 11 12 12 14 14 15 16 15 14 13 12 11 10 10 9 9 7 5 5 3 3 2 2 1
3 4 4 3 5 2 4 4 3 4 6 4 4 6 9 8 11 12 13 14 14 14 15 16 15 15 14 13 13 13 12 11 9 9 8 8 9 8 8 7 5 4 3 2
8 3 2 4 3 1 3 5 5 5 5 4 5 7 11 8 13 13 14 16 17 17 17 18 17 17 16 14 14 13 12 12 11 8 8 8 7 7 6 3 2 1 0 1
2 2 5 6 1 4 6 6 5 6 6 5 6 8 11 11 13 15 16 18 17 18 18 18 18 17 16 16 15 14 13 12 11 8 8 7 6 5 4 4 4 3 4 3
6 3 3 5 7 6 6 5 6 6 6 5 6 8 11 11 14 16 17 17 17 18 18 19 18 18 17 17 18 16 15 14 11 10 8 7 6 5 4 4 3 3 3 5
4 4 4 6 7 6 6 7 8 7 5 6 6 8 11 13 13 15 18 21 21 20 21 20 19 20 20 20 19 17 14 13 12 11 10 9 7 6 5 5 5 4 5 4
2 4 3 5 6 7 9 9 9 9 8 6 8 10 9 11 12 15 18 24 22 21 22 20 19 21 23 22 21 18 15 15 12 11 11 10 8 8 7 6 6 6 6 6
3 5 6 8 8 9 10 10 11 13 11 13 11 11 12 12 11 15 18 20 20 21 25 25 20 22 24 23 21 19 17 15 15 13 11 11 10 8 8 7 7 6 6 6
3 5 6 7 9 8 9 9 12 14 17 15 14 12 14 16 16 15 18 20 20 20 27 28 25 23 24 24 23 20 18 16 15 14 13 10 10 10 10 9 8 8 7 8
5 6 7 8 8 8 8 10 12 13 14 13 14 12 12 12 13 16 19 20 24 23 21 30 29 26 25 23 23 22 20 18 16 15 14 13 12 12 11 10 10 9 9 9
5 6 6 7 7 8 7 9 10 10 9 6 7 8 8 9 11 13 13 10 16 21 21 25 31 31 30 24 22 23 21 20 18 17 16 15 14 13 13 12 11 11 11 11
4 5 6 8 7 7 9 9 8 8 7 5 3 2 4 6 9 11 13 12 13 18 23 25 30 32 33 26 24 26 23 22 21 18 17 16 16 15 15 13 12 11 12 13
3 4 6 7 7 8 8 9 10 8 7 5 4 4 4 5 9 8 4 12 14 16 22 26 28 31 31 27 26 26 25 24 23 21 19 18 17 16 15 14 12 12 12 13
4 4 5 7 6 6 6 11 12 10 8 7 5 4 4 5 7 10 11 8 11 16 21 23 25 29 30 30 28 25 26 25 24 22 19 17 17 16 15 14 14 13 14 14
4 5 5 7 6 6 9 10 9 8 9 8 8 6 5 5 6 5 7 11 10 14 20 21 22 25 30 28 27 26 27 27 26 23 21 19 18 16 15 15 15 14 15 15
3 4 5 5 5 7 7 9 9 9 11 9 8 8 7 6 5 6 6 6 6 13 17 17 21 25 30 30 29 28 28 26 24 22 21 19 17 16 15 15 15 15 16 16
3 4 4 3 3 6 7 8 8 9 10 10 11 10 9 7 7 7 7 6 7 10 13 14 19 24 25 26 26 27 26 25 23 22 20 19 17 16 15 15 15 16 16 17

GFSNGP_925_spd_072.txt.gz
Wind_Speed
4 4 3 4 3 7 4 5 3 5 2 8 10 8 8 8 8 8 7 7 5 5 6 9 7 7 7 8 9 9 10 10 10 11 11 14 15 16 16 16 17 17 18 17
2 0 2 3 5 6 7 7 7 5 5 4 7 6 5 6 8 6 6 7 6 5 6 7 8 7 7 8 9 9 11 10 10 11 11 14 14 16 16 18 19 21 24 23
1 1 4 5 10 9 6 6 9 7 6 1 4 5 5 5 7 6 7 6 6 7 6 7 7 7 7 8 8 10 10 10 10 10 11 13 14 14 16 17 21 24 23 22
1 1 2 3 4 2 8 6 7 6 4 5 3 3 3 4 5 7 7 5 6 8 9 7 8 8 8 8 9 11 11 10 11 10 13 16 16 16 18 20 21 23 22 21
1 3 1 1 2 3 5 5 8 6 3 5 5 2 3 5 4 6 6 6 8 12 12 8 8 7 9 9 10 10 10 11 11 14 16 17 18 18 19 20 19 20 18 17
2 1 2 3 3 1 2 2 3 7 6 4 4 1 2 6 5 5 7 11 13 12 10 9 7 7 10 10 11 12 10 12 15 16 17 17 18 17 18 19 18 16 16 14
4 2 4 5 5 1 2 3 5 2 2 4 3 1 5 7 5 7 10 13 12 10 9 10 8 9 11 11 11 12 13 15 16 17 17 17 17 17 16 18 17 14 14 12
4 2 5 4 2 1 4 4 5 4 4 4 6 6 6 6 5 6 10 12 11 10 10 9 8 11 12 15 15 16 16 17 17 17 16 16 15 13 13 12 12 10 9 8
5 3 2 5 5 4 3 3 2 4 4 3 6 4 6 5 6 6 12 13 12 11 10 8 8 11 15 16 18 18 18 18 14 15 14 12 11 10 8 7 8 7 6 6
3 2 6 6 4 5 4 5 3 3 2 4 3 7 7 7 6 5 12 13 13 13 11 9 10 12 15 19 19 19 16 15 13 12 12 11 9 7 7 6 6 5 4 4
4 5 3 4 5 8 5 3 3 2 2 3 4 7 7 7 7 8 11 14 14 16 12 11 14 15 17 21 19 16 15 15 14 13 12 11 9 7 6 5 4 6 4 2
2 2 4 5 7 7 4 3 3 2 4 4 3 5 7 6 11 12 14 17 14 12 14 14 15 18 20 18 17 17 17 16 16 14 13 11 10 8 5 5 4 4 3 2
2 4 4 5 6 5 3 3 2 3 4 4 3 3 9 5 13 13 14 19 16 15 15 17 17 18 19 19 17 18 18 17 16 15 14 13 12 10 9 4 2 1 2 2
5 4 2 1 3 4 3 3 3 4 4 4 4 4 10 10 13 14 15 17 18 19 18 20 20 19 23 20 19 19 19 18 18 16 14 13 12 10 8 6 5 5 4 4
6 5 3 2 3 3 3 3 3 4 3 2 3 4 7 9 10 15 16 19 19 21 22 22 21 22 24 23 23 22 20 19 17 15 14 13 11 9 8 7 6 4 5 6
5 5 3 3 3 4 4 4 4 5 2 2 4 5 7 10 16 18 20 24 22 21 24 25 26 26 26 26 24 23 20 19 17 16 15 13 11 10 9 8 7 7 7 7
2 1 1 2 3 4 4 5 5 5 5 5 7 10 9 9 11 17 20 23 22 20 23 26 26 27 29 27 26 25 22 20 18 17 15 14 12 11 10 9 9 9 9 8
2 1 2 4 4 5 5 5 7 9 8 12 13 9 10 11 8 15 21 20 22 22 26 28 28 29 29 28 28 26 24 22 20 18 16 15 14 12 11 10 10 10 10 9
5 4 5 5 6 6 6 6 8 10 13 14 14 12 14 16 17 17 19 20 20 20 27 29 29 29 29 29 28 27 25 23 22 19 18 15 14 13 13 12 12 11 11 11
5 5 5 6 6 6 6 8 10 11 12 12 12 12 11 15 14 15 19 21 25 20 21 29 30 30 30 30 29 27 25 24 23 21 19 17 16 15 14 13 13 13 12 12
4 5 5 6 5 6 7 9 10 10 12 11 9 8 8 7 10 13 15 9 16 20 18 21 32 33 32 31 29 28 26 25 23 22 20 19 18 16 15 15 14 14 14 14
2 3 5 6 6 6 8 9 9 11 10 10 9 8 6 4 5 9 12 13 11 13 19 22 26 32 34 31 32 30 27 26 25 22 21 20 19 18 18 17 17 17 16 16
3 5 6 6 7 7 9 9 11 10 11 11 10 8 6 6 6 6 4 8 12 13 15 20 24 26 31 32 34 33 31 27 27 24 23 21 20 19 18 18 17 17 17 17
3 4 6 9 9 7 5 12 13 11 11 12 10 9 8 7 7 7 9 9 8 10 17 18 19 22 27 31 32 32 31 27 28 23 23 21 20 19 19 18 18 17 17 17
3 5 4 7 6 6 9 12 12 11 12 11 12 11 9 6 5 7 8 8 9 9 13 15 15 18 28 29 30 32 31 28 28 25 24 22 21 19 19 18 18 17 17 16
2 3 5 5 4 7 8 10 9 11 12 11 12 14 12 10 9 8 7 6 6 6 10 12 13 19 27 27 28 29 30 29 25 22 24 23 21 20 19 18 17 17 16 16
3 3 3 3 2 7 8 9 9 10 13 12 12 14 15 12 10 9 8 7 6 5 7 8 11 16 24 25 25 27 27 26 23 21 23 22 21 20 18 18 16 15 15 15

GFSNGP_925_spd_075.txt.gz
Wind_Speed
2 4 4 5 4 7 4 4 5 1 3 11 12 10 9 8 7 8 8 7 7 7 7 11 11 9 8 7 9 9 10 11 12 12 12 12 14 14 14 15 16 15 15 15
2 3 3 3 6 7 5 4 4 4 4 7 10 6 6 9 9 9 8 8 7 7 10 12 13 10 9 8 9 10 12 13 11 12 11 11 12 13 14 16 18 19 20 17
2 2 0 5 9 9 5 5 6 5 7 2 6 9 7 8 8 9 8 7 8 8 9 13 12 12 11 10 10 11 13 13 11 9 11 11 12 14 16 19 20 20 20 19
2 2 1 5 1 8 9 7 8 4 4 4 5 4 5 5 8 8 8 8 7 10 13 13 11 12 13 12 12 13 13 12 10 10 12 14 17 18 18 19 18 18 18 19
3 2 4 2 3 5 7 6 7 7 5 3 4 4 0 2 1 6 6 6 11 17 16 13 13 14 15 13 13 13 12 11 11 14 17 18 19 18 18 18 16 15 15 16
2 1 3 2 2 1 3 3 5 8 7 6 4 2 4 4 4 6 9 13 16 17 16 15 14 14 14 14 13 12 11 13 14 16 18 18 17 17 17 16 17 15 15 14
2 2 5 1 3 3 3 3 2 5 5 6 4 3 3 6 4 8 12 16 17 16 15 14 12 13 14 14 13 13 15 17 16 16 18 18 17 16 17 17 15 13 12 11
3 3 5 4 2 2 3 3 4 3 2 3 5 6 5 6 6 8 11 14 13 13 13 11 11 13 13 13 15 16 16 18 18 17 17 17 17 16 15 13 12 11 10 8
6 4 4 5 2 3 3 4 3 4 3 5 6 5 6 5 6 8 12 14 14 15 13 11 11 13 15 17 18 19 19 18 19 17 15 15 15 14 12 10 9 8 7 6
3 1 5 6 2 2 2 3 4 3 4 4 4 6 7 7 7 7 13 15 17 16 15 13 10 12 15 19 20 21 20 19 17 17 16 13 12 11 10 10 9 7 7 6
3 5 2 4 4 5 5 4 3 1 1 3 4 6 7 7 8 11 15 18 18 18 16 13 13 15 18 21 23 19 19 19 17 15 15 14 12 11 10 8 7 8 7 6
4 2 3 1 4 4 5 4 3 2 4 3 3 5 6 6 11 13 14 18 18 20 17 16 16 16 20 23 22 22 20 18 18 18 17 15 14 11 7 6 5 5 4 4
4 3 3 6 5 2 4 3 2 2 3 4 4 3 7 5 13 15 15 19 20 19 18 18 18 18 21 24 20 20 22 20 19 19 19 17 14 13 12 7 6 5 4 3
7 6 3 1 4 4 4 2 1 3 4 4 4 3 7 8 12 15 16 21 21 20 19 20 20 21 24 25 23 20 21 21 21 20 19 17 16 14 11 10 8 7 6 4
5 3 5 6 4 4 3 2 3 3 4 4 4 3 4 8 9 16 18 20 20 20 21 22 22 23 28 28 23 22 22 23 22 20 19 18 17 15 12 12 10 7 7 6
5 6 5 4 3 2 1 4 3 3 4 4 5 6 7 8 15 15 18 21 20 19 23 24 24 27 30 30 27 25 24 23 23 23 20 19 18 16 15 13 11 10 9 8
4 2 2 3 3 2 2 1 2 2 3 5 8 11 10 9 8 14 17 22 24 21 25 28 28 29 31 32 32 30 28 25 24 24 23 22 20 18 16 14 13 12 10 9
5 4 4 3 2 3 3 2 4 5 4 7 11 14 13 10 7 12 18 21 23 23 26 28 27 29 30 32 32 32 30 29 28 27 25 22 21 19 17 16 14 13 11 10
7 5 5 4 4 4 4 4 6 8 9 10 11 12 15 17 18 16 15 21 20 18 24 28 29 29 32 34 34 32 32 32 30 28 25 23 20 20 19 17 16 14 12 12
6 5 4 4 5 5 5 6 9 9 9 9 11 11 10 13 16 16 15 20 25 20 22 23 29 31 33 35 35 34 34 33 31 30 27 25 23 22 20 18 17 16 14 14
5 5 6 6 6 7 7 8 9 9 11 10 9 9 11 13 9 11 11 8 17 19 20 18 24 33 35 35 35 35 32 31 30 29 29 27 25 23 22 20 19 17 16 15
2 2 3 4 4 5 7 7 10 10 11 10 10 10 10 9 7 6 9 12 12 11 14 20 23 28 33 34 34 33 29 27 26 27 28 28 26 24 23 21 20 18 17 16
2 3 4 5 6 7 5 9 11 10 11 12 12 11 9 10 9 6 4 5 8 10 13 16 20 23 27 27 32 34 34 33 31 29 26 29 27 23 23 22 20 18 17 16
0 2 3 6 5 5 5 11 12 10 11 10 11 11 11 11 11 5 6 9 11 10 12 16 16 17 20 27 29 30 31 32 32 32 30 26 24 23 22 20 20 18 17 16
1 2 2 5 4 4 7 10 9 10 12 12 11 12 11 11 6 12 12 10 10 10 12 12 13 14 18 25 27 29 29 31 32 32 31 26 26 22 24 21 20 18 17 16
2 3 4 4 3 5 7 8 8 9 11 11 12 13 15 13 11 10 10 10 9 7 8 9 10 12 15 22 26 25 25 27 28 29 30 29 25 21 23 21 19 18 17 15
4 4 4 4 3 6 7 7 7 9 11 11 13 14 14 13 12 11 11 10 10 9 8 7 7 10 14 19 22 21 21 22 24 26 26 25 22 20 21 20 19 17 15 15

GFSNGP_925_spd_078.txt.gz
Wind_Speed
2 5 4 5 7 10 8 6 5 3 7 7 10 9 10 9 8 8 8 8 8 7 7 13 12 10 9 8 8 6 7 8 9 9 10 10 11 11 12 13 14 13 13 13
4 1 1 2 6 8 6 5 3 4 6 6 6 3 6 8 9 9 8 9 9 8 11 13 15 13 11 10 9 8 9 10 9 8 7 8 9 9 12 13 15 15 16 17
3 1 1 5 10 9 5 5 7 6 7 2 11 10 10 8 10 11 9 9 9 10 13 16 17 15 13 12 11 11 10 10 8 7 8 8 9 11 14 15 16 18 19 19
2 2 2 5 1 7 9 6 8 3 4 3 7 6 5 4 8 8 8 8 7 10 15 17 17 15 14 12 12 12 11 9 7 8 9 10 12 15 15 16 18 18 18 18
3 3 5 3 3 4 6 7 8 8 5 1 4 4 1 1 2 6 7 6 12 19 19 18 18 18 17 15 14 13 12 9 9 10 13 15 16 16 16 17 17 17 15 14
2 2 4 2 1 1 4 4 4 8 7 6 5 3 4 4 3 4 7 12 16 19 19 19 19 20 19 17 15 14 13 11 13 14 16 17 17 17 16 16 18 16 16 13
2 1 6 4 2 3 1 4 1 6 6 6 5 3 2 6 3 5 8 13 16 18 18 18 18 18 16 16 15 14 13 15 16 16 17 17 17 18 18 16 16 15 13 11
3 3 5 4 2 3 3 1 2 3 4 5 4 5 4 5 6 6 9 13 15 16 15 15 16 16 16 16 15 14 16 17 17 17 18 17 17 18 16 15 13 12 10 8
6 5 4 5 3 2 3 3 2 3 2 4 5 4 5 5 6 6 11 12 14 15 15 14 14 15 16 16 17 17 19 19 19 18 17 17 18 17 14 12 11 9 7 6
1 2 4 4 1 2 1 2 3 3 3 4 4 5 5 5 6 6 11 12 15 16 16 14 14 14 15 18 20 20 20 20 20 19 18 17 15 13 12 11 9 8 8 8
3 5 1 2 3 4 4 5 5 3 2 1 2 4 5 5 6 9 12 14 18 18 17 17 15 13 14 20 21 21 20 21 22 20 18 17 14 13 11 9 10 10 10 10
4 4 3 3 4 5 5 4 4 3 2 3 2 4 5 5 10 13 14 16 16 17 18 18 16 15 17 21 23 21 19 23 23 21 18 17 15 12 9 8 7 9 8 8
4 3 3 5 4 3 5 4 3 2 1 3 4 3 3 4 11 14 15 17 17 20 21 19 18 17 19 23 24 21 21 24 23 21 20 18 17 16 14 8 8 8 8 7
3 6 3 3 4 4 5 3 3 2 2 2 4 5 3 6 7 13 16 20 19 19 20 21 19 20 21 26 25 23 25 24 24 22 21 20 19 17 15 14 13 12 11 9
3 4 1 6 6 5 3 2 2 3 3 4 5 5 5 4 7 13 16 16 18 19 21 21 21 21 22 26 27 27 26 26 24 23 22 21 20 18 17 16 15 12 10 12
6 6 6 5 4 3 3 4 2 2 3 3 6 8 9 8 10 11 12 16 17 16 21 23 23 24 25 27 31 29 26 26 24 24 23 22 21 21 21 20 18 16 15 15
5 4 4 3 3 2 2 1 1 2 2 4 7 9 11 12 11 10 13 17 22 22 24 26 27 24 27 31 32 32 29 27 26 25 26 25 24 25 24 22 21 19 18 15
6 6 5 4 2 2 2 3 4 5 4 7 10 11 12 11 8 13 13 16 19 21 24 25 24 24 26 31 34 34 31 29 28 28 28 28 27 26 25 23 22 20 18 16
7 6 6 6 5 3 3 4 6 8 9 9 9 8 12 14 16 18 16 14 18 18 23 23 24 24 27 30 34 35 35 32 31 30 29 29 27 27 26 25 24 22 19 18
6 8 9 8 8 7 5 7 7 7 8 9 10 10 9 11 14 15 15 18 21 21 17 18 21 28 29 29 31 35 35 33 32 30 31 30 29 29 28 27 25 23 21 20
6 7 7 6 5 5 4 5 7 7 9 8 9 9 10 14 13 12 9 6 16 14 17 16 17 23 29 30 30 33 34 32 29 28 28 26 28 28 29 27 26 24 23 22
4 4 4 4 4 3 4 4 7 7 9 10 10 11 11 11 12 12 9 10 12 10 11 12 17 19 22 25 29 31 32 31 27 25 24 25 27 28 29 29 27 26 25 23
1 2 2 3 5 5 4 7 8 7 9 9 11 12 12 12 11 8 5 7 11 10 10 11 12 15 17 21 25 28 30 29 28 29 30 31 28 28 30 28 27 25 25 24
2 2 2 4 4 4 5 9 9 8 8 9 8 10 11 13 14 5 10 14 13 12 13 12 12 13 14 20 24 25 27 28 29 30 32 33 34 34 33 28 26 26 24 24
2 1 1 3 3 3 6 8 8 8 10 10 9 9 12 11 7 15 15 15 13 12 12 11 12 12 14 16 21 24 25 27 28 29 30 31 32 34 34 31 29 26 27 25
3 3 4 4 5 4 5 6 6 7 9 11 11 12 14 12 12 12 13 13 13 13 12 11 10 10 12 14 17 21 23 23 24 25 27 29 30 31 33 31 30 27 26 23
5 5 6 6 5 5 6 6 7 8 9 10 12 13 13 13 13 13 13 13 13 13 12 11 9 9 9 12 14 17 19 20 20 21 24 25 26 29 31 29 26 23 23 22

GFSNGP_925_spd_081.txt.gz
Wind_Speed
3 4 4 4 8 15 14 13 8 4 6 8 7 8 8 8 7 7 7 7 7 7 7 13 13 11 10 10 9 7 7 7 8 7 7 7 7 8 8 8 9 9 10 11
3 1 2 2 6 12 17 12 9 6 7 6 5 6 6 8 9 9 8 9 8 7 10 14 18 16 14 13 11 9 9 10 10 8 6 6 6 7 8 11 13 13 13 13
3 1 1 5 10 11 8 6 12 10 11 3 3 7 9 8 10 11 9 9 10 11 14 19 20 19 17 15 14 12 12 11 10 8 7 7 8 9 11 12 12 14 16 16
2 1 1 5 2 7 12 6 9 4 5 5 6 6 5 4 9 9 8 8 8 11 15 19 19 18 16 16 16 13 12 11 9 8 8 8 10 11 13 14 16 16 16 16
3 3 5 2 2 4 6 7 11 12 7 2 0 3 1 4 5 7 7 6 12 19 19 20 21 20 19 18 16 14 14 12 10 10 10 11 13 13 14 16 16 15 14 13
1 2 4 2 2 4 4 4 2 8 8 6 3 4 3 4 2 3 4 8 13 16 17 19 20 21 20 18 17 16 14 12 10 11 13 14 15 15 16 15 14 13 15 12
2 1 6 5 3 4 2 4 2 5 6 6 4 3 1 4 3 3 4 8 12 16 19 19 19 20 19 17 17 15 14 11 12 14 14 15 15 15 15 16 15 14 12 11
2 2 6 3 1 4 4 1 2 2 4 5 3 4 3 4 4 5 6 9 13 16 16 16 19 19 17 17 14 14 14 13 14 14 15 16 16 17 16 15 14 12 10 9
6 5 4 4 3 2 2 2 1 4 3 4 4 3 4 3 5 5 8 10 13 15 15 15 17 19 18 17 16 16 16 17 16 16 17 18 19 19 17 15 13 11 9 7
1 2 4 3 2 1 1 3 2 3 4 4 3 5 3 3 4 4 9 11 13 13 14 14 15 15 15 16 18 18 19 19 19 20 20 20 19 18 16 15 12 11 9 8
3 5 4 3 4 3 3 4 4 3 3 3 2 2 3 3 5 8 12 13 16 15 15 16 15 14 14 16 19 20 20 21 21 21 19 21 19 17 15 13 12 11 10 9
4 4 3 4 2 4 5 3 3 3 2 2 1 2 3 5 7 10 13 14 15 15 16 17 17 16 14 16 20 21 19 21 22 23 20 20 18 15 13 11 10 10 9 10
3 2 2 2 4 3 5 4 3 4 3 2 3 3 2 2 5 9 11 14 15 18 18 17 18 18 16 17 21 21 19 23 24 24 22 21 19 17 16 10 8 9 10 10
3 5 2 3 2 4 5 5 5 4 4 4 4 5 5 3 3 6 12 15 15 16 17 17 19 19 17 17 22 22 23 23 26 25 24 22 21 20 17 16 14 14 13 11
5 2 1 4 6 5 4 3 4 4 3 5 7 7 8 7 5 8 10 12 13 16 16 17 20 21 19 20 24 24 26 24 25 26 25 24 22 20 19 18 17 14 12 13
4 5 5 5 5 4 4 4 3 2 3 3 4 6 8 9 10 10 8 10 13 14 19 21 22 21 21 22 26 26 27 27 26 26 25 24 23 23 23 22 20 18 17 16
4 3 2 3 3 3 3 2 2 3 4 5 6 8 10 12 13 12 10 9 15 19 19 21 22 20 22 24 28 27 29 28 27 27 28 28 28 27 27 25 24 23 22 18
6 7 6 5 3 2 3 4 4 5 4 8 11 11 10 9 8 14 15 13 12 16 18 19 18 19 21 24 28 30 30 32 30 29 30 30 30 29 28 27 26 25 23 20
8 7 7 8 5 4 3 4 5 7 8 8 9 8 10 12 12 13 14 14 13 14 18 16 19 20 22 25 26 30 31 31 31 31 31 30 28 29 30 29 28 27 25 23
7 8 8 7 7 6 4 5 6 6 7 9 9 9 9 10 12 13 13 14 15 15 13 12 13 21 24 24 26 29 31 31 31 30 30 30 30 29 31 31 30 28 27 25
5 5 5 5 4 4 5 5 7 8 11 10 9 10 10 13 12 12 12 8 8 9 8 9 13 18 20 24 24 28 30 30 29 28 27 26 25 26 30 30 30 29 29 27
2 3 5 5 4 4 4 5 7 7 9 10 10 10 12 12 14 13 10 8 11 12 11 11 11 13 17 18 23 27 30 30 29 27 26 26 25 24 27 31 31 30 30 28
3 3 3 4 5 4 3 6 7 7 8 9 9 10 11 12 13 9 5 13 16 15 14 14 12 12 12 15 21 24 27 28 27 27 28 28 29 30 29 31 34 33 30 29
2 3 3 4 4 3 4 7 8 6 6 8 7 7 11 14 15 4 15 15 15 14 15 14 13 12 12 13 17 22 24 26 28 28 29 31 32 32 32 33 34 37 34 28
3 4 4 4 4 4 6 8 9 7 8 10 9 9 11 10 8 16 16 16 15 15 15 14 12 11 12 14 16 19 22 24 25 26 28 29 29 30 31 32 33 34 37 32
3 5 6 6 6 6 6 7 8 9 9 12 12 12 14 13 13 13 15 14 14 13 14 14 12 11 11 11 13 15 17 20 22 23 24 26 27 28 29 30 30 30 33 35
6 7 8 7 6 6 7 7 8 9 8 10 13 13 15 15 14 14 15 15 15 15 14 14 13 12 12 12 12 12 14 16 18 19 20 22 23 24 26 27 28 29 31 31

GFSNGP_925_spd_084.txt.gz
Wind_Speed
2 1 2 2 5 10 9 8 8 2 9 11 8 7 6 6 7 7 7 7 8 7 6 13 13 13 13 12 11 9 8 7 7 6 5 5 4 5 5 6 7 8 9 9
1 3 2 3 7 10 13 10 7 11 12 6 7 1 4 7 8 8 8 8 7 7 10 14 17 16 14 13 11 10 9 9 9 8 7 5 5 5 6 8 9 10 11 10
2 0 0 5 7 12 7 5 12 9 14 5 2 5 7 8 9 11 9 10 10 11 13 19 20 19 18 17 15 12 11 11 10 7 6 6 6 6 7 7 7 11 13 15
2 1 1 4 1 5 10 4 11 8 4 5 5 5 7 7 10 10 8 8 8 11 18 22 21 19 17 16 15 13 12 12 11 9 8 8 8 8 10 11 12 14 15 16
2 1 6 2 1 3 5 5 11 14 14 4 1 1 4 7 7 8 7 7 13 19 20 21 23 22 20 18 17 16 15 14 12 11 10 10 11 12 13 15 16 16 15 15
1 2 3 2 3 3 3 4 2 6 9 7 5 2 4 4 4 4 2 6 10 15 18 21 22 23 22 20 19 18 17 15 13 11 12 13 14 15 16 16 16 15 15 13
3 2 6 5 3 3 3 4 4 2 5 6 5 4 2 3 3 3 2 4 8 13 18 20 21 22 21 19 20 17 15 14 12 12 13 14 16 18 17 17 15 15 14 13
3 1 6 3 2 3 4 2 2 1 2 5 2 3 2 4 4 4 5 6 8 12 13 16 19 20 18 18 16 15 15 14 13 14 14 16 18 18 18 17 17 14 12 11
6 5 4 4 4 2 2 1 2 1 2 5 4 1 2 2 3 3 4 6 7 11 12 13 15 17 17 16 15 16 16 15 15 15 16 17 19 19 20 18 16 14 12 10
1 2 4 5 4 3 1 2 2 2 3 3 6 5 2 2 2 3 5 7 9 11 11 11 13 14 14 14 16 16 16 16 16 18 17 18 19 21 19 19 16 14 12 11
3 5 5 5 4 3 2 3 4 4 3 3 3 3 0 1 3 6 8 9 11 12 12 13 14 14 14 14 16 17 17 17 19 19 18 19 19 21 19 17 15 13 12 11
4 3 2 5 2 3 4 3 3 3 3 4 5 4 3 3 3 4 7 10 12 13 13 13 16 16 16 15 16 18 18 20 21 21 20 22 21 19 17 13 12 12 11 10
3 2 3 1 1 2 4 4 4 6 5 4 4 5 4 2 4 5 6 8 12 15 15 15 16 18 17 16 17 19 20 20 21 21 23 23 23 21 18 14 11 12 13 11
4 2 1 2 1 4 5 6 7 7 7 6 6 7 7 7 8 7 6 9 10 13 14 16 17 19 18 17 17 21 22 21 23 22 25 25 25 23 20 19 17 15 13 12
5 1 1 4 5 5 5 3 4 4 3 4 6 5 6 6 7 10 11 8 8 11 13 14 17 18 18 19 20 22 23 22 22 24 25 27 25 23 22 21 20 16 14 15
3 4 4 4 5 4 4 5 3 2 3 3 5 7 7 6 8 11 11 9 7 11 14 16 17 17 18 20 20 22 24 24 23 23 25 27 25 24 23 23 22 21 20 19
2 1 2 3 3 3 4 4 3 3 3 4 6 10 11 11 10 10 13 12 11 14 15 15 17 15 17 20 22 23 25 25 24 24 26 28 27 27 27 27 27 27 26 22
6 5 6 4 4 3 3 5 6 6 6 8 9 11 10 10 8 11 12 14 14 14 13 15 16 16 17 20 23 24 25 27 26 27 29 29 30 29 28 28 29 28 27 24
7 6 7 8 7 5 5 6 7 7 8 9 11 10 10 10 11 13 14 13 13 14 16 11 12 16 19 20 22 25 26 27 27 27 30 30 28 29 30 31 31 31 29 26
6 7 7 7 7 7 6 6 7 7 9 10 10 10 10 11 13 14 13 11 9 8 12 11 11 13 18 20 21 24 26 27 28 26 27 28 28 28 31 31 32 31 31 30
5 6 6 6 5 4 4 4 5 6 9 9 9 9 11 13 14 15 11 7 10 14 14 12 11 12 13 16 18 25 26 27 26 25 25 26 25 25 25 27 29 30 31 32
2 4 5 5 4 3 3 5 6 6 7 9 9 10 12 13 16 15 11 6 17 16 16 16 15 14 13 13 16 21 26 27 26 24 24 25 25 26 28 27 27 28 31 33
2 1 3 3 4 3 3 4 6 6 7 9 10 9 9 12 13 9 7 16 19 17 17 17 15 15 14 14 15 19 23 25 26 26 25 25 25 26 28 30 33 33 31 33
3 2 3 3 3 3 4 6 8 7 7 8 8 8 10 14 16 3 14 17 16 16 16 16 16 16 14 14 15 16 19 22 24 26 27 28 28 29 29 30 30 31 32 31
4 3 3 3 4 3 5 6 8 7 8 9 9 7 9 10 8 16 16 16 16 15 16 16 15 14 14 14 14 15 17 19 22 23 24 25 26 27 28 28 29 29 30 31
5 5 5 6 7 7 7 6 7 8 8 10 11 10 11 13 13 13 15 15 15 15 15 16 16 16 15 15 15 15 15 16 17 19 22 23 24 24 25 26 27 27 27 28
8 7 8 8 8 7 7 7 7 9 8 9 13 12 14 16 14 14 16 17 17 17 17 17 17 17 17 16 16 15 15 14 14 16 17 19 20 21 22 23 24 24 25 25

GFSNGP_925_spd_087.txt.gz
Wind_Speed
3 1 3 1 3 7 6 5 6 6 8 12 6 7 6 2 5 6 9 9 9 8 9 11 12 14 14 14 12 11 10 9 6 6 6 5 5 4 4 3 5 6 7 7
3 2 2 2 5 7 9 5 4 3 9 5 6 2 4 4 6 8 8 9 9 9 11 14 18 19 18 16 14 11 9 9 8 7 7 7 6 6 6 6 6 7 8 7
2 2 2 5 5 7 4 4 7 8 8 5 3 4 6 5 8 9 9 11 11 12 16 20 24 23 21 18 15 13 11 11 12 11 8 6 5 5 6 6 6 7 9 9
1 2 1 3 1 3 7 3 8 6 4 5 5 5 6 6 8 10 8 8 9 12 16 22 23 22 20 19 18 17 15 14 13 10 9 7 7 7 8 9 8 10 12 14
2 2 5 2 1 2 2 4 4 11 11 5 3 1 5 5 7 8 8 7 13 20 22 22 23 23 22 20 19 17 16 16 15 13 10 9 9 10 10 11 13 15 15 15
1 1 2 2 2 2 2 3 2 4 7 5 5 4 4 4 1 4 4 6 12 15 17 20 23 24 23 21 20 19 17 16 14 12 9 10 11 12 13 15 17 15 15 13
3 1 5 5 4 3 2 3 3 2 4 5 4 3 1 2 4 4 3 3 5 9 14 17 21 24 23 21 21 18 14 13 12 11 10 12 13 15 17 18 16 15 15 14
2 1 5 3 1 1 4 3 2 2 1 3 3 2 3 4 4 4 4 4 5 8 9 13 18 21 20 20 17 15 15 15 14 12 12 14 16 18 19 19 17 15 14 14
6 5 4 4 5 2 2 2 2 2 2 4 4 2 3 2 3 2 3 4 4 8 10 11 15 17 18 16 15 16 16 16 14 13 14 15 19 21 21 19 19 17 15 14
1 1 4 4 4 4 1 0 1 3 2 2 3 4 4 3 2 3 3 4 6 8 10 11 13 14 14 13 15 17 18 17 15 16 16 17 19 21 23 22 21 18 15 14
3 5 6 3 3 1 2 2 4 5 4 4 4 3 2 2 2 3 5 6 9 10 11 11 12 13 13 14 16 17 16 17 18 18 18 19 20 22 24 24 24 21 19 16
3 2 2 4 5 1 4 3 3 4 4 5 6 5 4 4 5 3 3 4 7 10 11 11 12 14 14 14 16 18 18 19 20 20 21 21 21 19 22 19 18 16 13 14
2 2 3 3 2 1 3 4 4 6 5 4 5 7 4 3 6 6 4 3 7 10 12 12 12 14 15 16 16 18 18 20 20 20 23 22 22 22 19 19 17 17 17 15
5 4 3 2 1 4 6 6 9 9 8 7 5 7 6 5 6 8 8 7 7 8 10 12 13 16 16 16 16 18 19 19 21 22 24 24 25 25 25 23 21 21 18 18
7 0 0 3 4 5 5 4 5 5 3 4 7 6 8 7 7 9 10 10 7 6 8 10 13 15 14 16 19 18 20 21 21 22 23 24 25 26 26 24 23 21 18 18
6 3 3 4 5 4 4 5 4 3 3 3 6 8 8 8 9 10 10 10 9 10 10 10 13 14 14 17 20 20 20 20 22 22 22 22 24 26 26 26 25 25 23 22
3 1 2 3 3 3 4 4 3 3 3 5 7 10 11 11 10 11 12 11 11 12 13 12 15 13 14 17 20 22 22 22 20 22 23 25 25 27 27 26 27 27 29 26
3 4 4 4 4 5 4 5 6 6 6 7 8 9 9 9 7 11 13 15 13 12 10 10 11 12 14 16 19 22 22 22 24 25 25 25 27 28 29 29 29 29 29 27
6 5 7 8 6 7 6 6 6 6 7 9 9 8 8 8 10 12 14 14 12 10 14 15 12 10 11 15 17 20 22 23 24 25 28 28 25 26 29 30 30 31 31 30
4 6 8 8 9 9 6 6 4 5 7 8 8 8 9 12 12 13 13 10 7 11 15 15 15 13 10 10 13 19 22 24 25 25 24 27 28 28 28 28 29 30 30 31
4 6 7 7 6 5 6 6 7 7 8 8 8 7 9 11 13 13 10 6 14 17 16 16 15 15 14 12 11 16 23 24 24 24 23 24 25 26 28 29 29 26 27 29
1 3 5 4 4 3 3 4 4 4 6 7 8 7 8 9 14 11 8 5 18 16 17 18 17 16 16 14 14 14 18 23 24 24 24 25 25 24 25 27 30 32 33 34
2 1 1 2 3 2 3 2 4 4 4 5 6 6 7 10 11 6 7 15 18 16 15 15 16 17 17 15 14 14 15 17 21 23 25 25 27 27 26 27 29 31 31 32
2 4 4 3 2 3 4 3 4 4 4 4 5 4 6 10 12 1 13 15 15 15 14 15 15 16 14 14 14 14 14 16 17 20 23 24 26 26 27 27 27 29 30 30
6 7 6 5 5 5 5 5 6 4 5 5 5 4 5 7 7 14 14 15 15 15 15 15 14 14 15 14 14 15 14 15 15 17 19 20 22 23 24 25 27 27 28 28
7 8 8 7 8 7 7 6 7 7 6 7 8 7 7 10 11 11 13 15 15 14 15 15 15 16 15 15 14 15 15 15 15 15 15 17 19 21 22 23 23 24 24 26
9 9 9 9 10 9 9 8 7 8 7 8 10 9 9 12 13 12 13 15 16 16 16 16 17 17 16 15 15 16 16 16 15 14 15 15 15 17 18 20 20 20 21 21

GFSNGP_925_spd_090.txt.gz
Wind_Speed
4 4 3 5 10 11 6 4 5 5 10 14 8 5 8 6 2 6 9 10 11 11 10 13 12 11 10 10 10 10 8 7 5 4 4 2 3 2 1 2 2 3 3 5
2 3 3 3 6 12 12 10 11 7 14 6 10 10 6 5 4 9 10 11 11 10 12 13 13 12 12 12 11 9 7 6 6 6 5 4 2 3 2 2 3 3 4 3
2 3 4 2 2 8 5 5 9 10 10 4 6 2 4 6 6 9 12 13 13 13 14 14 14 13 13 12 12 10 9 9 8 7 7 6 5 3 3 3 3 3 3 4
1 0 2 4 2 2 7 6 11 10 9 8 7 6 6 5 6 8 11 13 12 13 14 15 14 13 12 12 12 11 10 10 9 9 7 6 5 6 7 7 6 6 7 7
1 2 2 3 2 1 1 3 1 7 8 10 10 8 12 5 5 8 9 11 14 15 14 14 16 16 16 14 14 13 13 13 12 11 10 8 8 9 9 9 9 10 11 11
1 2 0 3 2 1 2 3 2 4 7 6 4 5 3 5 5 2 5 8 10 11 12 13 15 17 17 16 15 15 14 12 11 10 9 9 10 12 13 12 12 12 12 12
2 1 2 1 1 3 3 3 4 3 6 1 3 2 4 3 4 4 3 2 2 7 8 10 13 16 17 16 17 15 12 12 11 12 12 12 13 14 15 14 14 14 13 9
2 2 3 2 2 2 3 3 2 2 1 2 1 1 1 3 4 3 4 4 4 5 5 6 11 14 14 14 15 14 13 13 13 13 13 13 14 15 17 18 17 14 11 9
3 0 2 2 5 2 2 4 3 2 2 2 2 0 1 2 3 3 3 4 4 4 5 6 8 11 11 11 13 14 13 13 13 13 14 14 17 19 20 20 18 13 12 11
2 2 3 3 3 5 2 1 2 2 5 2 4 3 3 3 3 2 2 2 3 3 3 4 7 9 9 10 12 12 12 12 13 15 15 15 17 20 22 22 18 14 14 13
3 1 2 4 4 3 1 3 4 5 5 4 4 4 3 3 2 2 2 1 1 2 3 4 6 8 10 10 12 12 13 13 14 16 17 17 19 21 23 24 23 16 15 14
2 4 4 5 6 3 2 4 3 5 5 7 5 5 4 5 6 5 3 1 1 3 5 6 8 10 11 12 12 12 13 13 14 17 18 19 18 18 19 20 22 19 15 14
3 9 7 8 3 1 3 5 5 7 5 5 7 6 6 4 6 5 5 4 3 4 6 7 9 11 12 14 15 14 14 12 13 16 18 20 19 19 14 16 18 20 19 17
7 6 5 1 1 2 6 7 8 9 8 7 5 7 6 5 5 7 7 7 6 6 6 7 9 12 13 14 16 17 15 15 13 15 17 20 21 20 18 15 16 17 20 20
9 7 5 0 3 3 5 6 6 5 4 5 5 5 6 6 6 7 8 8 8 6 6 6 8 12 12 14 17 18 19 18 17 18 21 21 21 21 20 16 16 14 14 19
12 8 3 3 4 3 4 4 5 3 3 3 3 5 6 6 6 6 6 7 8 8 9 9 10 12 12 13 16 18 19 19 18 21 20 20 21 21 20 20 17 17 17 18
5 3 1 1 3 2 3 3 4 4 3 3 4 5 6 6 6 7 8 8 8 8 8 8 10 10 11 13 16 19 20 19 17 20 22 23 22 22 21 21 20 20 22 24
5 3 2 2 4 5 4 4 3 4 4 4 4 5 6 6 7 9 10 12 10 6 6 9 11 11 9 11 14 16 17 20 20 22 23 24 24 23 21 23 22 22 21 24
4 3 5 6 5 6 5 5 3 4 4 4 4 4 4 5 7 8 10 9 7 7 12 13 14 12 9 8 11 14 17 19 20 22 24 23 23 25 25 25 22 23 23 23
2 5 7 7 7 5 5 3 2 2 3 3 3 4 5 6 8 8 8 4 7 7 13 13 13 11 11 10 7 13 17 19 21 21 22 23 23 23 26 29 29 28 26 24
3 5 5 4 5 3 2 1 0 1 1 2 3 3 4 5 6 6 5 4 8 13 12 11 11 12 14 12 12 10 13 19 21 22 22 22 23 23 25 27 28 29 30 31
3 3 4 3 1 2 1 1 1 2 3 3 3 3 5 5 6 6 3 4 11 13 12 10 10 14 15 15 13 12 12 13 17 20 21 22 23 23 24 25 26 29 30 32
5 4 2 4 4 3 3 3 2 3 3 4 4 5 5 6 6 5 5 7 12 12 12 10 13 15 15 12 11 11 11 12 14 16 20 22 24 24 25 24 26 28 29 30
6 6 6 7 6 5 6 4 4 4 5 6 6 6 6 7 8 4 10 13 13 13 12 12 13 13 13 10 10 11 11 12 13 14 16 18 20 23 24 25 25 26 27 28
9 8 7 8 7 7 7 6 6 5 5 7 7 7 6 7 6 11 13 14 14 13 12 14 13 13 12 11 11 11 12 12 13 16 16 17 18 19 21 22 24 24 24 25
8 9 9 10 9 8 8 7 6 5 5 6 6 6 8 8 10 12 12 12 13 13 14 15 14 13 12 12 12 12 13 13 13 13 15 15 16 17 19 20 21 21 22 23
9 9 8 9 11 11 11 10 8 7 7 7 8 8 7 10 11 11 12 13 14 15 15 14 13 14 12 13 13 13 13 14 14 15 16 16 16 16 17 18 19 19 20 20

GFSNGP_925_spd_093.txt.gz
Wind_Speed
4 5 5 8 12 12 5 5 3 5 6 5 3 1 3 3 2 3 5 8 9 9 10 14 14 13 13 12 12 12 11 9 8 6 5 4 3 1 1 0 1 2 0 1
2 3 1 3 5 10 8 10 12 12 16 10 9 9 10 6 2 2 6 8 9 9 10 12 12 12 11 11 11 10 9 8 6 6 5 4 3 2 1 0 1 1 1 1
3 2 3 2 6 8 7 6 10 11 9 8 6 6 3 3 1 3 6 9 10 10 11 12 12 12 12 12 11 9 8 8 8 7 6 5 4 3 2 2 1 1 2 2
1 3 4 4 2 1 8 5 8 11 10 11 11 7 6 6 5 4 3 9 10 11 12 12 11 12 12 13 13 12 10 9 8 8 7 6 5 5 5 4 4 6 4 4
2 2 5 4 4 1 3 3 1 5 6 7 6 7 11 9 3 5 6 7 11 13 12 12 13 13 13 13 13 12 11 11 10 9 8 8 7 7 6 7 7 6 4 4
1 2 1 6 3 1 2 4 0 4 7 8 4 4 5 7 5 4 1 2 6 9 10 12 13 14 15 15 14 14 12 11 10 10 9 9 8 8 9 7 7 7 8 8
3 2 2 4 3 2 4 3 3 4 7 5 3 5 5 5 5 5 5 3 3 3 7 7 10 13 14 14 14 12 11 11 10 10 10 9 11 10 9 10 9 11 10 8
2 2 2 3 3 3 5 3 3 4 3 2 3 3 4 4 5 5 5 6 5 4 4 3 6 10 11 11 12 12 11 11 11 11 10 10 11 11 11 12 12 13 11 9
3 3 3 1 4 3 3 5 3 4 3 2 1 3 3 4 5 5 6 6 5 4 4 3 4 6 8 8 10 11 11 11 11 10 10 10 11 12 14 15 16 15 12 11
2 4 3 3 2 2 2 2 2 2 2 2 5 4 4 4 5 5 6 5 4 3 3 2 3 4 4 6 8 9 10 10 10 10 11 11 12 14 16 18 17 16 13 13
6 1 3 5 7 5 0 1 2 3 4 4 5 4 3 4 4 4 4 4 4 3 1 1 3 3 4 5 7 9 9 9 10 11 12 12 15 17 19 20 22 22 17 14
1 7 6 5 9 7 3 1 2 4 5 6 5 5 4 5 6 6 6 4 3 3 3 3 4 5 6 8 10 10 10 10 10 10 11 14 15 16 16 17 19 20 17 15
5 11 10 10 7 4 1 2 3 5 5 5 7 6 6 4 6 6 6 6 6 6 5 5 5 5 8 10 12 13 13 11 10 11 11 13 17 16 14 16 16 18 20 18
6 10 3 5 4 4 1 5 5 6 7 6 6 6 5 4 4 5 7 7 8 8 7 6 6 7 9 10 12 14 15 14 13 12 13 14 16 18 18 15 15 18 20 21
8 8 9 8 5 1 2 3 4 4 4 5 5 4 4 4 5 6 6 7 8 6 6 7 7 7 8 10 13 15 16 17 18 17 16 17 18 19 19 18 17 13 14 19
12 11 8 6 3 2 1 2 3 3 3 3 3 5 6 6 6 6 6 7 8 8 9 9 8 8 8 9 12 14 17 17 16 18 18 18 18 18 18 19 19 15 16 19
10 6 8 5 3 3 1 2 3 3 2 2 3 4 5 5 4 6 7 8 8 8 7 7 9 11 10 9 11 14 14 16 15 18 19 19 20 20 20 20 20 21 24 19
8 9 6 6 7 3 3 2 2 3 3 3 3 3 3 5 5 7 8 8 7 5 5 10 10 12 9 9 10 12 14 15 16 18 20 20 20 21 21 22 22 22 23 24
4 4 5 6 7 4 2 2 2 2 2 3 3 3 4 4 5 7 8 7 6 7 9 13 15 12 11 11 10 10 13 15 16 17 19 20 19 21 22 22 23 23 24 22
2 1 3 5 6 5 3 2 2 2 3 3 4 4 4 5 6 7 6 6 3 6 13 12 13 11 12 13 13 12 10 14 16 18 18 19 21 21 22 24 24 25 25 26
1 1 1 1 2 3 3 3 4 3 4 3 4 4 5 6 6 6 5 4 5 12 12 11 11 11 16 16 18 15 14 13 14 17 18 19 20 21 22 23 24 25 26 27
3 3 4 2 1 2 3 5 5 5 5 5 4 5 6 6 6 7 5 4 9 11 12 11 10 13 16 18 14 14 13 14 14 15 16 19 19 20 21 22 23 25 26 27
5 4 3 2 4 6 6 6 7 6 6 6 6 6 6 7 6 7 5 4 11 11 13 11 12 14 16 15 12 13 12 13 14 14 15 16 18 20 21 21 22 23 25 26
7 7 7 7 6 8 10 9 8 8 8 8 8 7 7 6 8 6 6 11 11 13 14 13 14 15 15 13 12 13 13 13 13 14 16 15 17 18 19 19 21 22 24 26
9 11 9 9 8 10 12 10 8 8 8 9 9 8 8 7 7 10 13 14 13 13 15 14 14 13 13 13 14 14 14 14 14 15 15 15 16 17 18 19 19 21 22 23
7 9 10 11 11 9 8 8 7 7 7 7 7 7 7 8 9 10 11 11 13 13 15 16 16 14 14 13 14 15 15 15 15 15 16 17 17 17 17 17 19 20 20 21
7 9 9 9 12 14 13 11 9 9 9 9 10 9 8 8 10 11 12 13 13 15 16 16 16 15 15 16 16 16 16 16 16 17 19 18 17 17 18 18 18 17 18 20

GFSNGP_925_spd_096.txt.gz
Wind_Speed
3 3 4 4 7 12 5 4 2 3 3 4 5 3 4 5 4 6 7 5 6 7 5 14 16 18 17 16 15 16 16 16 15 13 11 8 7 5 4 3 1 2 2 3
3 2 3 3 7 7 4 6 6 5 3 4 7 7 6 4 6 4 6 7 7 7 10 13 16 17 19 17 16 16 16 15 14 12 11 9 7 5 3 2 2 2 2 3
1 1 2 2 4 6 2 3 2 4 2 5 6 6 2 6 3 4 4 7 7 8 10 17 18 19 20 19 17 16 16 14 12 11 10 8 7 6 5 4 4 5 5 6
1 2 1 2 5 5 3 3 2 5 5 5 5 6 5 5 5 6 4 7 8 9 12 17 19 19 18 18 17 16 15 14 14 13 12 11 9 7 7 5 4 4 4 4
1 2 3 2 2 1 0 1 3 3 5 5 5 5 6 6 6 5 6 4 12 15 16 15 18 18 19 19 17 17 16 15 14 13 12 10 9 8 6 6 5 4 4 4
2 1 1 2 2 4 3 1 4 4 5 5 4 2 2 6 6 7 9 10 6 16 15 17 17 19 19 18 16 15 14 13 13 13 12 11 10 8 8 7 6 6 6 6
3 1 2 3 3 1 1 2 3 3 3 4 3 2 1 5 5 7 8 10 9 12 11 10 16 18 16 16 16 14 13 13 13 12 12 11 11 10 8 8 7 8 8 8
1 0 1 3 1 2 2 1 3 4 4 4 5 5 5 6 6 6 7 8 10 9 9 8 9 12 12 11 11 13 12 13 14 12 12 11 10 9 9 9 10 10 10 10
2 0 2 2 2 2 2 2 3 4 4 4 5 5 5 5 6 6 8 9 8 8 7 4 3 5 8 9 11 11 11 13 12 11 11 10 11 10 11 12 13 14 14 13
2 3 4 6 5 4 3 3 4 4 4 4 6 6 6 6 5 6 8 8 7 6 5 5 3 4 4 8 9 10 12 12 12 12 10 11 12 12 14 15 16 16 16 16
0 7 3 7 7 6 4 4 4 6 6 6 5 3 6 5 5 5 7 7 7 6 7 5 3 2 4 6 8 10 11 12 13 12 11 13 14 15 16 17 18 20 20 20
1 6 5 3 6 5 6 2 3 5 5 6 7 6 6 5 8 8 8 8 8 8 6 4 2 3 4 4 7 10 11 11 14 13 12 13 14 14 14 15 15 16 15 18
3 6 6 7 4 7 4 5 6 6 6 6 9 8 8 5 7 8 9 10 11 10 8 7 6 4 6 6 9 10 11 11 13 11 11 13 15 15 15 15 15 14 16 16
7 8 2 7 4 6 3 5 6 8 8 7 8 6 5 6 5 6 7 7 8 8 8 8 8 7 7 8 9 10 12 13 12 14 13 14 15 15 16 16 15 18 18 19
8 5 5 9 8 1 1 2 3 3 3 4 6 5 6 5 5 6 7 8 9 7 8 9 9 8 8 10 9 11 12 14 14 15 15 15 16 16 16 17 17 17 16 16
10 11 6 5 5 2 1 2 3 4 4 3 5 6 5 5 5 5 7 8 9 9 9 9 7 11 12 10 11 12 13 13 14 16 16 16 17 16 17 17 17 17 19 19
5 6 8 8 7 6 1 4 4 4 4 5 4 4 5 6 5 7 8 9 8 7 5 8 10 13 11 11 11 12 13 13 12 15 17 17 18 18 18 18 18 19 22 23
5 6 5 5 6 5 4 6 7 7 5 4 5 5 5 6 6 8 10 10 9 6 8 12 12 15 11 12 12 11 11 13 12 14 16 18 19 18 18 19 20 21 22 23
4 4 3 3 5 6 6 6 6 4 5 6 6 5 4 5 6 8 8 7 7 8 12 14 13 12 12 13 13 13 12 11 13 14 15 16 17 18 19 20 21 22 22 22
1 2 1 2 5 6 6 6 5 6 7 7 7 5 5 6 7 9 9 6 4 7 14 13 12 11 13 15 16 16 15 14 13 14 16 16 17 18 19 21 21 22 22 23
2 2 1 1 3 4 5 6 7 6 7 7 7 7 7 8 7 8 8 7 3 11 12 10 10 11 14 14 16 14 14 15 15 14 14 15 16 17 19 21 22 22 23 23
3 4 3 3 4 4 4 4 5 7 8 9 8 8 8 8 7 8 7 5 7 11 12 12 10 12 14 15 14 12 12 13 13 14 15 15 15 16 17 18 20 21 23 24
5 5 5 7 6 5 2 5 6 7 9 9 9 8 8 8 9 7 6 4 12 12 13 14 12 12 14 16 13 12 13 13 12 13 13 15 16 17 17 17 19 20 21 22
6 6 7 6 6 6 5 7 10 10 10 10 10 9 10 10 9 8 8 11 13 13 13 14 14 14 14 15 14 14 14 14 13 13 14 14 15 16 16 18 19 19 21 22
8 8 9 9 10 10 10 10 10 10 10 10 9 9 8 8 9 8 13 13 13 13 15 16 14 15 15 17 16 15 17 16 15 15 16 15 15 17 18 18 19 20 21 21
8 8 9 11 13 13 12 8 9 10 9 10 8 7 8 8 9 10 11 11 13 14 15 16 17 16 17 17 17 17 18 17 18 18 18 19 20 20 18 18 18 19 19 20
8 9 10 11 12 13 14 13 12 13 10 11 11 9 9 8 9 10 11 13 14 16 17 17 18 18 17 18 18 20 19 19 19 18 20 22 21 19 19 20 22 21 20 19

GFSNGP_925_spd_099.txt.gz
Wind_Speed
5 4 3 4 5 7 4 3 3 2 5 1 1 3 1 3 5 5 4 4 5 6 6 15 18 19 20 19 18 19 19 18 17 16 13 11 9 8 8 7 6 4 2 2
3 2 3 2 6 6 3 2 2 5 2 3 3 5 6 4 4 5 5 5 5 5 8 14 20 20 20 18 18 19 19 18 16 14 11 9 10 10 8 6 4 4 4 4
3 3 4 3 1 5 3 1 2 3 3 3 4 4 4 4 4 2 7 7 7 7 11 18 21 22 22 20 19 19 18 16 14 12 12 11 10 9 8 7 6 5 4 4
2 2 0 3 2 3 4 2 2 2 1 1 2 2 6 6 2 5 5 5 7 10 15 20 20 21 20 19 19 18 17 16 15 14 13 12 11 10 8 7 6 7 5 5
1 1 1 1 1 2 2 2 2 3 4 4 3 2 3 6 5 4 4 5 10 18 18 20 22 22 22 20 19 19 18 17 16 15 14 13 12 10 10 9 8 6 5 6
3 1 1 2 1 1 2 1 2 4 3 4 4 2 3 5 4 6 9 10 9 15 18 21 23 24 23 22 20 20 19 17 16 15 15 14 11 11 10 8 8 7 6 7
1 1 3 0 1 2 4 3 1 3 2 2 2 3 1 3 5 6 7 10 11 10 12 18 22 23 22 20 20 17 15 15 15 15 14 13 11 12 10 10 7 7 8 8
1 2 2 1 2 2 2 2 3 3 2 4 4 4 3 4 5 6 8 10 9 12 13 10 13 18 17 18 14 13 14 15 16 15 14 13 12 12 10 10 10 10 10 11
4 3 3 3 3 3 2 1 2 3 1 4 5 3 4 3 5 6 8 9 9 9 8 7 5 7 10 10 12 15 15 15 15 14 13 13 12 11 11 12 13 13 14 13
2 6 4 6 4 6 4 2 2 2 3 5 5 4 4 4 4 5 7 8 7 7 7 6 4 2 3 8 10 12 13 14 14 14 13 12 11 11 13 14 15 16 16 17
2 4 1 6 5 5 6 2 5 6 4 4 4 4 5 4 4 6 7 8 8 8 7 5 3 2 3 4 6 10 11 12 14 14 14 12 12 13 15 16 16 18 18 18
2 1 2 5 7 7 6 3 3 4 3 6 7 5 6 5 7 8 9 10 10 10 8 7 3 2 2 3 6 8 10 12 14 14 13 13 13 14 14 15 15 16 16 16
0 2 2 6 2 6 4 4 5 6 5 3 6 10 7 3 6 7 8 8 9 8 7 7 7 5 4 4 6 9 11 12 12 14 14 14 14 15 15 13 15 16 16 17
5 5 3 2 4 7 2 2 3 6 8 7 5 7 7 4 5 7 8 8 9 8 7 8 7 9 7 7 7 8 10 11 12 14 15 15 14 15 14 14 14 16 17 17
6 5 4 8 8 5 1 1 2 3 4 5 8 7 6 5 4 5 6 8 7 6 8 8 7 9 11 10 9 10 10 11 12 14 15 14 14 14 14 14 16 17 16 14
8 7 6 5 6 7 3 3 3 2 3 4 5 5 3 3 4 6 7 9 9 8 8 8 9 12 13 11 11 10 11 11 11 13 14 14 15 15 16 16 17 17 17 18
4 6 7 6 6 6 3 3 4 3 5 6 5 3 3 4 6 7 8 8 8 5 6 9 9 13 11 11 12 11 11 11 10 11 12 14 14 16 18 18 18 18 19 18
4 5 6 5 5 5 4 8 7 7 5 5 3 3 4 5 4 4 5 4 3 2 7 10 9 10 9 11 12 11 12 11 10 11 11 12 15 16 18 18 19 19 20 19
2 4 5 4 5 3 4 6 6 6 6 4 3 3 3 4 3 4 5 3 2 3 9 10 9 8 9 10 12 13 12 13 12 11 11 12 13 15 16 17 19 20 20 20
3 1 2 2 2 2 3 4 3 3 2 2 3 4 3 3 3 4 5 2 1 3 8 9 8 8 11 10 12 12 11 12 12 13 12 11 12 14 15 17 18 19 20 20
2 2 3 4 3 2 4 4 5 3 2 3 3 4 5 5 4 5 4 3 2 6 9 10 8 8 12 12 14 11 10 10 10 11 12 13 13 12 13 14 16 17 19 20
3 3 4 5 6 7 7 7 6 5 3 2 2 3 5 7 6 6 5 5 4 9 10 11 10 8 11 12 15 11 10 11 11 11 10 10 11 13 14 15 15 16 17 19
4 5 5 6 8 9 9 9 8 7 7 8 8 8 8 8 7 6 5 2 7 11 10 11 10 9 11 13 13 10 11 11 11 11 10 11 12 12 14 16 16 16 18 18
7 7 8 9 8 9 9 11 9 10 11 11 10 9 9 10 9 7 6 6 11 10 10 11 11 11 12 13 13 12 11 12 13 11 12 12 13 13 13 15 17 17 18 18
9 9 9 10 10 10 14 14 11 11 11 12 10 8 8 8 8 6 8 9 9 10 12 12 12 12 13 15 15 14 14 15 15 14 15 16 15 17 19 20 19 19 19 19
8 9 10 11 12 12 13 12 12 11 9 11 10 8 7 8 8 8 8 9 10 11 12 12 13 13 15 14 14 14 16 16 15 15 15 16 18 20 21 18 19 20 20 22
7 8 10 12 14 15 15 14 13 15 12 12 13 9 8 8 8 9 9 10 11 11 12 13 13 14 14 14 15 16 15 16 16 17 18 20 19 19 20 20 21 22 20 21

GFSNGP_925_spd_102.txt.gz
Wind_Speed
3 4 2 2 2 5 2 4 4 0 1 3 3 1 3 3 2 3 3 5 4 4 4 11 15 16 15 15 16 17 16 15 13 13 12 11 10 9 8 7 5 3 3 4
2 3 5 1 3 6 0 3 9 3 5 3 3 4 5 1 1 3 3 2 5 5 6 9 13 15 16 15 15 14 14 15 16 15 14 12 11 10 8 6 4 3 3 4
3 4 2 4 1 5 4 3 5 5 5 2 2 4 4 4 3 3 6 5 6 7 12 17 18 20 19 16 15 16 16 16 17 15 14 13 12 11 9 7 5 4 5 6
2 4 2 2 3 0 5 4 4 3 1 1 2 3 5 5 4 4 5 4 5 7 13 16 17 18 15 15 17 17 17 17 16 15 14 14 13 11 8 6 5 6 8 8
2 1 3 3 4 2 1 3 3 4 2 2 4 2 1 4 3 3 4 5 8 11 15 17 18 17 17 18 17 16 17 17 16 16 15 14 12 10 8 7 8 10 8 7
1 2 1 2 3 3 2 1 1 2 2 2 2 0 3 5 4 5 6 8 9 9 14 18 19 20 21 19 18 17 17 16 15 15 15 13 12 11 10 9 9 9 9 7
0 0 3 2 2 2 3 2 2 2 0 2 1 3 2 4 5 7 7 11 10 5 10 15 18 20 20 17 18 16 14 14 14 14 14 13 12 11 10 10 9 9 8 8
1 2 2 2 2 0 3 2 2 2 2 2 3 2 3 4 4 7 9 11 11 14 11 5 11 17 17 17 14 12 14 15 16 16 15 15 14 12 12 11 10 10 11 11
3 3 2 4 4 4 2 1 0 2 2 5 4 3 3 3 4 6 8 10 10 10 10 10 6 7 10 10 11 13 14 15 15 15 14 14 14 13 11 11 11 12 12 14
2 5 4 6 4 6 5 3 3 3 2 4 4 4 4 4 3 5 8 10 9 10 11 10 7 4 1 4 6 10 12 12 13 14 14 14 13 13 12 13 13 14 14 16
2 1 3 3 7 6 7 2 3 5 3 4 5 4 3 3 5 7 8 9 10 10 9 8 7 7 5 1 3 7 9 10 12 13 14 14 14 13 14 14 14 16 17 17
3 2 1 3 2 6 6 5 4 2 3 3 4 5 5 4 6 7 8 8 9 9 7 7 5 4 3 2 2 5 7 8 11 12 13 14 14 14 14 14 14 15 15 17
1 3 3 5 2 3 5 4 4 1 3 3 5 7 6 4 6 6 6 6 7 6 6 6 6 6 5 3 3 5 8 9 10 12 15 16 15 15 16 12 12 15 17 17
5 6 1 3 3 8 7 4 1 2 2 4 5 6 6 6 6 4 4 4 4 4 5 5 5 7 7 6 5 5 7 9 11 12 14 16 17 16 15 15 15 15 13 16
5 4 3 7 7 7 5 3 1 2 2 4 5 6 5 6 4 4 2 2 2 3 5 4 3 6 8 6 6 7 7 9 9 11 13 15 15 15 16 15 16 18 17 15
2 4 4 5 7 6 6 5 3 3 3 3 3 3 2 5 5 3 3 3 2 4 4 4 3 8 6 6 7 6 7 7 9 9 11 12 13 15 17 16 17 18 17 17
1 3 2 5 6 7 8 3 4 3 5 6 4 3 2 5 3 1 2 2 3 4 3 5 5 7 6 7 8 8 8 9 7 7 8 10 11 14 14 15 17 18 19 17
3 2 2 3 5 5 4 2 3 4 3 3 3 4 5 3 1 3 3 1 1 1 5 6 7 6 7 8 8 9 8 9 9 8 7 8 10 11 12 14 15 16 18 17
4 3 2 2 3 5 1 0 1 3 4 3 4 3 1 2 3 3 5 2 1 0 5 7 6 6 7 8 9 10 8 9 9 9 9 8 8 8 10 11 14 15 16 16
4 5 4 3 2 3 3 3 4 3 3 3 3 5 3 1 3 4 4 4 2 1 6 7 7 6 8 8 9 10 8 9 9 9 9 10 9 10 9 10 11 13 14 15
4 5 4 4 4 4 4 3 3 5 3 3 3 2 1 2 2 4 6 4 5 2 6 7 7 6 7 9 11 11 8 9 9 9 10 10 10 10 12 13 13 13 13 13
5 6 6 7 7 6 7 7 5 5 5 6 6 6 5 7 8 8 8 8 5 4 6 7 7 5 7 8 12 10 9 10 10 10 10 9 9 11 11 12 13 14 14 16
8 8 8 8 8 9 8 9 9 10 11 10 10 12 11 10 8 7 5 5 5 6 6 6 5 6 7 10 11 10 10 10 10 11 9 10 12 12 13 13 13 15 16 17
11 10 10 10 8 8 8 11 10 12 11 11 14 13 14 13 11 9 9 8 6 7 6 6 6 7 7 10 10 9 9 10 12 12 10 10 13 15 15 15 17 22 19 18
12 13 12 11 10 10 12 13 12 12 13 14 15 14 13 12 11 6 6 7 7 7 7 6 7 8 9 10 10 9 10 11 12 11 14 14 13 15 17 19 20 18 18 18
10 13 13 13 13 12 12 11 11 14 12 12 12 10 10 11 11 11 10 9 8 8 8 9 9 9 11 11 11 10 12 12 12 12 13 15 17 18 19 19 20 20 20 21
10 9 10 11 13 14 14 14 14 17 14 14 16 12 10 10 11 11 11 11 10 10 10 10 10 11 11 11 11 12 12 13 13 14 15 17 16 16 17 19 19 20 21 22

GFSNGP_925_spd_105.txt.gz
Wind_Speed
4 4 2 2 1 3 3 3 4 6 3 2 4 5 5 3 3 5 5 4 4 2 4 7 10 12 13 13 14 16 16 15 14 14 13 13 11 10 9 7 5 4 4 3
3 4 4 2 2 3 3 3 5 5 1 2 2 3 7 7 6 5 4 3 3 2 4 6 10 12 13 14 14 14 14 16 15 15 14 12 11 9 7 6 5 4 4 2
3 5 2 6 5 2 1 1 5 2 4 2 3 4 4 5 6 6 6 2 3 4 5 9 12 13 14 14 13 13 12 12 14 13 12 11 9 7 7 6 5 4 3 4
2 3 3 4 4 3 4 4 2 3 2 3 2 3 4 4 4 6 7 7 5 3 7 8 8 9 10 11 12 12 14 13 13 12 11 10 8 8 7 6 5 5 5 6
2 1 2 3 4 2 3 2 4 2 2 3 3 3 2 5 5 5 5 6 9 9 8 9 13 15 14 14 13 13 13 13 12 12 11 11 10 9 7 6 6 6 9 8
1 3 1 2 3 3 1 0 2 2 2 4 4 4 3 5 3 5 7 11 15 10 7 10 12 14 15 14 14 11 13 12 12 11 11 11 10 9 9 7 7 9 9 9
1 1 3 3 3 4 2 3 1 1 1 1 1 2 3 5 6 7 7 11 13 6 4 8 12 14 14 12 13 12 10 11 11 11 11 10 10 11 9 8 8 9 10 8
1 2 1 5 3 2 3 3 2 2 1 2 2 1 2 5 5 7 9 12 11 12 12 6 8 13 12 11 9 9 10 11 11 10 10 11 12 11 10 9 9 11 11 11
3 3 1 3 3 3 3 1 3 2 2 1 3 2 1 2 5 6 8 9 10 10 14 14 8 5 7 5 5 6 8 8 9 10 12 12 12 12 11 10 11 12 12 13
2 2 3 4 2 5 4 3 3 3 1 3 3 3 3 2 3 5 8 10 9 11 13 14 11 9 5 2 2 5 7 8 9 10 11 12 13 13 12 12 12 13 14 16
1 1 2 1 3 3 6 6 5 4 2 3 5 4 3 3 3 5 7 9 9 10 10 10 9 10 7 5 2 3 4 6 8 10 11 12 13 13 13 13 13 14 16 15
3 4 3 3 1 4 6 5 6 4 2 2 2 4 3 3 3 4 6 6 8 8 8 8 7 7 6 4 2 1 2 4 7 9 10 12 13 13 13 14 13 14 14 14
3 0 2 3 3 6 6 6 6 5 1 1 1 5 7 4 4 5 5 5 6 5 5 5 6 6 6 5 3 2 4 5 7 8 10 12 13 15 15 12 12 13 13 15
2 2 2 3 1 7 5 7 5 3 2 1 2 3 3 4 4 3 4 5 4 3 4 3 3 6 6 6 5 5 5 6 8 9 11 13 15 16 16 15 15 14 12 12
3 3 1 3 3 4 6 4 3 3 1 2 3 3 2 2 3 4 4 5 2 1 2 1 2 5 6 6 6 7 8 8 8 9 11 12 13 15 15 16 16 17 18 15
4 1 2 1 4 5 5 5 3 3 2 2 2 2 1 2 3 2 3 3 2 2 3 3 4 7 7 7 7 7 7 8 8 10 11 12 12 14 15 16 17 18 19 18
2 2 1 2 2 3 5 3 3 3 4 4 3 3 3 3 3 2 2 1 1 2 4 5 5 6 5 7 7 7 8 9 9 8 8 9 11 12 14 15 16 17 19 16
3 2 2 1 2 3 5 1 2 2 1 2 2 3 3 3 3 2 4 4 2 3 4 5 5 5 5 6 6 8 8 7 9 9 9 8 8 9 11 12 14 15 16 14
4 3 3 2 1 3 5 3 1 2 1 1 2 1 1 0 2 4 5 4 5 4 4 5 5 5 5 5 6 9 7 7 7 7 8 8 8 8 8 8 10 11 12 13
5 3 2 1 1 2 3 3 2 2 2 1 2 2 4 3 2 3 4 5 6 5 5 6 7 6 5 6 6 9 7 7 8 8 8 8 9 10 11 10 9 10 11 12
5 4 3 3 4 4 5 3 3 4 4 4 5 4 3 4 5 6 5 6 6 7 7 8 9 8 6 6 8 10 8 8 8 9 9 9 9 8 8 9 11 11 13 15
5 5 6 6 6 6 6 7 7 6 6 6 6 7 7 8 9 12 12 12 9 6 8 9 9 6 7 8 10 11 10 9 9 9 10 9 8 9 10 11 12 12 12 14
7 7 8 8 9 10 9 10 10 10 11 10 10 9 10 11 10 9 9 7 8 8 8 8 8 7 7 10 12 11 11 10 10 11 12 11 10 11 11 13 13 13 15 19
10 10 11 10 9 8 7 10 10 11 12 13 13 13 12 12 15 15 16 15 12 10 9 8 8 8 8 11 12 13 12 11 11 12 12 11 13 15 14 14 15 18 20 19
14 13 12 11 10 10 13 13 10 11 12 14 15 16 16 16 17 11 8 8 9 11 12 10 10 10 11 12 13 13 13 12 13 13 14 15 14 15 16 17 18 18 17 18
11 14 14 14 16 15 13 12 11 12 11 13 15 13 12 12 13 14 14 14 13 12 12 11 12 12 13 13 13 14 14 15 15 16 16 16 17 18 18 17 17 18 18 19
11 10 10 11 13 14 14 14 14 17 15 16 18 15 12 11 11 11 12 12 13 12 12 13 13 13 13 14 14 14 15 16 17 17 17 17 17 17 17 18 19 19 19 20

GFSNGP_925_spd_108.txt.gz
Wind_Speed
2 4 2 3 3 4 4 2 3 4 3 2 3 4 5 6 7 8 8 8 7 6 5 7 7 9 11 12 13 14 15 16 16 15 15 14 14 15 14 13 11 9 7 5
4 6 3 4 6 2 4 3 5 3 4 2 4 5 8 8 8 8 8 8 7 6 6 7 8 10 12 14 15 15 16 16 17 18 17 17 15 14 12 10 9 8 6 5
2 4 0 5 5 3 2 3 4 3 1 3 5 6 6 7 7 6 7 8 8 6 2 2 5 10 12 13 15 15 15 15 15 16 16 14 13 12 12 10 9 8 7 5
1 2 3 4 2 3 3 4 4 4 4 4 4 4 5 5 5 7 6 6 8 10 9 2 6 8 10 11 11 12 13 14 14 14 14 14 13 12 12 11 8 7 4 2
2 2 0 3 4 2 4 3 2 2 2 3 2 2 4 5 4 5 5 7 9 10 9 7 8 9 12 12 11 11 12 14 14 14 15 15 14 13 11 10 8 6 3 0
1 3 2 2 1 0 3 1 1 1 1 1 1 2 2 5 5 6 11 11 13 12 3 7 10 11 11 10 10 11 12 13 14 14 13 13 11 12 11 9 7 5 1 2
2 2 2 3 4 2 3 4 3 2 2 3 2 2 2 2 4 8 10 13 14 9 5 3 9 13 12 11 10 8 8 11 12 11 11 13 13 11 9 8 7 4 3 3
2 2 2 4 3 1 2 3 2 3 2 2 3 3 3 4 4 6 7 11 12 12 10 6 7 11 9 7 5 7 10 11 12 13 12 11 11 11 10 9 7 5 6 7
4 4 1 2 3 3 2 2 3 2 3 2 2 2 3 2 3 5 9 10 10 10 13 14 9 5 8 5 6 7 9 9 10 9 10 13 12 11 10 9 8 6 8 9
3 2 3 1 1 3 3 3 3 3 3 2 3 4 2 2 3 5 8 10 10 11 14 15 14 12 8 5 3 5 6 7 8 10 11 9 10 9 11 10 9 8 9 12
0 1 2 2 2 3 4 5 6 5 4 2 3 3 3 3 3 5 6 9 10 10 11 11 11 12 10 7 4 4 4 4 5 7 9 10 11 11 11 10 10 11 11 11
4 5 4 2 4 2 3 4 5 5 5 3 3 3 3 4 4 4 5 7 9 9 9 9 9 9 9 7 5 3 2 0 3 5 6 8 9 10 12 12 12 13 11 12
3 2 2 3 6 2 2 2 3 4 5 5 4 2 2 3 3 4 5 6 7 6 6 6 7 8 8 8 6 4 3 3 4 5 7 8 10 12 14 12 12 12 13 13
3 3 2 3 1 5 4 5 3 2 3 3 3 3 2 4 4 3 4 4 4 4 5 5 5 8 9 8 7 6 5 5 5 6 7 9 11 13 14 14 15 15 12 12
3 4 4 2 2 4 6 4 2 2 2 1 4 4 3 2 2 2 1 3 2 4 5 5 6 8 9 9 9 8 8 8 9 10 10 10 11 13 14 15 16 17 15 14
5 4 3 2 0 3 5 7 5 3 2 2 3 4 4 4 3 3 5 6 5 3 3 5 6 8 7 9 8 7 7 7 8 9 10 10 10 11 13 14 15 16 16 16
6 3 3 1 1 2 2 3 3 3 4 3 3 1 2 2 2 2 4 6 5 3 4 6 6 7 5 8 7 8 8 8 8 9 10 10 10 10 10 11 12 14 14 13
5 5 5 3 1 2 1 2 2 3 1 1 1 1 2 2 1 2 3 4 4 3 5 6 6 6 5 6 7 9 9 8 8 8 8 9 9 9 8 8 9 10 11 10
7 7 6 5 4 2 1 1 1 1 1 1 1 2 2 3 3 4 4 4 4 4 3 5 6 7 6 5 6 8 8 7 7 7 8 7 8 8 8 8 8 7 7 8
7 7 7 6 5 3 2 2 2 4 4 4 4 3 4 4 4 4 5 6 6 5 4 6 8 8 7 6 5 7 8 7 8 8 9 9 8 8 7 7 8 9 10 9
7 9 7 6 5 5 3 4 4 6 6 6 6 6 6 5 5 7 7 8 6 7 9 8 9 8 6 5 6 7 8 8 8 9 9 10 9 8 8 8 8 10 10 10
10 8 6 5 6 5 6 6 7 7 7 8 8 8 8 9 9 10 12 15 13 9 9 10 9 7 6 7 7 9 9 8 8 9 9 10 10 10 10 10 10 11 11 12
11 10 8 7 9 9 8 9 11 11 11 12 12 11 12 12 11 10 10 6 7 8 10 10 8 7 7 9 9 9 10 10 10 9 10 11 10 10 11 13 12 12 13 16
12 10 10 9 8 8 8 13 12 12 13 13 14 14 14 16 16 15 16 17 15 12 11 10 8 7 7 11 11 10 11 11 11 10 11 11 12 14 13 13 15 16 17 17
12 11 10 9 8 9 14 14 11 11 13 14 14 14 15 16 17 19 14 11 9 10 11 11 11 9 10 11 12 12 12 12 12 11 11 13 14 14 15 15 15 15 15 16
10 12 13 14 14 15 15 13 13 14 12 13 15 15 15 14 14 15 15 15 15 14 15 12 12 11 12 11 12 11 12 12 13 13 13 14 14 15 16 16 15 16 17 17
11 9 10 11 14 15 14 15 15 16 15 15 17 17 14 13 13 12 13 13 13 14 14 13 13 13 12 12 12 12 13 14 14 15 15 15 16 15 15 16 17 17 17 17

GFSNGP_925_spd_111.txt.gz
Wind_Speed
3 1 2 4 5 9 7 0 4 3 5 3 5 6 6 5 8 10 11 11 9 8 6 7 6 8 9 10 11 14 17 19 19 19 20 19 18 16 16 16 17 16 15 14
3 4 6 7 8 8 6 5 6 5 6 3 4 4 9 9 9 9 10 10 9 8 8 7 4 7 9 11 12 14 16 16 17 20 20 19 19 19 16 15 15 14 14 14
2 2 1 6 5 4 3 4 1 4 1 4 7 7 7 8 7 7 7 7 8 8 8 6 4 6 8 11 12 14 18 20 21 21 20 18 18 18 18 16 15 14 15 14
1 3 4 4 3 2 5 4 5 3 4 3 4 3 4 4 5 7 8 9 8 8 10 5 1 6 11 12 13 13 15 15 16 18 20 19 19 18 17 16 15 13 10 9
3 3 1 2 4 3 2 4 4 3 5 5 3 4 3 4 3 3 5 8 12 15 14 5 2 6 9 10 11 12 15 18 19 19 19 18 17 16 15 14 12 10 9 9
2 4 2 0 3 3 1 3 5 4 5 5 5 3 3 6 6 7 9 10 15 15 7 3 2 6 7 9 8 7 8 10 12 14 16 17 18 18 16 15 13 11 9 6
1 2 3 2 3 3 3 3 2 2 2 2 3 2 2 5 5 8 9 14 14 11 9 5 5 8 7 6 6 8 10 11 12 13 13 14 15 14 14 13 12 10 8 5
2 3 2 1 2 2 3 2 2 4 3 3 4 4 2 2 4 8 10 14 16 16 15 11 5 4 6 5 3 5 8 10 11 11 13 14 13 13 14 15 14 10 6 6
4 3 1 1 2 1 2 1 2 2 3 2 3 3 3 2 3 6 9 12 12 12 14 15 11 4 5 3 3 6 8 10 11 11 11 13 15 14 14 13 11 10 9 7
2 1 1 1 1 1 1 2 2 1 2 1 1 3 2 2 3 5 8 10 10 13 14 16 15 13 10 6 3 1 2 5 7 9 10 10 10 10 13 15 14 11 10 10
0 0 2 2 1 1 3 4 4 3 2 3 4 2 2 3 3 5 6 9 10 11 11 12 11 13 11 9 5 2 2 3 5 7 10 12 13 13 13 12 12 13 13 10
5 7 4 4 5 1 3 2 3 4 2 3 1 5 4 4 4 5 5 5 7 8 8 8 9 10 10 9 7 4 2 2 0 3 8 6 8 10 11 12 13 13 11 10
4 5 3 6 5 3 2 2 2 2 2 2 3 5 8 5 5 5 5 4 4 4 4 4 6 8 9 8 7 6 5 4 3 2 3 5 8 9 10 8 10 13 12 11
4 7 3 3 4 2 1 2 1 2 2 3 2 4 4 7 9 7 4 3 2 2 3 2 3 6 7 7 6 5 5 5 6 5 5 5 6 8 9 10 11 11 10 11
5 3 5 7 5 3 2 3 2 2 1 2 3 4 4 5 5 5 4 2 2 1 1 2 3 5 6 7 6 4 4 4 6 6 7 7 8 9 10 11 12 14 12 12
7 6 6 5 5 4 3 4 2 3 2 2 4 4 4 5 6 5 3 3 3 1 1 2 2 4 4 7 5 4 5 5 5 6 6 6 7 8 9 9 11 12 12 11
7 5 4 3 5 4 3 1 1 1 1 2 2 1 1 2 3 2 1 2 2 3 3 2 2 2 2 4 5 6 7 6 5 6 6 7 7 7 7 7 8 8 9 8
5 5 7 7 6 5 3 3 2 0 1 2 1 0 2 2 3 3 3 3 3 4 5 4 3 4 3 4 5 7 7 6 6 6 6 6 5 5 5 4 3 3 4 3
9 8 10 9 8 6 4 3 3 4 4 3 3 5 4 4 4 4 4 4 4 5 5 4 3 4 5 4 4 6 8 7 6 6 6 5 6 5 5 5 5 5 4 3
7 10 11 9 8 5 4 4 5 5 6 5 5 5 6 6 5 4 5 7 7 8 6 6 6 6 7 6 4 5 7 8 8 8 8 7 7 6 5 5 5 6 6 4
8 11 11 10 8 6 5 5 5 6 6 7 8 8 7 6 6 5 7 8 6 5 8 9 8 7 6 4 5 5 7 7 8 8 8 7 7 6 6 6 6 6 6 6
11 11 11 10 8 7 8 8 8 8 8 9 9 8 8 10 9 10 11 14 13 10 9 8 8 7 5 4 5 6 7 7 8 8 8 8 9 8 8 8 8 9 9 8
14 15 12 11 10 10 10 10 11 11 13 14 12 12 12 13 11 9 10 7 6 7 9 10 9 8 6 7 8 8 8 8 9 8 9 10 10 9 9 11 10 9 11 11
15 12 12 10 8 9 8 13 13 14 15 13 13 13 13 15 17 17 16 15 16 13 11 11 10 9 8 11 11 10 10 10 10 10 9 9 10 10 11 11 11 11 12 11
14 12 11 10 8 9 12 15 13 13 14 14 14 13 14 14 17 17 15 14 14 11 11 11 10 10 11 13 12 12 11 11 11 11 10 11 12 12 11 12 12 11 10 12
12 12 13 15 13 13 12 12 14 15 13 14 15 15 14 13 15 17 16 15 14 13 14 13 13 12 13 13 13 13 12 13 12 12 13 13 13 12 13 12 11 10 11 11
10 9 10 12 15 16 16 17 16 18 15 15 18 16 14 14 15 15 14 13 12 12 12 12 12 12 13 13 13 13 13 14 14 14 14 14 13 13 12 11 11 10 10 11

GFSNGP_925_spd_114.txt.gz
Wind_Speed
6 3 3 9 13 16 8 5 9 10 14 11 11 12 12 12 13 14 13 13 12 11 10 11 8 9 11 8 10 12 15 17 19 22 24 23 22 21 22 22 22 22 22 21
6 9 10 14 16 12 13 13 14 14 13 7 7 8 12 13 12 12 12 12 11 10 11 10 8 9 9 9 9 11 12 15 19 22 22 22 21 20 19 19 20 20 19 18
2 4 5 7 12 10 9 10 6 10 6 6 9 11 12 11 11 11 11 10 9 9 9 9 7 7 9 8 9 10 11 13 14 18 21 21 22 22 22 21 19 18 17 15
2 2 3 3 4 2 12 10 9 8 6 6 6 6 10 11 11 11 11 10 10 10 9 6 6 7 8 8 8 11 12 11 11 13 14 17 19 19 20 22 23 22 20 19
1 4 3 3 3 2 4 7 8 6 5 5 3 1 9 11 11 10 10 10 11 10 7 5 3 5 8 8 8 7 8 11 13 15 15 14 17 18 17 19 19 19 18 17
1 2 2 2 1 3 3 3 6 5 7 7 2 3 6 9 9 10 11 11 13 12 8 5 4 3 4 5 7 7 7 8 9 12 13 14 16 17 17 15 15 14 14 13
3 3 2 1 1 3 1 4 4 5 6 6 5 5 4 6 9 10 10 14 13 11 11 8 4 4 5 4 2 2 6 10 11 11 11 12 15 16 17 16 16 14 12 11
1 1 2 1 3 2 4 4 4 4 4 4 5 3 3 5 7 10 12 14 15 13 13 12 8 4 6 7 2 3 3 4 6 8 10 11 13 13 12 12 11 10 8 6
2 2 2 1 2 3 2 4 2 2 2 3 3 2 2 3 5 7 10 12 13 13 14 15 15 11 9 8 4 4 5 7 7 6 8 9 9 9 8 9 9 8 7 7
3 3 2 1 3 3 2 4 3 3 2 1 3 4 4 2 4 7 9 9 8 9 12 14 16 17 14 11 7 4 3 4 5 6 7 7 8 10 11 12 11 11 11 10
1 2 3 4 2 3 4 4 3 2 2 2 2 2 3 4 4 4 4 5 7 8 9 10 11 12 14 12 9 7 3 3 2 2 4 6 8 9 11 9 10 10 10 10
4 9 2 7 9 6 5 4 3 2 1 1 1 3 3 4 4 3 3 3 5 6 6 7 8 9 11 11 9 7 5 4 3 3 4 6 7 8 9 10 12 13 13 11
3 9 4 10 7 3 4 3 2 1 2 2 3 0 2 2 2 4 2 3 3 3 4 4 4 6 7 9 10 10 8 7 6 5 4 4 5 6 7 7 9 12 13 13
10 12 6 7 4 5 3 3 2 2 1 0 0 1 2 3 4 2 1 0 0 2 2 2 4 6 8 9 9 8 8 8 7 6 6 6 6 6 6 6 7 10 13 14
10 1 3 10 8 5 4 2 3 3 2 2 1 2 4 6 6 4 3 2 2 1 1 2 2 4 6 7 8 7 7 7 7 8 7 6 7 8 9 9 9 11 9 12
9 7 8 8 8 7 5 4 3 3 2 3 3 1 1 2 4 4 3 2 3 4 4 3 3 4 3 4 4 4 5 7 7 9 9 7 7 8 9 9 11 12 13 13
14 8 8 8 9 9 7 5 5 4 2 2 2 2 1 1 3 3 4 4 4 4 4 5 5 5 5 5 3 3 4 4 6 8 6 7 7 7 8 8 9 10 11 9
3 7 10 8 11 10 8 7 6 5 3 3 3 3 3 4 5 5 4 4 4 5 7 7 6 5 4 4 4 3 4 4 4 5 6 6 6 7 7 6 6 6 6 5
8 10 10 10 11 9 8 7 7 5 5 5 5 5 5 5 5 4 4 5 5 6 6 8 7 5 5 5 5 4 4 4 4 4 5 5 5 5 5 5 5 5 5 5
10 10 11 10 8 8 7 5 5 5 5 6 6 5 7 7 5 5 6 7 8 7 7 7 8 7 7 7 6 5 5 4 4 5 5 5 5 5 5 6 6 5 5 5
11 12 12 11 9 7 7 6 6 6 5 6 8 8 7 6 6 7 6 8 7 5 7 9 10 9 8 7 7 6 6 5 5 4 5 5 6 6 6 6 6 6 5 5
11 11 10 11 9 9 10 9 9 8 9 9 9 9 8 8 9 11 13 13 11 10 10 11 11 12 10 8 8 8 7 7 6 6 6 6 7 7 7 6 7 7 7 7
12 12 12 13 12 12 12 11 11 11 13 12 12 12 12 11 9 8 9 8 8 8 9 11 12 12 10 9 9 9 9 10 9 8 8 8 9 10 8 8 8 7 8 8
12 13 13 11 10 10 9 12 13 14 14 14 15 15 15 12 12 16 18 18 17 16 15 14 13 12 11 10 11 11 10 11 11 11 11 11 11 11 11 12 10 10 11 10
15 15 12 10 9 10 10 11 12 12 13 15 16 16 16 16 15 14 13 14 14 13 15 14 13 12 11 12 13 13 13 13 13 13 13 12 13 13 13 12 12 12 12 11
12 11 11 13 12 9 8 8 9 9 10 12 13 15 15 16 17 17 18 18 17 15 15 15 14 15 15 16 16 15 14 14 13 13 13 14 14 14 13 13 14 12 12 12
10 10 9 10 14 14 14 14 11 13 15 14 15 16 15 15 15 17 17 16 15 14 14 14 15 15 16 16 16 15 15 15 14 14 14 14 15 14 14 13 12 12 12 12

GFSNGP_925_spd_117.txt.gz
Wind_Speed
7 7 12 12 16 18 13 14 9 14 17 13 13 14 15 14 14 15 17 16 15 14 11 14 15 14 14 12 11 11 12 15 16 17 19 22 25 26 25 23 23 25 26 23
6 8 12 15 17 15 14 15 15 16 15 10 12 12 14 14 14 15 15 14 13 12 12 13 15 14 11 12 10 10 11 12 16 16 17 19 22 22 21 22 22 22 21 20
3 2 5 5 12 9 13 13 10 10 9 10 12 14 14 14 14 14 13 13 12 12 11 10 10 10 10 11 10 11 11 11 11 12 16 18 18 19 18 19 20 20 19 19
2 4 2 3 5 8 12 12 11 10 10 9 10 13 14 13 13 13 12 12 11 11 9 8 10 10 8 9 10 10 9 10 10 11 11 13 16 16 18 18 17 18 19 18
2 5 4 3 2 3 5 8 10 10 9 8 3 6 16 14 13 12 12 12 12 11 10 11 11 9 9 8 7 8 8 8 8 9 12 11 13 14 14 16 17 17 18 18
1 2 1 4 4 4 5 2 7 8 9 9 8 7 7 11 13 13 15 15 15 14 13 13 11 8 7 7 7 6 5 7 8 9 9 10 12 12 13 14 15 15 15 14
3 2 4 4 2 3 3 4 4 5 7 10 9 6 5 7 9 12 14 15 14 14 14 13 10 9 10 9 10 6 4 3 5 7 8 10 12 11 13 12 13 13 13 12
1 0 4 1 3 4 5 5 5 5 6 7 7 6 6 7 8 10 13 14 14 15 15 14 14 11 12 13 8 5 5 5 4 4 5 6 8 9 11 11 12 11 10 9
4 3 3 3 5 4 2 5 4 4 4 4 3 4 5 5 7 8 10 12 11 12 14 15 16 14 14 14 12 9 6 6 3 2 2 3 5 6 7 9 10 11 13 12
3 4 5 5 4 4 3 5 4 4 3 1 3 3 3 4 5 7 10 10 9 11 13 13 12 14 14 12 10 9 8 8 5 2 1 2 4 6 9 11 12 13 13 14
2 4 4 5 4 5 5 4 3 3 3 3 1 1 1 2 3 4 4 5 7 8 10 10 10 12 11 10 10 9 7 5 5 7 5 3 5 7 7 7 9 9 11 12
2 9 5 10 10 8 6 4 3 1 1 2 3 1 0 2 1 2 4 4 5 5 6 7 8 9 10 11 10 7 4 4 3 1 5 5 7 10 10 13 14 15 14 12
2 9 3 10 10 8 6 4 3 1 1 2 2 2 0 1 1 1 3 4 4 4 4 4 4 4 5 6 6 6 5 5 4 1 1 2 3 6 10 10 12 15 15 16
9 12 7 10 6 8 6 5 3 2 1 0 2 1 1 1 3 2 1 2 1 2 2 3 3 4 4 5 4 3 2 2 2 4 4 3 4 6 7 7 7 7 10 15
12 1 2 9 9 8 7 6 5 4 3 3 1 2 2 3 3 2 1 0 1 1 1 3 4 4 5 5 3 3 3 3 4 5 7 6 6 7 8 10 11 11 10 10
12 5 7 10 10 8 7 5 5 5 4 5 5 3 0 1 0 1 1 1 3 4 5 7 6 6 5 4 5 4 4 6 5 6 6 7 7 6 7 8 10 11 12 13
13 8 9 9 9 9 8 6 5 4 4 4 3 2 2 1 1 3 4 5 5 6 7 7 6 6 4 5 4 4 5 5 5 5 4 5 5 6 7 8 8 8 10 10
6 8 8 7 10 9 7 6 5 5 5 4 3 2 4 4 6 5 6 5 6 8 8 8 6 5 5 5 5 4 5 6 6 6 6 5 4 6 7 7 8 7 7 6
9 8 11 7 10 8 7 6 5 5 5 5 5 6 5 5 6 6 6 6 8 8 9 7 8 8 6 7 8 7 7 7 7 7 7 7 6 6 6 6 6 7 6 7
8 10 10 9 8 7 6 5 5 6 6 4 5 6 6 8 8 7 7 10 10 10 9 8 9 9 9 9 9 8 8 8 8 8 7 7 7 7 7 8 8 7 7 6
10 11 11 10 9 7 5 5 6 7 5 5 6 7 8 8 7 8 8 10 12 10 10 10 11 11 10 10 9 8 9 8 8 8 8 8 9 9 9 8 8 9 8 8
11 10 10 9 8 7 6 6 6 6 7 9 10 10 10 10 9 11 15 16 12 10 11 13 13 13 12 10 10 9 10 9 9 8 9 9 9 9 10 10 9 8 9 10
11 11 10 9 9 7 7 8 10 10 11 11 13 13 13 12 10 10 9 11 12 12 11 11 12 12 12 13 12 12 12 11 11 10 10 10 11 11 12 11 11 10 10 10
11 10 9 8 7 7 7 11 13 13 15 15 15 15 14 12 15 18 19 17 17 16 17 17 15 14 13 14 13 13 13 13 13 14 14 11 13 13 13 13 13 12 12 12
11 12 12 10 8 8 9 10 9 12 15 16 17 18 18 18 19 15 13 14 13 14 15 16 15 15 15 15 14 14 14 15 15 15 14 14 13 12 14 14 14 14 13 13
12 11 10 11 9 7 7 6 8 8 9 10 12 14 16 16 17 17 17 16 17 18 18 17 16 15 16 15 15 15 15 15 14 14 13 14 15 14 15 15 14 14 13 13
10 8 7 6 9 11 11 11 10 11 11 12 13 13 14 14 15 14 15 16 17 16 16 14 13 13 15 15 15 15 15 15 14 14 14 14 15 15 15 14 14 13 12 12

GFSNGP_925_spd_120.txt.gz
Wind_Speed
6 8 12 16 16 16 14 9 7 9 14 13 13 14 13 15 15 17 20 21 18 15 14 18 21 20 23 21 17 14 14 16 16 15 17 16 16 17 21 21 20 20 22 23
5 6 14 11 17 14 10 8 10 11 12 10 11 13 17 16 16 19 18 19 19 17 16 17 20 19 18 19 18 16 17 16 14 13 12 13 14 16 16 16 17 19 22 24
0 3 4 7 9 9 10 13 11 9 9 10 13 15 16 15 16 16 16 17 16 14 13 18 19 18 18 15 15 15 14 13 12 11 12 13 14 14 16 17 18 19 19 22
2 2 3 3 3 4 12 10 8 7 7 9 10 11 13 13 13 14 13 13 11 11 19 22 22 21 17 16 16 16 15 12 10 10 11 12 13 14 14 16 17 18 18 19
2 3 4 3 2 2 4 8 7 7 6 7 9 11 12 11 11 10 9 10 13 18 19 21 20 18 20 20 19 17 15 12 7 7 9 7 9 12 12 14 16 17 18 18
2 2 3 3 2 3 5 4 6 7 7 7 5 5 3 8 8 10 16 17 17 20 20 23 22 20 22 21 19 18 14 10 8 7 6 6 6 6 8 11 12 14 13 12
3 3 3 3 2 3 2 3 5 7 7 8 5 5 4 6 8 14 15 17 17 19 19 20 17 18 20 19 19 13 11 9 8 7 6 5 6 7 7 8 9 10 11 12
1 1 3 2 0 3 4 5 7 6 6 7 6 6 7 8 6 8 10 14 17 18 19 19 17 16 18 19 12 11 11 10 9 7 4 1 1 3 4 5 8 8 10 11
2 2 2 3 5 4 2 6 4 6 5 5 6 5 6 5 6 9 13 12 13 17 18 19 20 19 21 17 14 10 10 10 8 7 6 4 3 1 2 4 5 7 9 11
3 4 6 5 3 3 5 6 6 5 5 4 6 6 5 5 5 6 10 12 15 16 16 17 18 17 15 15 14 11 11 9 7 4 4 2 1 2 3 5 7 8 11 14
2 4 5 5 7 6 6 6 6 5 5 5 5 6 6 5 5 7 8 10 12 14 14 14 11 12 12 12 11 12 12 10 9 8 6 4 4 6 8 7 5 8 7 11
4 10 6 8 8 8 6 5 4 5 4 5 5 5 7 5 7 7 7 7 10 11 11 7 8 9 8 8 7 4 6 10 10 10 10 9 10 10 9 11 12 13 14 15
3 7 4 9 9 7 6 7 4 5 5 4 5 6 7 6 6 6 6 6 6 6 5 4 3 2 4 5 4 3 2 3 5 8 9 9 9 10 13 12 11 12 14 16
7 9 6 5 6 7 8 8 7 7 6 4 4 5 6 6 6 5 5 4 4 4 4 3 1 3 3 3 3 3 3 3 5 5 6 6 8 10 11 13 14 13 9 9
7 4 3 6 8 7 10 8 5 4 4 3 4 4 4 2 3 6 4 1 0 1 2 2 2 3 5 3 3 3 3 2 4 6 7 8 8 9 10 10 11 13 15 13
8 5 7 7 8 7 6 6 4 3 3 0 3 6 6 5 6 5 2 2 3 3 5 6 6 6 5 4 4 3 3 5 4 5 7 8 9 10 11 11 11 11 12 14
9 6 6 7 8 7 7 6 5 4 5 3 5 5 3 2 2 3 4 7 7 7 7 6 7 7 5 5 4 3 4 4 4 5 5 7 8 8 10 11 12 12 11 11
4 7 6 7 7 7 7 6 7 6 5 6 5 4 2 2 5 5 4 6 8 10 9 9 8 7 6 5 5 5 5 6 7 7 7 7 8 9 9 9 10 11 11 11
5 9 10 9 12 10 9 9 9 8 9 7 7 5 5 5 5 6 6 8 9 10 10 5 7 8 7 7 7 7 7 8 8 8 8 8 8 8 9 9 9 9 9 10
7 12 13 12 12 12 11 10 10 9 8 7 5 5 5 7 7 8 9 11 12 11 8 8 9 9 9 9 9 9 8 9 9 9 9 9 9 9 9 9 9 10 10 9
9 12 12 13 12 12 11 10 9 7 7 6 7 7 7 6 7 7 9 12 13 8 9 9 10 10 10 10 10 11 10 10 10 10 10 11 11 12 12 12 11 11 11 10
10 9 12 14 13 11 9 8 7 6 7 8 8 9 9 13 13 14 14 16 15 15 14 13 13 12 12 11 13 13 12 12 13 13 13 13 13 13 15 15 14 13 12 13
15 16 16 16 15 11 9 8 8 8 10 10 10 11 12 14 13 11 10 10 10 10 12 13 11 11 12 13 16 16 14 15 15 16 15 15 16 16 16 16 15 14 16 15
15 16 15 13 11 9 7 9 10 11 12 13 14 14 15 16 18 18 18 19 18 17 16 17 17 17 14 16 17 17 15 16 16 16 17 15 15 16 17 16 16 16 16 14
18 17 16 15 12 9 9 8 8 9 11 14 17 18 18 18 19 21 17 16 16 16 18 17 17 16 16 18 18 18 17 18 18 18 18 17 16 16 15 16 17 16 15 14
17 15 17 16 13 10 8 8 9 8 9 11 13 14 15 15 16 18 18 18 19 19 19 19 19 17 18 18 18 17 17 18 18 17 17 17 16 16 17 18 18 17 16 15
14 13 13 10 11 11 10 10 10 13 11 12 15 14 13 14 15 15 16 17 18 18 18 17 15 14 15 16 16 18 18 17 17 16 16 16 16 17 16 16 17 16 14 13